Time,TemperatureF,DewpointF,PressureIn,WindDirection,WindDirectionDegrees,WindSpeedMPH,WindSpeedGustMPH,Humidity,HourlyPrecipIn,Conditions,Clouds,dailyrainin,SolarRadiationWatts/m^2,SoftwareType,DateUTC
2013-10-16 00:00:00,31.2,25.8,31.14,NNW,338,0.0,0.0,80,0.00,,,0.00,0.00,VWS V14.00,2013-10-16 06:00:00,
2013-10-16 00:01:00,31.3,25.9,31.13,NNW,338,0.0,0.0,80,0.00,,,0.00,0.00,VWS V14.00,2013-10-16 06:01:00,
2013-10-16 00:02:00,31.4,26.0,31.12,NNW,338,0.0,0.0,80,0.00,,,0.00,0.00,VWS V14.00,2013-10-16 06:02:00,
2013-10-16 00:03:00,31.5,26.0,31.12,NNW,338,0.0,0.0,80,0.00,,,0.00,0.00,VWS V14.00,2013-10-16 06:03:00,
2013-10-16 00:04:00,31.5,26.0,31.11,NNW,338,0.0,0.0,80,0.00,,,0.00,0.00,VWS V14.00,2013-10-16 06:04:00,
2013-10-16 00:05:00,31.6,26.1,31.11,NNW,338,0.0,0.0,80,0.00,,,0.00,0.00,VWS V14.00,2013-10-16 06:05:00,
2013-10-16 00:06:00,31.7,25.9,31.11,NNW,338,0.0,0.0,79,0.00,,,0.00,0.00,VWS V14.00,2013-10-16 06:06:00,
2013-10-16 00:07:00,31.7,25.9,31.11,NNW,338,0.0,0.0,79,0.00,,,0.00,0.00,VWS V14.00,2013-10-16 06:07:00,
2013-10-16 00:08:00,31.7,25.9,31.11,NNW,338,0.0,0.0,79,0.00,,,0.00,0.00,VWS V14.00,2013-10-16 06:08:00,
2013-10-16 00:09:00,31.7,25.6,31.11,NNW,338,0.0,0.0,78,0.00,,,0.00,0.00,VWS V14.00,2013-10-16 06:09:00,
2013-10-16 00:10:00,31.7,25.6,31.11,NNW,338,0.0,0.0,78,0.00,,,0.00,0.00,VWS V14.00,2013-10-16 06:10:00,
2013-10-16 00:11:00,31.7,25.6,31.11,NNW,338,0.0,0.0,78,0.00,,,0.00,0.00,VWS V14.00,2013-10-16 06:11:00,
2013-10-16 00:12:00,31.7,25.6,31.11,NNW,338,0.0,0.0,78,0.00,,,0.00,0.00,VWS V14.00,2013-10-16 06:12:00,
2013-10-16 00:13:00,31.7,25.6,31.11,NNW,338,0.0,0.0,78,0.00,,,0.00,0.00,VWS V14.00,2013-10-16 06:13:00,
2013-10-16 00:14:00,31.7,25.9,31.11,NNW,338,0.0,0.0,79,0.00,,,0.00,0.00,VWS V14.00,2013-10-16 06:14:00,
2013-10-16 00:15:00,31.8,26.0,31.11,NNW,338,0.0,0.0,79,0.00,,,0.00,0.00,VWS V14.00,2013-10-16 06:15:00,
2013-10-16 00:16:00,31.9,26.1,31.11,NNW,338,0.0,0.0,79,0.00,,,0.00,0.00,VWS V14.00,2013-10-16 06:16:00,
2013-10-16 00:17:00,31.9,26.1,31.11,NNW,338,0.0,0.0,79,0.00,,,0.00,0.00,VWS V14.00,2013-10-16 06:17:00,
2013-10-16 00:18:00,31.9,26.1,31.11,NNW,338,0.0,0.0,79,0.00,,,0.00,0.00,VWS V14.00,2013-10-16 06:18:00,
2013-10-16 00:19:00,31.9,25.8,31.11,NNW,338,0.0,0.0,78,0.00,,,0.00,0.00,VWS V14.00,2013-10-16 06:19:00,
2013-10-16 00:20:00,31.9,25.8,31.11,NNW,338,0.0,0.0,78,0.00,,,0.00,0.00,VWS V14.00,2013-10-16 06:20:00,
2013-10-16 00:21:00,31.9,25.8,31.11,NNW,338,0.0,0.0,78,0.00,,,0.00,0.00,VWS V14.00,2013-10-16 06:21:00,
2013-10-16 00:22:00,31.9,25.8,31.11,NNW,338,0.0,0.0,78,0.00,,,0.00,0.00,VWS V14.00,2013-10-16 06:22:00,
2013-10-16 00:23:00,31.9,25.8,31.11,NNW,338,0.0,0.0,78,0.00,,,0.00,0.00,VWS V14.00,2013-10-16 06:23:00,
2013-10-16 00:24:00,31.9,25.8,31.11,NNW,338,0.0,0.0,78,0.00,,,0.00,0.00,VWS V14.00,2013-10-16 06:24:00,
2013-10-16 00:25:00,31.9,26.1,31.11,NNW,338,0.0,0.0,79,0.00,,,0.00,0.00,VWS V14.00,2013-10-16 06:25:00,
2013-10-16 00:26:00,31.9,26.1,31.11,NNW,338,0.0,0.0,79,0.00,,,0.00,0.00,VWS V14.00,2013-10-16 06:26:00,
2013-10-16 00:27:00,32.0,26.2,31.11,NNW,338,0.0,0.0,79,0.00,,,0.00,0.00,VWS V14.00,2013-10-16 06:27:00,
2013-10-16 00:28:00,32.0,26.2,31.11,NNW,338,0.0,0.0,79,0.00,,,0.00,0.00,VWS V14.00,2013-10-16 06:28:00,
2013-10-16 00:29:00,32.1,26.3,31.11,NNW,338,0.0,0.0,79,0.00,,,0.00,0.00,VWS V14.00,2013-10-16 06:29:00,
2013-10-16 00:30:00,32.1,26.3,31.11,NNW,338,0.0,0.0,79,0.00,,,0.00,0.00,VWS V14.00,2013-10-16 06:30:00,
2013-10-16 00:31:00,32.1,26.3,31.11,NNW,338,0.0,0.0,79,0.00,,,0.00,0.00,VWS V14.00,2013-10-16 06:31:00,
2013-10-16 00:32:00,32.2,26.4,31.11,NNW,338,0.0,0.0,79,0.00,,,0.00,0.00,VWS V14.00,2013-10-16 06:32:00,
2013-10-16 00:33:00,32.2,26.4,31.11,NNW,338,0.0,0.0,79,0.00,,,0.00,0.00,VWS V14.00,2013-10-16 06:33:00,
2013-10-16 00:34:00,32.2,26.4,31.11,NNW,338,0.0,0.0,79,0.00,,,0.00,0.00,VWS V14.00,2013-10-16 06:34:00,
2013-10-16 00:35:00,32.2,26.1,31.11,NNW,338,0.0,0.0,78,0.00,,,0.00,0.00,VWS V14.00,2013-10-16 06:35:00,
2013-10-16 00:36:00,32.2,26.1,31.11,NNW,338,0.0,0.0,78,0.00,,,0.00,0.00,VWS V14.00,2013-10-16 06:36:00,
2013-10-16 00:37:00,32.2,26.1,31.11,NNW,338,0.0,0.0,78,0.00,,,0.00,0.00,VWS V14.00,2013-10-16 06:37:00,
2013-10-16 00:38:00,32.2,26.1,31.11,NNW,338,0.0,0.0,78,0.00,,,0.00,0.00,VWS V14.00,2013-10-16 06:38:00,
2013-10-16 00:39:00,32.2,26.1,31.11,NNW,338,0.0,0.0,78,0.00,,,0.00,0.00,VWS V14.00,2013-10-16 06:39:00,
2013-10-16 00:40:00,32.2,26.1,31.11,NNW,338,0.0,0.0,78,0.00,,,0.00,0.00,VWS V14.00,2013-10-16 06:40:00,
2013-10-16 00:41:00,32.2,26.1,31.11,NNW,338,0.0,0.0,78,0.00,,,0.00,0.00,VWS V14.00,2013-10-16 06:41:00,
2013-10-16 00:42:00,32.2,26.1,31.11,NNW,338,0.0,0.0,78,0.00,,,0.00,0.00,VWS V14.00,2013-10-16 06:42:00,
2013-10-16 00:43:00,32.2,26.1,31.11,NNW,338,0.0,0.0,78,0.00,,,0.00,0.00,VWS V14.00,2013-10-16 06:43:00,
2013-10-16 00:44:00,32.2,26.1,31.11,NNW,338,0.0,0.0,78,0.00,,,0.00,0.00,VWS V14.00,2013-10-16 06:44:00,
2013-10-16 00:45:00,32.2,26.1,31.11,NNW,338,0.0,0.0,78,0.00,,,0.00,0.00,VWS V14.00,2013-10-16 06:45:00,
2013-10-16 00:46:00,32.2,26.4,31.11,NNW,338,0.0,0.0,79,0.00,,,0.00,0.00,VWS V14.00,2013-10-16 06:46:00,
2013-10-16 00:47:00,32.3,26.5,31.10,NNW,338,0.0,0.0,79,0.00,,,0.00,0.00,VWS V14.00,2013-10-16 06:47:00,
2013-10-16 00:48:00,32.3,26.5,31.10,NNW,338,0.0,0.0,79,0.00,,,0.00,0.00,VWS V14.00,2013-10-16 06:48:00,
2013-10-16 00:49:00,32.3,26.5,31.11,NNW,338,0.0,0.0,79,0.00,,,0.00,0.00,VWS V14.00,2013-10-16 06:49:00,
2013-10-16 00:50:00,32.3,26.5,31.11,NNW,338,0.0,0.0,79,0.00,,,0.00,0.00,VWS V14.00,2013-10-16 06:50:00,
2013-10-16 00:51:00,32.3,26.5,31.11,NNW,338,0.0,0.0,79,0.00,,,0.00,0.00,VWS V14.00,2013-10-16 06:51:00,
2013-10-16 00:52:00,32.3,26.5,31.11,NNW,338,0.0,0.0,79,0.00,,,0.00,0.00,VWS V14.00,2013-10-16 06:52:00,
2013-10-16 00:53:00,32.3,26.5,31.11,NNW,338,0.0,0.0,79,0.00,,,0.00,0.00,VWS V14.00,2013-10-16 06:53:00,
2013-10-16 00:54:00,32.4,26.6,31.11,NNW,338,0.0,0.0,79,0.00,,,0.00,0.00,VWS V14.00,2013-10-16 06:54:00,
2013-10-16 00:55:00,32.4,26.6,31.11,NNW,338,0.0,0.0,79,0.00,,,0.00,0.00,VWS V14.00,2013-10-16 06:55:00,
2013-10-16 00:56:00,32.4,26.6,31.11,NNW,338,0.0,0.0,79,0.00,,,0.00,0.00,VWS V14.00,2013-10-16 06:56:00,
2013-10-16 00:57:00,32.4,26.6,31.11,NNW,338,0.0,0.0,79,0.00,,,0.00,0.00,VWS V14.00,2013-10-16 06:57:00,
2013-10-16 00:58:00,32.4,26.6,31.11,NNW,338,0.0,0.0,79,0.00,,,0.00,0.00,VWS V14.00,2013-10-16 06:58:00,
2013-10-16 00:59:00,32.5,26.7,31.11,NNW,338,0.0,0.0,79,0.00,,,0.00,0.00,VWS V14.00,2013-10-16 06:59:00,
2013-10-16 01:00:00,32.5,26.7,31.11,NNW,338,0.0,0.0,79,0.00,,,0.00,0.00,VWS V14.00,2013-10-16 07:00:00,
2013-10-16 01:01:00,32.5,26.7,31.11,NNW,338,0.0,0.0,79,0.00,,,0.00,0.00,VWS V14.00,2013-10-16 07:01:00,
2013-10-16 01:02:00,32.6,26.8,31.08,NNW,338,0.0,0.0,79,0.00,,,0.00,0.00,VWS V14.00,2013-10-16 07:02:00,
2013-10-16 01:03:00,32.6,26.5,31.09,NNW,338,0.0,0.0,78,0.00,,,0.00,0.00,VWS V14.00,2013-10-16 07:03:00,
2013-10-16 01:04:00,32.6,26.5,31.09,NNW,338,0.0,0.0,78,0.00,,,0.00,0.00,VWS V14.00,2013-10-16 07:04:00,
2013-10-16 01:05:00,32.7,26.6,31.08,NNW,338,0.0,0.0,78,0.00,,,0.00,0.00,VWS V14.00,2013-10-16 07:05:00,
2013-10-16 01:06:00,32.7,26.6,31.08,NNW,338,0.0,0.0,78,0.00,,,0.00,0.00,VWS V14.00,2013-10-16 07:06:00,
2013-10-16 01:07:00,32.7,26.6,31.09,NNW,338,0.0,0.0,78,0.00,,,0.00,0.00,VWS V14.00,2013-10-16 07:07:00,
2013-10-16 01:08:00,32.7,26.6,31.08,NNW,338,0.0,0.0,78,0.00,,,0.00,0.00,VWS V14.00,2013-10-16 07:08:00,
2013-10-16 01:09:00,32.7,26.6,31.09,NNW,338,0.0,0.0,78,0.00,,,0.00,0.00,VWS V14.00,2013-10-16 07:09:00,
2013-10-16 01:10:00,32.7,26.3,31.09,NNW,338,0.0,0.0,77,0.00,,,0.00,0.00,VWS V14.00,2013-10-16 07:10:00,
2013-10-16 01:11:00,32.7,26.3,31.09,NNW,338,0.0,0.0,77,0.00,,,0.00,0.00,VWS V14.00,2013-10-16 07:11:00,
2013-10-16 01:12:00,32.8,26.4,31.09,NNW,338,0.0,0.0,77,0.00,,,0.00,0.00,VWS V14.00,2013-10-16 07:12:00,
2013-10-16 01:13:00,32.7,26.3,31.09,NNW,338,0.0,0.0,77,0.00,,,0.00,0.00,VWS V14.00,2013-10-16 07:13:00,
2013-10-16 01:14:00,32.7,26.0,31.09,NNW,338,0.0,0.0,76,0.00,,,0.00,0.00,VWS V14.00,2013-10-16 07:14:00,
2013-10-16 01:15:00,32.6,25.9,31.09,NNW,338,0.0,0.0,76,0.00,,,0.00,0.00,VWS V14.00,2013-10-16 07:15:00,
2013-10-16 01:16:00,32.6,25.9,31.09,NNW,338,0.0,0.0,76,0.00,,,0.00,0.00,VWS V14.00,2013-10-16 07:16:00,
2013-10-16 01:17:00,32.6,26.2,31.09,NNW,338,0.0,0.0,77,0.00,,,0.00,0.00,VWS V14.00,2013-10-16 07:17:00,
2013-10-16 01:18:00,32.6,26.2,31.09,NNW,338,0.0,0.0,77,0.00,,,0.00,0.00,VWS V14.00,2013-10-16 07:18:00,
2013-10-16 01:19:00,32.6,26.2,31.09,NNW,338,0.0,0.0,77,0.00,,,0.00,0.00,VWS V14.00,2013-10-16 07:19:00,
2013-10-16 01:20:00,32.5,26.1,31.09,NNW,338,0.0,0.0,77,0.00,,,0.00,0.00,VWS V14.00,2013-10-16 07:20:00,
2013-10-16 01:21:00,32.5,26.1,31.09,NNW,338,0.0,0.0,77,0.00,,,0.00,0.00,VWS V14.00,2013-10-16 07:21:00,
2013-10-16 01:22:00,32.5,26.1,31.09,NNW,338,0.0,0.0,77,0.00,,,0.00,0.00,VWS V14.00,2013-10-16 07:22:00,
2013-10-16 01:23:00,32.5,26.1,31.09,NNW,338,0.0,0.0,77,0.00,,,0.00,0.00,VWS V14.00,2013-10-16 07:23:00,
2013-10-16 01:24:00,32.5,26.1,31.08,NNW,338,0.0,0.0,77,0.00,,,0.00,0.00,VWS V14.00,2013-10-16 07:24:00,
2013-10-16 01:25:00,32.5,26.1,31.09,NNW,338,0.0,0.0,77,0.00,,,0.00,0.00,VWS V14.00,2013-10-16 07:25:00,
2013-10-16 01:26:00,32.4,25.7,31.08,NNW,338,0.0,0.0,76,0.00,,,0.00,0.00,VWS V14.00,2013-10-16 07:26:00,
2013-10-16 01:27:00,32.2,25.5,31.08,NNW,338,0.0,0.0,76,0.00,,,0.00,0.00,VWS V14.00,2013-10-16 07:27:00,
2013-10-16 01:28:00,32.1,25.4,31.08,NNW,338,0.0,0.0,76,0.00,,,0.00,0.00,VWS V14.00,2013-10-16 07:28:00,
2013-10-16 01:29:00,32.1,25.4,31.09,NNW,338,0.0,0.0,76,0.00,,,0.00,0.00,VWS V14.00,2013-10-16 07:29:00,
2013-10-16 01:30:00,32.0,25.3,31.08,NNW,338,0.0,0.0,76,0.00,,,0.00,0.00,VWS V14.00,2013-10-16 07:30:00,
2013-10-16 01:31:00,31.9,25.2,31.09,NNW,338,0.0,0.0,76,0.00,,,0.00,0.00,VWS V14.00,2013-10-16 07:31:00,
2013-10-16 01:32:00,31.9,25.5,31.08,NNW,338,0.0,0.0,77,0.00,,,0.00,0.00,VWS V14.00,2013-10-16 07:32:00,
2013-10-16 01:33:00,31.8,25.4,31.08,NNW,338,0.0,0.0,77,0.00,,,0.00,0.00,VWS V14.00,2013-10-16 07:33:00,
2013-10-16 01:34:00,31.7,25.3,31.08,NNW,338,0.0,0.0,77,0.00,,,0.00,0.00,VWS V14.00,2013-10-16 07:34:00,
2013-10-16 01:35:00,31.7,25.6,31.08,NNW,338,0.0,0.0,78,0.00,,,0.00,0.00,VWS V14.00,2013-10-16 07:35:00,
2013-10-16 01:36:00,31.7,25.6,31.08,NNW,338,0.0,0.0,78,0.00,,,0.00,0.00,VWS V14.00,2013-10-16 07:36:00,
2013-10-16 01:37:00,31.7,25.6,31.08,NNW,338,0.0,0.0,78,0.00,,,0.00,0.00,VWS V14.00,2013-10-16 07:37:00,
2013-10-16 01:38:00,31.7,25.6,31.08,NNW,338,0.0,0.0,78,0.00,,,0.00,0.00,VWS V14.00,2013-10-16 07:38:00,
2013-10-16 01:39:00,31.7,25.6,31.08,NNW,338,0.0,0.0,78,0.00,,,0.00,0.00,VWS V14.00,2013-10-16 07:39:00,
2013-10-16 01:40:00,31.6,25.5,31.08,NNW,338,0.0,0.0,78,0.00,,,0.00,0.00,VWS V14.00,2013-10-16 07:40:00,
2013-10-16 01:41:00,31.7,25.6,31.08,NNW,338,0.0,0.0,78,0.00,,,0.00,0.00,VWS V14.00,2013-10-16 07:41:00,
2013-10-16 01:42:00,31.6,25.5,31.08,NNW,338,0.0,0.0,78,0.00,,,0.00,0.00,VWS V14.00,2013-10-16 07:42:00,
2013-10-16 01:43:00,31.6,25.5,31.08,NNW,338,0.0,0.0,78,0.00,,,0.00,0.00,VWS V14.00,2013-10-16 07:43:00,
2013-10-16 01:44:00,31.6,25.5,31.08,NNW,338,0.0,0.0,78,0.00,,,0.00,0.00,VWS V14.00,2013-10-16 07:44:00,
2013-10-16 01:45:00,31.6,25.5,31.08,NNW,338,0.0,0.0,78,0.00,,,0.00,0.00,VWS V14.00,2013-10-16 07:45:00,
2013-10-16 01:46:00,31.6,25.5,31.08,NNW,338,0.0,0.0,78,0.00,,,0.00,0.00,VWS V14.00,2013-10-16 07:46:00,
2013-10-16 01:47:00,31.6,25.5,31.09,NNW,338,0.0,0.0,78,0.00,,,0.00,0.00,VWS V14.00,2013-10-16 07:47:00,
2013-10-16 01:48:00,31.6,25.5,31.08,NNW,338,0.0,0.0,78,0.00,,,0.00,0.00,VWS V14.00,2013-10-16 07:48:00,
2013-10-16 01:49:00,31.6,25.5,31.08,NNW,338,0.0,0.0,78,0.00,,,0.00,0.00,VWS V14.00,2013-10-16 07:49:00,
2013-10-16 01:50:00,31.6,25.5,31.08,NNW,338,0.0,0.0,78,0.00,,,0.00,0.00,VWS V14.00,2013-10-16 07:50:00,
2013-10-16 01:51:00,31.6,25.5,31.09,NNW,338,0.0,0.0,78,0.00,,,0.00,0.00,VWS V14.00,2013-10-16 07:51:00,
2013-10-16 01:52:00,31.7,25.6,31.08,NNW,338,0.0,0.0,78,0.00,,,0.00,0.00,VWS V14.00,2013-10-16 07:52:00,
2013-10-16 01:53:00,31.7,25.6,31.08,NNW,338,0.0,0.0,78,0.00,,,0.00,0.00,VWS V14.00,2013-10-16 07:53:00,
2013-10-16 01:54:00,31.7,25.6,31.08,NNW,338,0.0,0.0,78,0.00,,,0.00,0.00,VWS V14.00,2013-10-16 07:54:00,
2013-10-16 01:55:00,31.7,25.6,31.09,NNW,338,0.0,0.0,78,0.00,,,0.00,0.00,VWS V14.00,2013-10-16 07:55:00,
2013-10-16 01:56:00,31.7,25.6,31.09,NNW,338,0.0,0.0,78,0.00,,,0.00,0.00,VWS V14.00,2013-10-16 07:56:00,
2013-10-16 01:57:00,31.7,25.6,31.08,NNW,338,0.0,0.0,78,0.00,,,0.00,0.00,VWS V14.00,2013-10-16 07:57:00,
2013-10-16 01:58:00,31.7,25.6,31.08,NNW,338,0.0,0.0,78,0.00,,,0.00,0.00,VWS V14.00,2013-10-16 07:58:00,
2013-10-16 01:59:00,31.8,25.7,31.08,NNW,338,0.0,0.0,78,0.00,,,0.00,0.00,VWS V14.00,2013-10-16 07:59:00,
2013-10-16 02:00:00,31.8,25.7,31.08,NNW,338,0.0,0.0,78,0.00,,,0.00,0.00,VWS V14.00,2013-10-16 08:00:00,
2013-10-16 02:01:00,31.7,25.6,31.07,NNW,338,0.0,0.0,78,0.00,,,0.00,0.00,VWS V14.00,2013-10-16 08:01:00,
2013-10-16 02:02:00,31.7,25.6,31.07,NNW,338,0.0,0.0,78,0.00,,,0.00,0.00,VWS V14.00,2013-10-16 08:02:00,
2013-10-16 02:03:00,31.7,25.6,31.07,NNW,338,0.0,0.0,78,0.00,,,0.00,0.00,VWS V14.00,2013-10-16 08:03:00,
2013-10-16 02:04:00,31.7,25.6,31.07,NNW,338,0.0,0.0,78,0.00,,,0.00,0.00,VWS V14.00,2013-10-16 08:04:00,
2013-10-16 02:05:00,31.7,25.6,31.07,NNW,338,0.0,0.0,78,0.00,,,0.00,0.00,VWS V14.00,2013-10-16 08:05:00,
2013-10-16 02:06:00,31.7,25.6,31.07,NNW,338,0.0,0.0,78,0.00,,,0.00,0.00,VWS V14.00,2013-10-16 08:06:00,
2013-10-16 02:07:00,31.7,25.6,31.07,NNW,338,0.0,0.0,78,0.00,,,0.00,0.00,VWS V14.00,2013-10-16 08:07:00,
2013-10-16 02:08:00,31.7,25.3,31.07,NNW,338,0.0,0.0,77,0.00,,,0.00,0.00,VWS V14.00,2013-10-16 08:08:00,
2013-10-16 02:09:00,31.6,25.5,31.07,NNW,338,0.0,0.0,78,0.00,,,0.00,0.00,VWS V14.00,2013-10-16 08:09:00,
2013-10-16 02:10:00,31.6,25.5,31.07,NNW,338,0.0,0.0,78,0.00,,,0.00,0.00,VWS V14.00,2013-10-16 08:10:00,
2013-10-16 02:11:00,31.6,25.5,31.07,NNW,338,0.0,0.0,78,0.00,,,0.00,0.00,VWS V14.00,2013-10-16 08:11:00,
2013-10-16 02:12:00,31.5,25.4,31.07,NNW,338,0.0,0.0,78,0.00,,,0.00,0.00,VWS V14.00,2013-10-16 08:12:00,
2013-10-16 02:13:00,31.5,25.4,31.07,NNW,338,0.0,0.0,78,0.00,,,0.00,0.00,VWS V14.00,2013-10-16 08:13:00,
2013-10-16 02:14:00,31.5,25.4,31.07,NNW,338,0.0,0.0,78,0.00,,,0.00,0.00,VWS V14.00,2013-10-16 08:14:00,
2013-10-16 02:15:00,31.5,25.4,31.07,NNW,338,0.0,0.0,78,0.00,,,0.00,0.00,VWS V14.00,2013-10-16 08:15:00,
2013-10-16 02:16:00,31.4,25.4,31.07,NNW,338,0.0,0.0,78,0.00,,,0.00,0.00,VWS V14.00,2013-10-16 08:16:00,
2013-10-16 02:17:00,31.3,25.2,31.07,NNW,338,0.0,0.0,78,0.00,,,0.00,0.00,VWS V14.00,2013-10-16 08:17:00,
2013-10-16 02:18:00,31.3,25.2,31.07,NNW,338,0.0,0.0,78,0.00,,,0.00,0.00,VWS V14.00,2013-10-16 08:18:00,
2013-10-16 02:19:00,31.3,25.6,31.07,NNW,338,0.0,0.0,79,0.00,,,0.00,0.00,VWS V14.00,2013-10-16 08:19:00,
2013-10-16 02:20:00,31.2,25.5,31.07,NNW,338,0.0,0.0,79,0.00,,,0.00,0.00,VWS V14.00,2013-10-16 08:20:00,
2013-10-16 02:21:00,31.3,25.9,31.07,NNW,338,0.0,0.0,80,0.00,,,0.00,0.00,VWS V14.00,2013-10-16 08:21:00,
2013-10-16 02:22:00,31.3,25.9,31.07,NNW,338,0.0,0.0,80,0.00,,,0.00,0.00,VWS V14.00,2013-10-16 08:22:00,
2013-10-16 02:23:00,31.3,25.6,31.07,NNW,338,0.0,0.0,79,0.00,,,0.00,0.00,VWS V14.00,2013-10-16 08:23:00,
2013-10-16 02:24:00,31.2,25.5,31.07,NNW,338,0.0,0.0,79,0.00,,,0.00,0.00,VWS V14.00,2013-10-16 08:24:00,
2013-10-16 02:25:00,31.3,25.9,31.07,NNW,338,0.0,0.0,80,0.00,,,0.00,0.00,VWS V14.00,2013-10-16 08:25:00,
2013-10-16 02:26:00,31.3,25.9,31.07,NNW,338,0.0,0.0,80,0.00,,,0.00,0.00,VWS V14.00,2013-10-16 08:26:00,
2013-10-16 02:27:00,31.4,26.0,31.07,NNW,338,0.0,0.0,80,0.00,,,0.00,0.00,VWS V14.00,2013-10-16 08:27:00,
2013-10-16 02:28:00,31.4,26.0,31.07,NNW,338,0.0,0.0,80,0.00,,,0.00,0.00,VWS V14.00,2013-10-16 08:28:00,
2013-10-16 02:29:00,31.4,25.6,31.07,NNW,338,0.0,0.0,79,0.00,,,0.00,0.00,VWS V14.00,2013-10-16 08:29:00,
2013-10-16 02:30:00,31.5,25.8,31.07,NNW,338,0.0,0.0,79,0.00,,,0.00,0.00,VWS V14.00,2013-10-16 08:30:00,
2013-10-16 02:31:00,31.5,25.8,31.07,NNW,338,0.0,0.0,79,0.00,,,0.00,0.00,VWS V14.00,2013-10-16 08:31:00,
2013-10-16 02:32:00,31.6,25.9,31.07,NNW,338,0.0,0.0,79,0.00,,,0.00,0.00,VWS V14.00,2013-10-16 08:32:00,
2013-10-16 02:33:00,31.7,25.9,31.07,NNW,338,0.0,0.0,79,0.00,,,0.00,0.00,VWS V14.00,2013-10-16 08:33:00,
2013-10-16 02:34:00,31.8,26.0,31.07,NNW,338,0.0,0.0,79,0.00,,,0.00,0.00,VWS V14.00,2013-10-16 08:34:00,
2013-10-16 02:35:00,31.9,26.1,31.07,NNW,338,0.0,0.0,79,0.00,,,0.00,0.00,VWS V14.00,2013-10-16 08:35:00,
2013-10-16 02:36:00,31.9,25.8,31.07,NNW,338,0.0,0.0,78,0.00,,,0.00,0.00,VWS V14.00,2013-10-16 08:36:00,
2013-10-16 02:37:00,32.0,25.9,31.07,NNW,338,0.0,0.0,78,0.00,,,0.00,0.00,VWS V14.00,2013-10-16 08:37:00,
2013-10-16 02:38:00,32.0,25.9,31.07,NNW,338,0.0,0.0,78,0.00,,,0.00,0.00,VWS V14.00,2013-10-16 08:38:00,
2013-10-16 02:39:00,32.1,26.0,31.07,NNW,338,0.0,0.0,78,0.00,,,0.00,0.00,VWS V14.00,2013-10-16 08:39:00,
2013-10-16 02:40:00,32.1,26.0,31.07,NNW,338,0.0,0.0,78,0.00,,,0.00,0.00,VWS V14.00,2013-10-16 08:40:00,
2013-10-16 02:41:00,32.1,26.0,31.07,NNW,338,0.0,0.0,78,0.00,,,0.00,0.00,VWS V14.00,2013-10-16 08:41:00,
2013-10-16 02:42:00,32.2,26.1,31.07,NNW,338,0.0,0.0,78,0.00,,,0.00,0.00,VWS V14.00,2013-10-16 08:42:00,
2013-10-16 02:43:00,32.2,25.8,31.07,NNW,338,0.0,2.0,77,0.00,,,0.00,0.00,VWS V14.00,2013-10-16 08:43:00,
2013-10-16 02:44:00,32.1,25.1,31.07,NNW,338,2.0,2.0,75,0.00,,,0.00,0.00,VWS V14.00,2013-10-16 08:44:00,
2013-10-16 02:45:00,32.1,24.8,31.07,NNW,338,0.0,2.0,74,0.00,,,0.00,0.00,VWS V14.00,2013-10-16 08:45:00,
2013-10-16 02:46:00,32.0,24.7,31.07,NNW,338,0.0,0.0,74,0.00,,,0.00,0.00,VWS V14.00,2013-10-16 08:46:00,
2013-10-16 02:47:00,31.9,24.6,31.07,NNW,338,2.0,4.0,74,0.00,,,0.00,0.00,VWS V14.00,2013-10-16 08:47:00,
2013-10-16 02:48:00,31.8,24.5,31.07,NNW,338,0.0,4.0,74,0.00,,,0.00,0.00,VWS V14.00,2013-10-16 08:48:00,
2013-10-16 02:49:00,31.7,24.7,31.07,NNW,338,0.0,4.0,75,0.00,,,0.00,0.00,VWS V14.00,2013-10-16 08:49:00,
2013-10-16 02:50:00,31.6,24.6,31.07,NNW,338,0.0,4.0,75,0.00,,,0.00,0.00,VWS V14.00,2013-10-16 08:50:00,
2013-10-16 02:51:00,31.4,24.4,31.07,NNW,338,0.0,4.0,75,0.00,,,0.00,0.00,VWS V14.00,2013-10-16 08:51:00,
2013-10-16 02:52:00,31.3,24.6,31.07,NNW,338,0.0,4.0,76,0.00,,,0.00,0.00,VWS V14.00,2013-10-16 08:52:00,
2013-10-16 02:53:00,31.3,24.6,31.07,NNW,338,0.0,4.0,76,0.00,,,0.00,0.00,VWS V14.00,2013-10-16 08:53:00,
2013-10-16 02:54:00,31.2,24.5,31.07,NNW,338,0.0,4.0,76,0.00,,,0.00,0.00,VWS V14.00,2013-10-16 08:54:00,
2013-10-16 02:55:00,31.2,24.5,31.07,NNW,338,0.0,4.0,76,0.00,,,0.00,0.00,VWS V14.00,2013-10-16 08:55:00,
2013-10-16 02:56:00,31.1,24.4,31.07,NNW,338,0.0,4.0,76,0.00,,,0.00,0.00,VWS V14.00,2013-10-16 08:56:00,
2013-10-16 02:57:00,31.0,24.3,31.07,NNW,338,0.0,4.0,76,0.00,,,0.00,0.00,VWS V14.00,2013-10-16 08:57:00,
2013-10-16 02:58:00,31.0,24.3,31.07,NNW,338,0.0,4.0,76,0.00,,,0.00,0.00,VWS V14.00,2013-10-16 08:58:00,
2013-10-16 02:59:00,30.9,24.5,31.07,NNW,338,0.0,4.0,77,0.00,,,0.00,0.00,VWS V14.00,2013-10-16 08:59:00,
2013-10-16 03:00:00,30.8,24.5,31.06,NNW,338,0.0,4.0,77,0.00,,,0.00,0.00,VWS V14.00,2013-10-16 09:00:00,
2013-10-16 03:01:00,30.8,24.5,31.07,NNW,338,0.0,0.0,77,0.00,,,0.00,0.00,VWS V14.00,2013-10-16 09:01:00,
2013-10-16 03:02:00,30.7,24.7,31.07,NNW,338,0.0,0.0,78,0.00,,,0.00,0.00,VWS V14.00,2013-10-16 09:02:00,
2013-10-16 03:03:00,30.7,24.7,31.06,NNW,338,0.0,0.0,78,0.00,,,0.00,0.00,VWS V14.00,2013-10-16 09:03:00,
2013-10-16 03:04:00,30.7,24.7,31.06,NNW,338,0.0,0.0,78,0.00,,,0.00,0.00,VWS V14.00,2013-10-16 09:04:00,
2013-10-16 03:05:00,30.7,25.0,31.06,NNW,338,0.0,0.0,79,0.00,,,0.00,0.00,VWS V14.00,2013-10-16 09:05:00,
2013-10-16 03:06:00,30.6,24.6,31.06,NNW,338,0.0,0.0,78,0.00,,,0.00,0.00,VWS V14.00,2013-10-16 09:06:00,
2013-10-16 03:07:00,30.6,24.6,31.06,NNW,338,0.0,0.0,78,0.00,,,0.00,0.00,VWS V14.00,2013-10-16 09:07:00,
2013-10-16 03:08:00,30.6,24.6,31.06,NNW,338,0.0,0.0,78,0.00,,,0.00,0.00,VWS V14.00,2013-10-16 09:08:00,
2013-10-16 03:09:00,30.5,24.2,31.06,NNW,338,0.0,0.0,77,0.00,,,0.00,0.00,VWS V14.00,2013-10-16 09:09:00,
2013-10-16 03:10:00,30.5,24.2,31.06,NNW,338,0.0,0.0,77,0.00,,,0.00,0.00,VWS V14.00,2013-10-16 09:10:00,
2013-10-16 03:11:00,30.5,24.2,31.07,NNW,338,0.0,0.0,77,0.00,,,0.00,0.00,VWS V14.00,2013-10-16 09:11:00,
2013-10-16 03:12:00,30.5,24.2,31.06,NNW,338,0.0,0.0,77,0.00,,,0.00,0.00,VWS V14.00,2013-10-16 09:12:00,
2013-10-16 03:13:00,30.4,24.1,31.07,NNW,338,0.0,0.0,77,0.00,,,0.00,0.00,VWS V14.00,2013-10-16 09:13:00,
2013-10-16 03:14:00,30.3,24.0,31.08,NNW,338,0.0,0.0,77,0.00,,,0.00,0.00,VWS V14.00,2013-10-16 09:14:00,
2013-10-16 03:15:00,30.3,24.0,31.07,NNW,338,0.0,0.0,77,0.00,,,0.00,0.00,VWS V14.00,2013-10-16 09:15:00,
2013-10-16 03:16:00,30.3,24.0,31.07,NNW,338,0.0,0.0,77,0.00,,,0.00,0.00,VWS V14.00,2013-10-16 09:16:00,
2013-10-16 03:17:00,30.2,23.9,31.08,NNW,338,0.0,0.0,77,0.00,,,0.00,0.00,VWS V14.00,2013-10-16 09:17:00,
2013-10-16 03:18:00,30.2,23.9,31.08,NNW,338,0.0,0.0,77,0.00,,,0.00,0.00,VWS V14.00,2013-10-16 09:18:00,
2013-10-16 03:19:00,30.1,23.8,31.08,NNW,338,0.0,0.0,77,0.00,,,0.00,0.00,VWS V14.00,2013-10-16 09:19:00,
2013-10-16 03:20:00,30.0,23.7,31.07,NNW,338,0.0,0.0,77,0.00,,,0.00,0.00,VWS V14.00,2013-10-16 09:20:00,
2013-10-16 03:21:00,29.9,23.6,31.07,NNW,338,0.0,0.0,77,0.00,,,0.00,0.00,VWS V14.00,2013-10-16 09:21:00,
2013-10-16 03:22:00,29.8,23.5,31.07,NNW,338,0.0,0.0,77,0.00,,,0.00,0.00,VWS V14.00,2013-10-16 09:22:00,
2013-10-16 03:23:00,29.8,23.5,31.07,NNW,338,0.0,0.0,77,0.00,,,0.00,0.00,VWS V14.00,2013-10-16 09:23:00,
2013-10-16 03:24:00,29.8,23.5,31.07,NNW,338,0.0,0.0,77,0.00,,,0.00,0.00,VWS V14.00,2013-10-16 09:24:00,
2013-10-16 03:25:00,29.7,23.4,31.07,NNW,338,0.0,0.0,77,0.00,,,0.00,0.00,VWS V14.00,2013-10-16 09:25:00,
2013-10-16 03:26:00,29.6,23.3,31.08,NNW,338,0.0,0.0,77,0.00,,,0.00,0.00,VWS V14.00,2013-10-16 09:26:00,
2013-10-16 03:27:00,29.5,23.5,31.08,NNW,338,0.0,0.0,78,0.00,,,0.00,0.00,VWS V14.00,2013-10-16 09:27:00,
2013-10-16 03:28:00,29.4,23.4,31.08,NNW,338,0.0,0.0,78,0.00,,,0.00,0.00,VWS V14.00,2013-10-16 09:28:00,
2013-10-16 03:29:00,29.3,23.3,31.08,NNW,338,0.0,0.0,78,0.00,,,0.00,0.00,VWS V14.00,2013-10-16 09:29:00,
2013-10-16 03:30:00,29.3,23.6,31.07,NNW,338,0.0,0.0,79,0.00,,,0.00,0.00,VWS V14.00,2013-10-16 09:30:00,
2013-10-16 03:31:00,29.2,23.8,31.07,NNW,338,0.0,0.0,80,0.00,,,0.00,0.00,VWS V14.00,2013-10-16 09:31:00,
2013-10-16 03:32:00,29.2,23.8,31.07,NNW,338,0.0,0.0,80,0.00,,,0.00,0.00,VWS V14.00,2013-10-16 09:32:00,
2013-10-16 03:33:00,29.1,23.7,31.07,NNW,338,0.0,0.0,80,0.00,,,0.00,0.00,VWS V14.00,2013-10-16 09:33:00,
2013-10-16 03:34:00,29.1,23.7,31.07,NNW,338,0.0,0.0,80,0.00,,,0.00,0.00,VWS V14.00,2013-10-16 09:34:00,
2013-10-16 03:35:00,29.1,23.7,31.07,NNW,338,0.0,0.0,80,0.00,,,0.00,0.00,VWS V14.00,2013-10-16 09:35:00,
2013-10-16 03:36:00,29.0,23.6,31.07,NNW,338,0.0,0.0,80,0.00,,,0.00,0.00,VWS V14.00,2013-10-16 09:36:00,
2013-10-16 03:37:00,29.0,23.6,31.07,NNW,338,0.0,0.0,80,0.00,,,0.00,0.00,VWS V14.00,2013-10-16 09:37:00,
2013-10-16 03:38:00,29.0,23.6,31.07,NNW,338,0.0,0.0,80,0.00,,,0.00,0.00,VWS V14.00,2013-10-16 09:38:00,
2013-10-16 03:39:00,29.0,23.6,31.07,NNW,338,0.0,0.0,80,0.00,,,0.00,0.00,VWS V14.00,2013-10-16 09:39:00,
2013-10-16 03:40:00,28.9,23.8,31.07,NNW,338,0.0,0.0,81,0.00,,,0.00,0.00,VWS V14.00,2013-10-16 09:40:00,
2013-10-16 03:41:00,28.9,23.8,31.07,NNW,338,0.0,0.0,81,0.00,,,0.00,0.00,VWS V14.00,2013-10-16 09:41:00,
2013-10-16 03:42:00,28.8,23.7,31.07,NNW,338,0.0,0.0,81,0.00,,,0.00,0.00,VWS V14.00,2013-10-16 09:42:00,
2013-10-16 03:43:00,28.8,23.7,31.07,NNW,338,0.0,0.0,81,0.00,,,0.00,0.00,VWS V14.00,2013-10-16 09:43:00,
2013-10-16 03:44:00,28.8,23.7,31.07,NNW,338,0.0,0.0,81,0.00,,,0.00,0.00,VWS V14.00,2013-10-16 09:44:00,
2013-10-16 03:45:00,28.8,23.7,31.07,NNW,338,0.0,0.0,81,0.00,,,0.00,0.00,VWS V14.00,2013-10-16 09:45:00,
2013-10-16 03:46:00,28.8,23.7,31.07,NNW,338,0.0,0.0,81,0.00,,,0.00,0.00,VWS V14.00,2013-10-16 09:46:00,
2013-10-16 03:47:00,28.8,24.0,31.07,NNW,338,0.0,0.0,82,0.00,,,0.00,0.00,VWS V14.00,2013-10-16 09:47:00,
2013-10-16 03:48:00,28.8,24.0,31.07,NNW,338,0.0,0.0,82,0.00,,,0.00,0.00,VWS V14.00,2013-10-16 09:48:00,
2013-10-16 03:49:00,28.7,23.9,31.07,NNW,338,0.0,0.0,82,0.00,,,0.00,0.00,VWS V14.00,2013-10-16 09:49:00,
2013-10-16 03:50:00,28.7,23.9,31.07,NNW,338,0.0,0.0,82,0.00,,,0.00,0.00,VWS V14.00,2013-10-16 09:50:00,
2013-10-16 03:51:00,28.8,24.0,31.07,NNW,338,0.0,0.0,82,0.00,,,0.00,0.00,VWS V14.00,2013-10-16 09:51:00,
2013-10-16 03:52:00,28.8,24.0,31.07,NNW,338,0.0,0.0,82,0.00,,,0.00,0.00,VWS V14.00,2013-10-16 09:52:00,
2013-10-16 03:53:00,28.8,24.3,31.07,NNW,338,0.0,0.0,83,0.00,,,0.00,0.00,VWS V14.00,2013-10-16 09:53:00,
2013-10-16 03:54:00,28.8,24.3,31.07,NNW,338,0.0,0.0,83,0.00,,,0.00,0.00,VWS V14.00,2013-10-16 09:54:00,
2013-10-16 03:55:00,28.9,24.4,31.07,NNW,338,0.0,0.0,83,0.00,,,0.00,0.00,VWS V14.00,2013-10-16 09:55:00,
2013-10-16 03:56:00,28.9,24.4,31.07,NNW,338,0.0,0.0,83,0.00,,,0.00,0.00,VWS V14.00,2013-10-16 09:56:00,
2013-10-16 03:57:00,29.0,24.5,31.06,NNW,338,0.0,0.0,83,0.00,,,0.00,0.00,VWS V14.00,2013-10-16 09:57:00,
2013-10-16 03:58:00,29.0,24.5,31.06,NNW,338,0.0,0.0,83,0.00,,,0.00,0.00,VWS V14.00,2013-10-16 09:58:00,
2013-10-16 03:59:00,29.1,24.6,31.07,NNW,338,0.0,0.0,83,0.00,,,0.00,0.00,VWS V14.00,2013-10-16 09:59:00,
2013-10-16 04:00:00,29.1,24.3,31.07,NNW,338,0.0,0.0,82,0.00,,,0.00,0.00,VWS V14.00,2013-10-16 10:00:00,
2013-10-16 04:01:00,29.1,24.3,31.07,NNW,338,0.0,0.0,82,0.00,,,0.00,0.00,VWS V14.00,2013-10-16 10:01:00,
2013-10-16 04:02:00,29.0,23.9,31.07,NNW,338,0.0,0.0,81,0.00,,,0.00,0.00,VWS V14.00,2013-10-16 10:02:00,
2013-10-16 04:03:00,29.0,23.9,31.07,NNW,338,0.0,0.0,81,0.00,,,0.00,0.00,VWS V14.00,2013-10-16 10:03:00,
2013-10-16 04:04:00,29.0,23.9,31.07,NNW,338,0.0,0.0,81,0.00,,,0.00,0.00,VWS V14.00,2013-10-16 10:04:00,
2013-10-16 04:05:00,29.0,23.6,31.07,NNW,338,0.0,0.0,80,0.00,,,0.00,0.00,VWS V14.00,2013-10-16 10:05:00,
2013-10-16 04:06:00,28.9,23.5,31.07,NNW,338,0.0,0.0,80,0.00,,,0.00,0.00,VWS V14.00,2013-10-16 10:06:00,
2013-10-16 04:07:00,28.9,23.5,31.07,NNW,338,0.0,0.0,80,0.00,,,0.00,0.00,VWS V14.00,2013-10-16 10:07:00,
2013-10-16 04:08:00,28.9,23.5,31.07,NNW,338,0.0,0.0,80,0.00,,,0.00,0.00,VWS V14.00,2013-10-16 10:08:00,
2013-10-16 04:09:00,28.9,23.2,31.07,NNW,338,0.0,0.0,79,0.00,,,0.00,0.00,VWS V14.00,2013-10-16 10:09:00,
2013-10-16 04:10:00,28.9,23.2,31.07,NNW,338,0.0,0.0,79,0.00,,,0.00,0.00,VWS V14.00,2013-10-16 10:10:00,
2013-10-16 04:11:00,28.8,23.4,31.07,NNW,338,0.0,0.0,80,0.00,,,0.00,0.00,VWS V14.00,2013-10-16 10:11:00,
2013-10-16 04:12:00,28.8,23.4,31.07,NNW,338,0.0,0.0,80,0.00,,,0.00,0.00,VWS V14.00,2013-10-16 10:12:00,
2013-10-16 04:13:00,28.8,23.1,31.07,NNW,338,0.0,0.0,79,0.00,,,0.00,0.00,VWS V14.00,2013-10-16 10:13:00,
2013-10-16 04:14:00,28.8,23.1,31.07,NNW,338,0.0,0.0,79,0.00,,,0.00,0.00,VWS V14.00,2013-10-16 10:14:00,
2013-10-16 04:15:00,28.7,23.0,31.07,NNW,338,0.0,0.0,79,0.00,,,0.00,0.00,VWS V14.00,2013-10-16 10:15:00,
2013-10-16 04:16:00,28.7,23.0,31.07,NNW,338,0.0,0.0,79,0.00,,,0.00,0.00,VWS V14.00,2013-10-16 10:16:00,
2013-10-16 04:17:00,28.6,22.9,31.07,NNW,338,0.0,0.0,79,0.00,,,0.00,0.00,VWS V14.00,2013-10-16 10:17:00,
2013-10-16 04:18:00,28.6,22.9,31.07,NNW,338,0.0,0.0,79,0.00,,,0.00,0.00,VWS V14.00,2013-10-16 10:18:00,
2013-10-16 04:19:00,28.5,23.1,31.07,NNW,338,0.0,0.0,80,0.00,,,0.00,0.00,VWS V14.00,2013-10-16 10:19:00,
2013-10-16 04:20:00,28.5,23.1,31.07,NNW,338,0.0,0.0,80,0.00,,,0.00,0.00,VWS V14.00,2013-10-16 10:20:00,
2013-10-16 04:21:00,28.5,23.4,31.07,NNW,338,0.0,0.0,81,0.00,,,0.00,0.00,VWS V14.00,2013-10-16 10:21:00,
2013-10-16 04:22:00,28.4,23.3,31.07,NNW,338,0.0,0.0,81,0.00,,,0.00,0.00,VWS V14.00,2013-10-16 10:22:00,
2013-10-16 04:23:00,28.4,23.3,31.08,NNW,338,0.0,0.0,81,0.00,,,0.00,0.00,VWS V14.00,2013-10-16 10:23:00,
2013-10-16 04:24:00,28.4,23.3,31.08,NNW,338,0.0,0.0,81,0.00,,,0.00,0.00,VWS V14.00,2013-10-16 10:24:00,
2013-10-16 04:25:00,28.4,23.3,31.08,NNW,338,0.0,0.0,81,0.00,,,0.00,0.00,VWS V14.00,2013-10-16 10:25:00,
2013-10-16 04:26:00,28.4,23.3,31.08,NNW,338,0.0,0.0,81,0.00,,,0.00,0.00,VWS V14.00,2013-10-16 10:26:00,
2013-10-16 04:27:00,28.3,23.2,31.08,NNW,338,0.0,0.0,81,0.00,,,0.00,0.00,VWS V14.00,2013-10-16 10:27:00,
2013-10-16 04:28:00,28.3,23.2,31.08,NNW,338,0.0,0.0,81,0.00,,,0.00,0.00,VWS V14.00,2013-10-16 10:28:00,
2013-10-16 04:29:00,28.3,23.2,31.08,NNW,338,0.0,0.0,81,0.00,,,0.00,0.00,VWS V14.00,2013-10-16 10:29:00,
2013-10-16 04:30:00,28.3,23.2,31.08,NNW,338,0.0,0.0,81,0.00,,,0.00,0.00,VWS V14.00,2013-10-16 10:30:00,
2013-10-16 04:31:00,28.3,23.2,31.08,NNW,338,0.0,0.0,81,0.00,,,0.00,0.00,VWS V14.00,2013-10-16 10:31:00,
2013-10-16 04:32:00,28.3,23.2,31.08,NNW,338,0.0,0.0,81,0.00,,,0.00,0.00,VWS V14.00,2013-10-16 10:32:00,
2013-10-16 04:33:00,28.2,23.1,31.08,NNW,338,0.0,0.0,81,0.00,,,0.00,0.00,VWS V14.00,2013-10-16 10:33:00,
2013-10-16 04:34:00,28.2,23.1,31.08,NNW,338,0.0,0.0,81,0.00,,,0.00,0.00,VWS V14.00,2013-10-16 10:34:00,
2013-10-16 04:35:00,28.2,23.1,31.08,NNW,338,0.0,0.0,81,0.00,,,0.00,0.00,VWS V14.00,2013-10-16 10:35:00,
2013-10-16 04:36:00,28.1,23.0,31.08,NNW,338,0.0,0.0,81,0.00,,,0.00,0.00,VWS V14.00,2013-10-16 10:36:00,
2013-10-16 04:37:00,28.1,23.0,31.08,NNW,338,0.0,0.0,81,0.00,,,0.00,0.00,VWS V14.00,2013-10-16 10:37:00,
2013-10-16 04:38:00,28.1,22.7,31.08,NNW,338,0.0,0.0,80,0.00,,,0.00,0.00,VWS V14.00,2013-10-16 10:38:00,
2013-10-16 04:39:00,28.0,22.6,31.08,NNW,338,0.0,0.0,80,0.00,,,0.00,0.00,VWS V14.00,2013-10-16 10:39:00,
2013-10-16 04:40:00,28.0,22.9,31.08,NNW,338,0.0,0.0,81,0.00,,,0.00,0.00,VWS V14.00,2013-10-16 10:40:00,
2013-10-16 04:41:00,28.0,22.9,31.08,NNW,338,0.0,0.0,81,0.00,,,0.00,0.00,VWS V14.00,2013-10-16 10:41:00,
2013-10-16 04:42:00,27.9,22.8,31.08,NNW,338,0.0,0.0,81,0.00,,,0.00,0.00,VWS V14.00,2013-10-16 10:42:00,
2013-10-16 04:43:00,27.9,22.8,31.08,NNW,338,0.0,0.0,81,0.00,,,0.00,0.00,VWS V14.00,2013-10-16 10:43:00,
2013-10-16 04:44:00,27.9,22.8,31.08,NNW,338,0.0,0.0,81,0.00,,,0.00,0.00,VWS V14.00,2013-10-16 10:44:00,
2013-10-16 04:45:00,27.8,22.7,31.08,NNW,338,0.0,0.0,81,0.00,,,0.00,0.00,VWS V14.00,2013-10-16 10:45:00,
2013-10-16 04:46:00,27.8,22.7,31.08,NNW,338,0.0,0.0,81,0.00,,,0.00,0.00,VWS V14.00,2013-10-16 10:46:00,
2013-10-16 04:47:00,27.8,22.7,31.08,NNW,338,0.0,0.0,81,0.00,,,0.00,0.00,VWS V14.00,2013-10-16 10:47:00,
2013-10-16 04:48:00,27.7,22.6,31.08,NNW,338,0.0,0.0,81,0.00,,,0.00,0.00,VWS V14.00,2013-10-16 10:48:00,
2013-10-16 04:49:00,27.7,22.6,31.08,NNW,338,0.0,0.0,81,0.00,,,0.00,0.00,VWS V14.00,2013-10-16 10:49:00,
2013-10-16 04:50:00,27.6,22.5,31.08,NNW,338,0.0,0.0,81,0.00,,,0.00,0.00,VWS V14.00,2013-10-16 10:50:00,
2013-10-16 04:51:00,27.5,22.5,31.08,NNW,338,0.0,0.0,81,0.00,,,0.00,0.00,VWS V14.00,2013-10-16 10:51:00,
2013-10-16 04:52:00,27.5,22.5,31.07,NNW,338,0.0,0.0,81,0.00,,,0.00,0.00,VWS V14.00,2013-10-16 10:52:00,
2013-10-16 04:53:00,27.5,22.7,31.07,NNW,338,0.0,0.0,82,0.00,,,0.00,0.00,VWS V14.00,2013-10-16 10:53:00,
2013-10-16 04:54:00,27.4,22.6,31.07,NNW,338,0.0,0.0,82,0.00,,,0.00,0.00,VWS V14.00,2013-10-16 10:54:00,
2013-10-16 04:55:00,27.4,22.6,31.07,NNW,338,0.0,0.0,82,0.00,,,0.00,0.00,VWS V14.00,2013-10-16 10:55:00,
2013-10-16 04:56:00,27.4,22.6,31.07,NNW,338,0.0,0.0,82,0.00,,,0.00,0.00,VWS V14.00,2013-10-16 10:56:00,
2013-10-16 04:57:00,27.4,22.6,31.07,NNW,338,0.0,0.0,82,0.00,,,0.00,0.00,VWS V14.00,2013-10-16 10:57:00,
2013-10-16 04:58:00,27.4,22.6,31.07,NNW,338,0.0,0.0,82,0.00,,,0.00,0.00,VWS V14.00,2013-10-16 10:58:00,
2013-10-16 04:59:00,27.4,22.6,31.07,NNW,338,0.0,0.0,82,0.00,,,0.00,0.00,VWS V14.00,2013-10-16 10:59:00,
2013-10-16 05:00:00,27.3,22.5,31.07,NNW,338,0.0,0.0,82,0.00,,,0.00,0.00,VWS V14.00,2013-10-16 11:00:00,
2013-10-16 05:01:00,27.2,22.4,31.09,NNW,338,0.0,0.0,82,0.00,,,0.00,0.00,VWS V14.00,2013-10-16 11:01:00,
2013-10-16 05:02:00,27.2,22.4,31.09,NNW,338,0.0,0.0,82,0.00,,,0.00,0.00,VWS V14.00,2013-10-16 11:02:00,
2013-10-16 05:03:00,27.2,22.4,31.09,NNW,338,0.0,0.0,82,0.00,,,0.00,0.00,VWS V14.00,2013-10-16 11:03:00,
2013-10-16 05:04:00,27.1,22.4,31.09,NNW,338,0.0,0.0,82,0.00,,,0.00,0.00,VWS V14.00,2013-10-16 11:04:00,
2013-10-16 05:05:00,27.1,22.4,31.09,NNW,338,0.0,0.0,82,0.00,,,0.00,0.00,VWS V14.00,2013-10-16 11:05:00,
2013-10-16 05:06:00,27.1,22.4,31.09,NNW,338,0.0,0.0,82,0.00,,,0.00,0.00,VWS V14.00,2013-10-16 11:06:00,
2013-10-16 05:07:00,27.0,22.2,31.09,NNW,338,0.0,0.0,82,0.00,,,0.00,0.00,VWS V14.00,2013-10-16 11:07:00,
2013-10-16 05:08:00,27.0,22.2,31.09,NNW,338,0.0,0.0,82,0.00,,,0.00,0.00,VWS V14.00,2013-10-16 11:08:00,
2013-10-16 05:09:00,27.0,22.5,31.09,NNW,338,0.0,0.0,83,0.00,,,0.00,0.00,VWS V14.00,2013-10-16 11:09:00,
2013-10-16 05:10:00,27.0,22.5,31.09,NNW,338,0.0,0.0,83,0.00,,,0.00,0.00,VWS V14.00,2013-10-16 11:10:00,
2013-10-16 05:11:00,27.0,22.5,31.09,NNW,338,0.0,0.0,83,0.00,,,0.00,0.00,VWS V14.00,2013-10-16 11:11:00,
2013-10-16 05:12:00,27.0,22.5,31.09,NNW,338,0.0,0.0,83,0.00,,,0.00,0.00,VWS V14.00,2013-10-16 11:12:00,
2013-10-16 05:13:00,27.0,22.5,31.09,NNW,338,0.0,0.0,83,0.00,,,0.00,0.00,VWS V14.00,2013-10-16 11:13:00,
2013-10-16 05:14:00,27.0,22.5,31.09,NNW,338,0.0,0.0,83,0.00,,,0.00,0.00,VWS V14.00,2013-10-16 11:14:00,
2013-10-16 05:15:00,26.9,22.4,31.09,NNW,338,0.0,0.0,83,0.00,,,0.00,0.00,VWS V14.00,2013-10-16 11:15:00,
2013-10-16 05:16:00,26.9,22.4,31.09,NNW,338,0.0,0.0,83,0.00,,,0.00,0.00,VWS V14.00,2013-10-16 11:16:00,
2013-10-16 05:17:00,26.9,22.4,31.09,NNW,338,0.0,0.0,83,0.00,,,0.00,0.00,VWS V14.00,2013-10-16 11:17:00,
2013-10-16 05:18:00,26.9,22.4,31.09,NNW,338,0.0,0.0,83,0.00,,,0.00,0.00,VWS V14.00,2013-10-16 11:18:00,
2013-10-16 05:19:00,26.9,22.4,31.08,NNW,338,0.0,0.0,83,0.00,,,0.00,0.00,VWS V14.00,2013-10-16 11:19:00,
2013-10-16 05:20:00,26.9,22.4,31.09,NNW,338,0.0,0.0,83,0.00,,,0.00,0.00,VWS V14.00,2013-10-16 11:20:00,
2013-10-16 05:21:00,26.9,22.7,31.08,NNW,338,0.0,0.0,84,0.00,,,0.00,0.00,VWS V14.00,2013-10-16 11:21:00,
2013-10-16 05:22:00,26.9,22.7,31.08,NNW,338,0.0,0.0,84,0.00,,,0.00,0.00,VWS V14.00,2013-10-16 11:22:00,
2013-10-16 05:23:00,26.9,22.7,31.08,NNW,338,0.0,0.0,84,0.00,,,0.00,0.00,VWS V14.00,2013-10-16 11:23:00,
2013-10-16 05:24:00,26.9,22.7,31.08,NNW,338,0.0,0.0,84,0.00,,,0.00,0.00,VWS V14.00,2013-10-16 11:24:00,
2013-10-16 05:25:00,26.9,22.7,31.08,NNW,338,0.0,0.0,84,0.00,,,0.00,0.00,VWS V14.00,2013-10-16 11:25:00,
2013-10-16 05:26:00,27.0,22.8,31.08,NNW,338,0.0,0.0,84,0.00,,,0.00,0.00,VWS V14.00,2013-10-16 11:26:00,
2013-10-16 05:27:00,27.0,22.8,31.08,NNW,338,0.0,0.0,84,0.00,,,0.00,0.00,VWS V14.00,2013-10-16 11:27:00,
2013-10-16 05:28:00,27.0,22.8,31.08,NNW,338,0.0,0.0,84,0.00,,,0.00,0.00,VWS V14.00,2013-10-16 11:28:00,
2013-10-16 05:29:00,27.0,22.8,31.08,NNW,338,0.0,0.0,84,0.00,,,0.00,0.00,VWS V14.00,2013-10-16 11:29:00,
2013-10-16 05:30:00,27.0,22.8,31.08,NNW,338,0.0,0.0,84,0.00,,,0.00,0.00,VWS V14.00,2013-10-16 11:30:00,
2013-10-16 05:31:00,27.1,22.9,31.08,NNW,338,0.0,0.0,84,0.00,,,0.00,0.00,VWS V14.00,2013-10-16 11:31:00,
2013-10-16 05:32:00,27.1,22.9,31.08,NNW,338,0.0,0.0,84,0.00,,,0.00,0.00,VWS V14.00,2013-10-16 11:32:00,
2013-10-16 05:33:00,27.2,23.3,31.08,NNW,338,0.0,0.0,85,0.00,,,0.00,0.00,VWS V14.00,2013-10-16 11:33:00,
2013-10-16 05:34:00,27.3,23.4,31.08,NNW,338,0.0,0.0,85,0.00,,,0.00,0.00,VWS V14.00,2013-10-16 11:34:00,
2013-10-16 05:35:00,27.4,23.5,31.08,NNW,338,0.0,0.0,85,0.00,,,0.00,0.00,VWS V14.00,2013-10-16 11:35:00,
2013-10-16 05:36:00,27.4,23.5,31.08,NNW,338,0.0,0.0,85,0.00,,,0.00,0.00,VWS V14.00,2013-10-16 11:36:00,
2013-10-16 05:37:00,27.5,23.6,31.08,NNW,338,0.0,0.0,85,0.00,,,0.00,0.00,VWS V14.00,2013-10-16 11:37:00,
2013-10-16 05:38:00,27.5,23.6,31.07,NNW,338,0.0,0.0,85,0.00,,,0.00,0.00,VWS V14.00,2013-10-16 11:38:00,
2013-10-16 05:39:00,27.6,23.7,31.07,NNW,338,0.0,0.0,85,0.00,,,0.00,0.00,VWS V14.00,2013-10-16 11:39:00,
2013-10-16 05:40:00,27.6,23.7,31.07,NNW,338,0.0,0.0,85,0.00,,,0.00,0.00,VWS V14.00,2013-10-16 11:40:00,
2013-10-16 05:41:00,27.6,23.7,31.07,NNW,338,0.0,0.0,85,0.00,,,0.00,0.00,VWS V14.00,2013-10-16 11:41:00,
2013-10-16 05:42:00,27.7,23.8,31.07,NNW,338,0.0,0.0,85,0.00,,,0.00,0.00,VWS V14.00,2013-10-16 11:42:00,
2013-10-16 05:43:00,27.7,23.8,31.07,NNW,338,0.0,0.0,85,0.00,,,0.00,0.00,VWS V14.00,2013-10-16 11:43:00,
2013-10-16 05:44:00,27.7,23.8,31.07,NNW,338,0.0,0.0,85,0.00,,,0.00,0.00,VWS V14.00,2013-10-16 11:44:00,
2013-10-16 05:45:00,27.7,23.8,31.07,NNW,338,0.0,0.0,85,0.00,,,0.00,0.00,VWS V14.00,2013-10-16 11:45:00,
2013-10-16 05:46:00,27.8,23.9,31.07,NNW,338,0.0,0.0,85,0.00,,,0.00,0.00,VWS V14.00,2013-10-16 11:46:00,
2013-10-16 05:47:00,27.8,23.9,31.07,NNW,338,0.0,0.0,85,0.00,,,0.00,0.00,VWS V14.00,2013-10-16 11:47:00,
2013-10-16 05:48:00,27.9,24.0,31.07,NNW,338,0.0,0.0,85,0.00,,,0.00,0.00,VWS V14.00,2013-10-16 11:48:00,
2013-10-16 05:49:00,27.9,24.0,31.07,NNW,338,0.0,0.0,85,0.00,,,0.00,0.00,VWS V14.00,2013-10-16 11:49:00,
2013-10-16 05:50:00,27.9,24.0,31.07,NNW,338,0.0,0.0,85,0.00,,,0.00,0.00,VWS V14.00,2013-10-16 11:50:00,
2013-10-16 05:51:00,28.0,24.1,31.07,NNW,338,0.0,0.0,85,0.00,,,0.00,0.00,VWS V14.00,2013-10-16 11:51:00,
2013-10-16 05:52:00,28.0,23.8,31.07,NNW,338,0.0,0.0,84,0.00,,,0.00,0.00,VWS V14.00,2013-10-16 11:52:00,
2013-10-16 05:53:00,28.1,24.2,31.07,NNW,338,0.0,0.0,85,0.00,,,0.00,0.00,VWS V14.00,2013-10-16 11:53:00,
2013-10-16 05:54:00,28.1,23.9,31.07,NNW,338,0.0,0.0,84,0.00,,,0.00,0.00,VWS V14.00,2013-10-16 11:54:00,
2013-10-16 05:55:00,28.1,23.9,31.07,NNW,338,0.0,0.0,84,0.00,,,0.00,0.00,VWS V14.00,2013-10-16 11:55:00,
2013-10-16 05:56:00,28.2,24.0,31.07,NNW,338,0.0,0.0,84,0.00,,,0.00,0.00,VWS V14.00,2013-10-16 11:56:00,
2013-10-16 05:57:00,28.2,24.0,31.07,NNW,338,0.0,0.0,84,0.00,,,0.00,0.00,VWS V14.00,2013-10-16 11:57:00,
2013-10-16 05:58:00,28.2,24.0,31.07,NNW,338,0.0,0.0,84,0.00,,,0.00,0.00,VWS V14.00,2013-10-16 11:58:00,
2013-10-16 05:59:00,28.3,24.1,31.07,NNW,338,0.0,0.0,84,0.00,,,0.00,0.00,VWS V14.00,2013-10-16 11:59:00,
2013-10-16 06:00:00,28.3,24.1,31.07,NNW,338,0.0,0.0,84,0.00,,,0.00,0.00,VWS V14.00,2013-10-16 12:00:00,
2013-10-16 06:01:00,28.3,24.1,31.07,NNW,338,0.0,0.0,84,0.00,,,0.00,0.00,VWS V14.00,2013-10-16 12:01:00,
2013-10-16 06:02:00,28.4,24.2,31.09,NNW,338,0.0,0.0,84,0.00,,,0.00,0.00,VWS V14.00,2013-10-16 12:02:00,
2013-10-16 06:03:00,28.4,24.2,31.09,NNW,338,0.0,0.0,84,0.00,,,0.00,0.00,VWS V14.00,2013-10-16 12:03:00,
2013-10-16 06:04:00,28.4,24.2,31.09,NNW,338,0.0,0.0,84,0.00,,,0.00,0.00,VWS V14.00,2013-10-16 12:04:00,
2013-10-16 06:05:00,28.5,24.3,31.09,NNW,338,0.0,0.0,84,0.00,,,0.00,0.00,VWS V14.00,2013-10-16 12:05:00,
2013-10-16 06:06:00,28.5,24.3,31.09,NNW,338,0.0,0.0,84,0.00,,,0.00,0.00,VWS V14.00,2013-10-16 12:06:00,
2013-10-16 06:07:00,28.6,24.4,31.09,NNW,338,0.0,0.0,84,0.00,,,0.00,0.00,VWS V14.00,2013-10-16 12:07:00,
2013-10-16 06:08:00,28.6,24.4,31.09,NNW,338,0.0,0.0,84,0.00,,,0.00,0.00,VWS V14.00,2013-10-16 12:08:00,
2013-10-16 06:09:00,28.7,24.5,31.09,NNW,338,0.0,0.0,84,0.00,,,0.00,0.00,VWS V14.00,2013-10-16 12:09:00,
2013-10-16 06:10:00,28.7,24.5,31.09,NNW,338,0.0,0.0,84,0.00,,,0.00,0.00,VWS V14.00,2013-10-16 12:10:00,
2013-10-16 06:11:00,28.7,24.5,31.09,NNW,338,0.0,0.0,84,0.00,,,0.00,0.00,VWS V14.00,2013-10-16 12:11:00,
2013-10-16 06:12:00,28.8,24.9,31.09,NNW,338,0.0,0.0,85,0.00,,,0.00,0.00,VWS V14.00,2013-10-16 12:12:00,
2013-10-16 06:13:00,28.8,24.9,31.08,NNW,338,0.0,0.0,85,0.00,,,0.00,0.00,VWS V14.00,2013-10-16 12:13:00,
2013-10-16 06:14:00,28.8,24.9,31.08,NNW,338,0.0,0.0,85,0.00,,,0.00,0.00,VWS V14.00,2013-10-16 12:14:00,
2013-10-16 06:15:00,28.9,25.0,31.08,NNW,338,0.0,0.0,85,0.00,,,0.00,0.00,VWS V14.00,2013-10-16 12:15:00,
2013-10-16 06:16:00,28.9,25.0,31.08,NNW,338,0.0,0.0,85,0.00,,,0.00,0.00,VWS V14.00,2013-10-16 12:16:00,
2013-10-16 06:17:00,29.0,25.1,31.08,NNW,338,0.0,0.0,85,0.00,,,0.00,0.00,VWS V14.00,2013-10-16 12:17:00,
2013-10-16 06:18:00,29.0,25.1,31.08,NNW,338,0.0,0.0,85,0.00,,,0.00,0.00,VWS V14.00,2013-10-16 12:18:00,
2013-10-16 06:19:00,29.1,25.2,31.08,NNW,338,0.0,0.0,85,0.00,,,0.00,0.00,VWS V14.00,2013-10-16 12:19:00,
2013-10-16 06:20:00,29.1,25.2,31.08,NNW,338,0.0,0.0,85,0.00,,,0.00,0.00,VWS V14.00,2013-10-16 12:20:00,
2013-10-16 06:21:00,29.2,25.0,31.08,NNW,338,0.0,0.0,84,0.00,,,0.00,0.00,VWS V14.00,2013-10-16 12:21:00,
2013-10-16 06:22:00,29.2,25.0,31.08,NNW,338,0.0,0.0,84,0.00,,,0.00,0.00,VWS V14.00,2013-10-16 12:22:00,
2013-10-16 06:23:00,29.2,25.0,31.08,NNW,338,0.0,0.0,84,0.00,,,0.00,0.00,VWS V14.00,2013-10-16 12:23:00,
2013-10-16 06:24:00,29.2,25.0,31.08,NNW,338,0.0,0.0,84,0.00,,,0.00,0.00,VWS V14.00,2013-10-16 12:24:00,
2013-10-16 06:25:00,29.2,25.0,31.08,NNW,338,0.0,0.0,84,0.00,,,0.00,0.00,VWS V14.00,2013-10-16 12:25:00,
2013-10-16 06:26:00,29.3,25.1,31.08,NNW,338,0.0,0.0,84,0.00,,,0.00,0.00,VWS V14.00,2013-10-16 12:26:00,
2013-10-16 06:27:00,29.3,25.1,31.08,NNW,338,0.0,0.0,84,0.00,,,0.00,0.00,VWS V14.00,2013-10-16 12:27:00,
2013-10-16 06:28:00,29.4,25.2,31.08,NNW,338,0.0,0.0,84,0.00,,,0.00,0.00,VWS V14.00,2013-10-16 12:28:00,
2013-10-16 06:29:00,29.4,25.2,31.08,NNW,338,0.0,0.0,84,0.00,,,0.00,0.00,VWS V14.00,2013-10-16 12:29:00,
2013-10-16 06:30:00,29.4,25.2,31.08,NNW,338,0.0,0.0,84,0.00,,,0.00,0.00,VWS V14.00,2013-10-16 12:30:00,
2013-10-16 06:31:00,29.5,25.3,31.07,NNW,338,0.0,0.0,84,0.00,,,0.00,0.00,VWS V14.00,2013-10-16 12:31:00,
2013-10-16 06:32:00,29.5,25.3,31.06,NNW,338,0.0,0.0,84,0.00,,,0.00,0.00,VWS V14.00,2013-10-16 12:32:00,
2013-10-16 06:33:00,29.6,25.4,31.07,NNW,338,0.0,0.0,84,0.00,,,0.00,0.00,VWS V14.00,2013-10-16 12:33:00,
2013-10-16 06:34:00,29.6,25.4,31.07,NNW,338,0.0,0.0,84,0.00,,,0.00,0.00,VWS V14.00,2013-10-16 12:34:00,
2013-10-16 06:35:00,29.6,25.4,31.07,NNW,338,0.0,0.0,84,0.00,,,0.00,0.00,VWS V14.00,2013-10-16 12:35:00,
2013-10-16 06:36:00,29.7,25.5,31.07,NNW,338,1.0,2.0,84,0.00,,,0.00,0.00,VWS V14.00,2013-10-16 12:36:00,
2013-10-16 06:37:00,29.7,25.5,31.07,NNW,338,3.0,3.0,84,0.00,,,0.00,0.00,VWS V14.00,2013-10-16 12:37:00,
2013-10-16 06:38:00,29.8,25.6,31.07,NNW,338,2.0,3.0,84,0.00,,,0.00,0.00,VWS V14.00,2013-10-16 12:38:00,
2013-10-16 06:39:00,29.8,25.6,31.07,NNW,338,2.0,3.0,84,0.00,,,0.00,0.00,VWS V14.00,2013-10-16 12:39:00,
2013-10-16 06:40:00,29.8,25.6,31.07,NNW,338,2.0,3.0,84,0.00,,,0.00,0.00,VWS V14.00,2013-10-16 12:40:00,
2013-10-16 06:41:00,29.9,25.4,31.08,NNW,338,0.0,3.0,83,0.00,,,0.00,0.00,VWS V14.00,2013-10-16 12:41:00,
2013-10-16 06:42:00,29.9,25.4,31.07,NNW,338,0.0,3.0,83,0.00,,,0.00,0.00,VWS V14.00,2013-10-16 12:42:00,
2013-10-16 06:43:00,29.8,25.0,31.07,NNW,338,0.0,3.0,82,0.00,,,0.00,0.00,VWS V14.00,2013-10-16 12:43:00,
2013-10-16 06:44:00,29.8,25.0,31.07,NNW,338,0.0,3.0,82,0.00,,,0.00,0.00,VWS V14.00,2013-10-16 12:44:00,
2013-10-16 06:45:00,29.8,25.0,31.07,NNW,338,0.0,3.0,82,0.00,,,0.00,0.00,VWS V14.00,2013-10-16 12:45:00,
2013-10-16 06:46:00,29.8,25.0,31.07,NNW,338,0.0,0.0,82,0.00,,,0.00,0.00,VWS V14.00,2013-10-16 12:46:00,
2013-10-16 06:47:00,29.8,25.0,31.07,NNW,338,0.0,0.0,82,0.00,,,0.00,0.00,VWS V14.00,2013-10-16 12:47:00,
2013-10-16 06:48:00,29.7,24.9,31.07,NNW,338,0.0,0.0,82,0.00,,,0.00,0.00,VWS V14.00,2013-10-16 12:48:00,
2013-10-16 06:49:00,29.7,24.9,31.07,NNW,338,0.0,0.0,82,0.00,,,0.00,0.00,VWS V14.00,2013-10-16 12:49:00,
2013-10-16 06:50:00,29.7,24.9,31.07,NNW,338,0.0,0.0,82,0.00,,,0.00,0.00,VWS V14.00,2013-10-16 12:50:00,
2013-10-16 06:51:00,29.7,24.9,31.07,NNW,338,0.0,0.0,82,0.00,,,0.00,0.00,VWS V14.00,2013-10-16 12:51:00,
2013-10-16 06:52:00,29.7,24.9,31.07,NNW,338,0.0,0.0,82,0.00,,,0.00,0.00,VWS V14.00,2013-10-16 12:52:00,
2013-10-16 06:53:00,29.6,24.8,31.07,NNW,338,0.0,0.0,82,0.00,,,0.00,0.00,VWS V14.00,2013-10-16 12:53:00,
2013-10-16 06:54:00,29.6,24.8,31.07,NNW,338,0.0,0.0,82,0.00,,,0.00,0.00,VWS V14.00,2013-10-16 12:54:00,
2013-10-16 06:55:00,29.6,24.8,31.07,NNW,338,0.0,0.0,82,0.00,,,0.00,0.00,VWS V14.00,2013-10-16 12:55:00,
2013-10-16 06:56:00,29.6,24.8,31.07,NNW,338,0.0,0.0,82,0.00,,,0.00,0.00,VWS V14.00,2013-10-16 12:56:00,
2013-10-16 06:57:00,29.6,24.8,31.07,NNW,338,0.0,0.0,82,0.00,,,0.00,0.00,VWS V14.00,2013-10-16 12:57:00,
2013-10-16 06:58:00,29.6,24.8,31.07,NNW,338,0.0,0.0,82,0.00,,,0.00,0.00,VWS V14.00,2013-10-16 12:58:00,
2013-10-16 06:59:00,29.6,24.8,31.07,NNW,338,0.0,0.0,82,0.00,,,0.00,0.00,VWS V14.00,2013-10-16 12:59:00,
2013-10-16 07:00:00,29.6,24.8,31.07,NNW,338,0.0,0.0,82,0.00,,,0.00,0.00,VWS V14.00,2013-10-16 13:00:00,
2013-10-16 07:01:00,29.6,24.8,31.07,NNW,338,0.0,0.0,82,0.00,,,0.00,0.00,VWS V14.00,2013-10-16 13:01:00,
2013-10-16 07:02:00,29.6,24.8,31.11,NNW,338,0.0,0.0,82,0.00,,,0.00,0.00,VWS V14.00,2013-10-16 13:02:00,
2013-10-16 07:03:00,29.6,24.8,31.11,NNW,338,0.0,0.0,82,0.00,,,0.00,0.00,VWS V14.00,2013-10-16 13:03:00,
2013-10-16 07:04:00,29.6,24.8,31.11,NNW,338,0.0,0.0,82,0.00,,,0.00,0.00,VWS V14.00,2013-10-16 13:04:00,
2013-10-16 07:05:00,29.7,24.9,31.11,NNW,338,0.0,0.0,82,0.00,,,0.00,0.00,VWS V14.00,2013-10-16 13:05:00,
2013-10-16 07:06:00,29.7,24.9,31.11,NNW,338,0.0,0.0,82,0.00,,,0.00,0.00,VWS V14.00,2013-10-16 13:06:00,
2013-10-16 07:07:00,29.7,24.9,31.10,NNW,338,0.0,0.0,82,0.00,,,0.00,0.00,VWS V14.00,2013-10-16 13:07:00,
2013-10-16 07:08:00,29.8,25.0,31.10,NNW,338,0.0,0.0,82,0.00,,,0.00,0.00,VWS V14.00,2013-10-16 13:08:00,
2013-10-16 07:09:00,29.8,25.0,31.10,NNW,338,0.0,0.0,82,0.00,,,0.00,0.00,VWS V14.00,2013-10-16 13:09:00,
2013-10-16 07:10:00,29.8,25.0,31.11,NNW,338,0.0,0.0,82,0.00,,,0.00,0.00,VWS V14.00,2013-10-16 13:10:00,
2013-10-16 07:11:00,29.8,25.0,31.11,NNW,338,0.0,0.0,82,0.00,,,0.00,0.00,VWS V14.00,2013-10-16 13:11:00,
2013-10-16 07:12:00,29.8,25.0,31.11,NNW,338,0.0,0.0,82,0.00,,,0.00,0.00,VWS V14.00,2013-10-16 13:12:00,
2013-10-16 07:13:00,29.8,25.0,31.11,NNW,338,0.0,0.0,82,0.00,,,0.00,0.00,VWS V14.00,2013-10-16 13:13:00,
2013-10-16 07:14:00,29.8,25.0,31.11,NNW,338,0.0,0.0,82,0.00,,,0.00,0.00,VWS V14.00,2013-10-16 13:14:00,
2013-10-16 07:15:00,29.9,25.1,31.11,NNW,338,0.0,0.0,82,0.00,,,0.00,0.00,VWS V14.00,2013-10-16 13:15:00,
2013-10-16 07:16:00,29.9,25.1,31.11,NNW,338,0.0,0.0,82,0.00,,,0.00,0.00,VWS V14.00,2013-10-16 13:16:00,
2013-10-16 07:17:00,29.9,25.1,31.11,NNW,338,0.0,0.0,82,0.00,,,0.00,0.00,VWS V14.00,2013-10-16 13:17:00,
2013-10-16 07:18:00,30.0,25.2,31.11,NNW,338,0.0,0.0,82,0.00,,,0.00,0.00,VWS V14.00,2013-10-16 13:18:00,
2013-10-16 07:19:00,30.0,25.2,31.11,NNW,338,0.0,0.0,82,0.00,,,0.00,0.00,VWS V14.00,2013-10-16 13:19:00,
2013-10-16 07:20:00,30.1,25.3,31.11,NNW,338,0.0,0.0,82,0.00,,,0.00,0.00,VWS V14.00,2013-10-16 13:20:00,
2013-10-16 07:21:00,30.1,25.3,31.11,NNW,338,0.0,0.0,82,0.00,,,0.00,0.00,VWS V14.00,2013-10-16 13:21:00,
2013-10-16 07:22:00,30.1,25.3,31.11,NNW,338,0.0,0.0,82,0.00,,,0.00,0.00,VWS V14.00,2013-10-16 13:22:00,
2013-10-16 07:23:00,30.2,25.4,31.11,NNW,338,0.0,0.0,82,0.00,,,0.00,0.00,VWS V14.00,2013-10-16 13:23:00,
2013-10-16 07:24:00,30.3,25.5,31.11,NNW,338,0.0,0.0,82,0.00,,,0.00,0.00,VWS V14.00,2013-10-16 13:24:00,
2013-10-16 07:25:00,30.3,25.5,31.10,NNW,338,0.0,0.0,82,0.00,,,0.00,0.00,VWS V14.00,2013-10-16 13:25:00,
2013-10-16 07:26:00,30.4,25.6,31.10,NNW,338,0.0,0.0,82,0.00,,,0.00,0.00,VWS V14.00,2013-10-16 13:26:00,
2013-10-16 07:27:00,30.4,25.6,31.10,NNW,338,0.0,0.0,82,0.00,,,0.00,0.00,VWS V14.00,2013-10-16 13:27:00,
2013-10-16 07:28:00,30.5,25.7,31.10,NNW,338,1.0,3.0,82,0.00,,,0.00,0.00,VWS V14.00,2013-10-16 13:28:00,
2013-10-16 07:29:00,30.5,25.7,31.10,NNW,338,0.0,3.0,82,0.00,,,0.00,0.00,VWS V14.00,2013-10-16 13:29:00,
2013-10-16 07:30:00,30.5,25.7,31.10,NNW,338,0.0,3.0,82,0.00,,,0.00,0.00,VWS V14.00,2013-10-16 13:30:00,
2013-10-16 07:31:00,30.6,25.8,31.10,NNW,338,0.0,0.0,82,0.00,,,0.00,0.00,VWS V14.00,2013-10-16 13:31:00,
2013-10-16 07:32:00,30.6,25.8,31.10,NNW,338,0.0,0.0,82,0.00,,,0.00,0.00,VWS V14.00,2013-10-16 13:32:00,
2013-10-16 07:33:00,30.6,25.8,31.10,NNW,338,0.0,0.0,82,0.00,,,0.00,0.00,VWS V14.00,2013-10-16 13:33:00,
2013-10-16 07:34:00,30.6,25.8,31.09,NNW,338,0.0,0.0,82,0.00,,,0.00,0.00,VWS V14.00,2013-10-16 13:34:00,
2013-10-16 07:35:00,30.7,25.9,31.09,NNW,338,0.0,0.0,82,0.00,,,0.00,0.00,VWS V14.00,2013-10-16 13:35:00,
2013-10-16 07:36:00,30.7,25.9,31.09,NNW,338,0.0,0.0,82,0.00,,,0.00,0.00,VWS V14.00,2013-10-16 13:36:00,
2013-10-16 07:37:00,30.7,25.9,31.09,NNW,338,0.0,0.0,82,0.00,,,0.00,0.00,VWS V14.00,2013-10-16 13:37:00,
2013-10-16 07:38:00,30.7,25.9,31.09,NNW,338,0.0,0.0,82,0.00,,,0.00,0.00,VWS V14.00,2013-10-16 13:38:00,
2013-10-16 07:39:00,30.7,25.9,31.09,NNW,338,0.0,0.0,82,0.00,,,0.00,0.00,VWS V14.00,2013-10-16 13:39:00,
2013-10-16 07:40:00,30.8,26.0,31.09,NNW,338,0.0,0.0,82,0.00,,,0.00,0.00,VWS V14.00,2013-10-16 13:40:00,
2013-10-16 07:41:00,30.8,26.0,31.09,NNW,338,0.0,0.0,82,0.00,,,0.00,0.00,VWS V14.00,2013-10-16 13:41:00,
2013-10-16 07:42:00,30.8,26.0,31.10,NNW,338,0.0,0.0,82,0.00,,,0.00,0.00,VWS V14.00,2013-10-16 13:42:00,
2013-10-16 07:43:00,30.8,26.0,31.10,NNW,338,0.0,0.0,82,0.00,,,0.00,0.00,VWS V14.00,2013-10-16 13:43:00,
2013-10-16 07:44:00,30.8,26.0,31.09,NNW,338,0.0,0.0,82,0.00,,,0.00,0.00,VWS V14.00,2013-10-16 13:44:00,
2013-10-16 07:45:00,30.7,25.9,31.09,NNW,338,0.0,0.0,82,0.00,,,0.00,0.00,VWS V14.00,2013-10-16 13:45:00,
2013-10-16 07:46:00,30.8,26.0,31.10,NNW,338,0.0,0.0,82,0.00,,,0.00,0.00,VWS V14.00,2013-10-16 13:46:00,
2013-10-16 07:47:00,30.8,26.0,31.10,NNW,338,0.0,0.0,82,0.00,,,0.00,0.00,VWS V14.00,2013-10-16 13:47:00,
2013-10-16 07:48:00,30.7,25.9,31.10,NNW,338,0.0,0.0,82,0.00,,,0.00,0.00,VWS V14.00,2013-10-16 13:48:00,
2013-10-16 07:49:00,30.7,25.9,31.09,NNW,338,0.0,0.0,82,0.00,,,0.00,5.00,VWS V14.00,2013-10-16 13:49:00,
2013-10-16 07:50:00,30.7,25.9,31.10,NNW,338,0.0,0.0,82,0.00,,,0.00,5.00,VWS V14.00,2013-10-16 13:50:00,
2013-10-16 07:51:00,30.7,25.9,31.09,NNW,338,0.0,0.0,82,0.00,,,0.00,5.00,VWS V14.00,2013-10-16 13:51:00,
2013-10-16 07:52:00,30.7,25.9,31.09,NNW,338,0.0,0.0,82,0.00,,,0.00,5.00,VWS V14.00,2013-10-16 13:52:00,
2013-10-16 07:53:00,30.6,25.8,31.10,NNW,338,0.0,0.0,82,0.00,,,0.00,7.00,VWS V14.00,2013-10-16 13:53:00,
2013-10-16 07:54:00,30.6,25.8,31.10,NNW,338,0.0,0.0,82,0.00,,,0.00,7.00,VWS V14.00,2013-10-16 13:54:00,
2013-10-16 07:55:00,30.5,25.7,31.10,NNW,338,0.0,0.0,82,0.00,,,0.00,9.00,VWS V14.00,2013-10-16 13:55:00,
2013-10-16 07:56:00,30.5,25.7,31.10,NNW,338,0.0,0.0,82,0.00,,,0.00,11.00,VWS V14.00,2013-10-16 13:56:00,
2013-10-16 07:57:00,30.5,25.7,31.10,NNW,338,0.0,0.0,82,0.00,,,0.00,11.00,VWS V14.00,2013-10-16 13:57:00,
2013-10-16 07:58:00,30.5,25.7,31.10,NNW,338,0.0,0.0,82,0.00,,,0.00,12.00,VWS V14.00,2013-10-16 13:58:00,
2013-10-16 07:59:00,30.4,25.6,31.10,NNW,338,0.0,0.0,82,0.00,,,0.00,12.00,VWS V14.00,2013-10-16 13:59:00,
2013-10-16 08:00:00,30.4,25.6,31.11,NNW,338,0.0,0.0,82,0.00,,,0.00,12.00,VWS V14.00,2013-10-16 14:00:00,
2013-10-16 08:01:00,30.4,25.6,31.11,NNW,338,0.0,0.0,82,0.00,,,0.00,14.00,VWS V14.00,2013-10-16 14:01:00,
2013-10-16 08:02:00,30.3,25.5,31.14,NNW,338,0.0,0.0,82,0.00,,,0.00,14.00,VWS V14.00,2013-10-16 14:02:00,
2013-10-16 08:03:00,30.3,25.5,31.13,NNW,338,0.0,0.0,82,0.00,,,0.00,14.00,VWS V14.00,2013-10-16 14:03:00,
2013-10-16 08:04:00,30.2,25.4,31.13,NNW,338,0.0,0.0,82,0.00,,,0.00,14.00,VWS V14.00,2013-10-16 14:04:00,
2013-10-16 08:05:00,30.2,25.4,31.13,NNW,338,0.0,0.0,82,0.00,,,0.00,14.00,VWS V14.00,2013-10-16 14:05:00,
2013-10-16 08:06:00,30.1,25.3,31.13,NNW,338,0.0,3.0,82,0.00,,,0.00,14.00,VWS V14.00,2013-10-16 14:06:00,
2013-10-16 08:07:00,30.1,25.3,31.14,NNW,338,0.0,3.0,82,0.00,,,0.00,14.00,VWS V14.00,2013-10-16 14:07:00,
2013-10-16 08:08:00,30.1,25.3,31.14,NNW,338,0.0,3.0,82,0.00,,,0.00,14.00,VWS V14.00,2013-10-16 14:08:00,
2013-10-16 08:09:00,30.0,25.2,31.14,NNW,338,0.0,3.0,82,0.00,,,0.00,16.00,VWS V14.00,2013-10-16 14:09:00,
2013-10-16 08:10:00,29.9,25.1,31.13,NNW,338,0.0,3.0,82,0.00,,,0.00,16.00,VWS V14.00,2013-10-16 14:10:00,
2013-10-16 08:11:00,29.9,25.4,31.13,NNW,338,0.0,3.0,83,0.00,,,0.00,16.00,VWS V14.00,2013-10-16 14:11:00,
2013-10-16 08:12:00,29.9,25.4,31.13,NNW,338,0.0,3.0,83,0.00,,,0.00,18.00,VWS V14.00,2013-10-16 14:12:00,
2013-10-16 08:13:00,29.9,25.4,31.13,NNW,338,0.0,3.0,83,0.00,,,0.00,19.00,VWS V14.00,2013-10-16 14:13:00,
2013-10-16 08:14:00,29.9,25.4,31.13,NNW,338,0.0,3.0,83,0.00,,,0.00,19.00,VWS V14.00,2013-10-16 14:14:00,
2013-10-16 08:15:00,29.8,25.3,31.14,NNW,338,0.0,3.0,83,0.00,,,0.00,21.00,VWS V14.00,2013-10-16 14:15:00,
2013-10-16 08:16:00,29.8,25.3,31.14,NNW,338,0.0,0.0,83,0.00,,,0.00,21.00,VWS V14.00,2013-10-16 14:16:00,
2013-10-16 08:17:00,29.8,25.3,31.14,NNW,338,0.0,0.0,83,0.00,,,0.00,21.00,VWS V14.00,2013-10-16 14:17:00,
2013-10-16 08:18:00,29.8,25.3,31.14,NNW,338,0.0,0.0,83,0.00,,,0.00,21.00,VWS V14.00,2013-10-16 14:18:00,
2013-10-16 08:19:00,29.8,25.3,31.14,NNW,338,0.0,0.0,83,0.00,,,0.00,23.00,VWS V14.00,2013-10-16 14:19:00,
2013-10-16 08:20:00,29.8,25.3,31.14,NNW,338,0.0,0.0,83,0.00,,,0.00,23.00,VWS V14.00,2013-10-16 14:20:00,
2013-10-16 08:21:00,29.8,25.3,31.14,NNW,338,0.0,0.0,83,0.00,,,0.00,23.00,VWS V14.00,2013-10-16 14:21:00,
2013-10-16 08:22:00,29.8,25.3,31.14,NNW,338,0.0,0.0,83,0.00,,,0.00,25.00,VWS V14.00,2013-10-16 14:22:00,
2013-10-16 08:23:00,29.8,25.3,31.14,NNW,338,0.0,0.0,83,0.00,,,0.00,25.00,VWS V14.00,2013-10-16 14:23:00,
2013-10-16 08:24:00,29.8,25.3,31.14,NNW,338,0.0,0.0,83,0.00,,,0.00,25.00,VWS V14.00,2013-10-16 14:24:00,
2013-10-16 08:25:00,29.8,25.3,31.14,NNW,338,0.0,0.0,83,0.00,,,0.00,26.00,VWS V14.00,2013-10-16 14:25:00,
2013-10-16 08:26:00,29.8,25.3,31.14,NNW,338,0.0,0.0,83,0.00,,,0.00,26.00,VWS V14.00,2013-10-16 14:26:00,
2013-10-16 08:27:00,29.8,25.3,31.14,NNW,338,0.0,0.0,83,0.00,,,0.00,26.00,VWS V14.00,2013-10-16 14:27:00,
2013-10-16 08:28:00,29.8,25.3,31.14,NNW,338,0.0,0.0,83,0.00,,,0.00,28.00,VWS V14.00,2013-10-16 14:28:00,
2013-10-16 08:29:00,29.8,25.6,31.14,NNW,338,0.0,0.0,84,0.00,,,0.00,28.00,VWS V14.00,2013-10-16 14:29:00,
2013-10-16 08:30:00,29.8,25.6,31.14,NNW,338,0.0,0.0,84,0.00,,,0.00,28.00,VWS V14.00,2013-10-16 14:30:00,
2013-10-16 08:31:00,29.8,25.6,31.14,NNW,338,0.0,0.0,84,0.00,,,0.00,32.00,VWS V14.00,2013-10-16 14:31:00,
2013-10-16 08:32:00,29.8,25.6,31.14,NNW,338,0.0,0.0,84,0.00,,,0.00,32.00,VWS V14.00,2013-10-16 14:32:00,
2013-10-16 08:33:00,29.8,25.6,31.14,NNW,338,0.0,0.0,84,0.00,,,0.00,33.00,VWS V14.00,2013-10-16 14:33:00,
2013-10-16 08:34:00,29.8,25.6,31.14,NNW,338,0.0,0.0,84,0.00,,,0.00,35.00,VWS V14.00,2013-10-16 14:34:00,
2013-10-16 08:35:00,29.8,25.6,31.14,NNW,338,0.0,0.0,84,0.00,,,0.00,37.00,VWS V14.00,2013-10-16 14:35:00,
2013-10-16 08:36:00,29.9,25.7,31.14,NNW,338,0.0,0.0,84,0.00,,,0.00,39.00,VWS V14.00,2013-10-16 14:36:00,
2013-10-16 08:37:00,29.9,25.7,31.14,NNW,338,0.0,0.0,84,0.00,,,0.00,44.00,VWS V14.00,2013-10-16 14:37:00,
2013-10-16 08:38:00,29.9,25.7,31.14,NNW,338,0.0,0.0,84,0.00,,,0.00,46.00,VWS V14.00,2013-10-16 14:38:00,
2013-10-16 08:39:00,29.9,25.7,31.14,NNW,338,0.0,0.0,84,0.00,,,0.00,47.00,VWS V14.00,2013-10-16 14:39:00,
2013-10-16 08:40:00,30.0,26.0,31.14,NNW,338,0.0,0.0,85,0.00,,,0.00,49.00,VWS V14.00,2013-10-16 14:40:00,
2013-10-16 08:41:00,30.0,26.0,31.14,NNW,338,0.0,0.0,85,0.00,,,0.00,51.00,VWS V14.00,2013-10-16 14:41:00,
2013-10-16 08:42:00,30.0,26.0,31.14,NNW,338,0.0,0.0,85,0.00,,,0.00,53.00,VWS V14.00,2013-10-16 14:42:00,
2013-10-16 08:43:00,30.1,26.1,31.14,NNW,338,0.0,0.0,85,0.00,,,0.00,54.00,VWS V14.00,2013-10-16 14:43:00,
2013-10-16 08:44:00,30.1,26.1,31.13,NNW,338,0.0,0.0,85,0.00,,,0.00,56.00,VWS V14.00,2013-10-16 14:44:00,
2013-10-16 08:45:00,30.1,26.1,31.13,NNW,338,0.0,0.0,85,0.00,,,0.00,56.00,VWS V14.00,2013-10-16 14:45:00,
2013-10-16 08:46:00,30.1,26.1,31.13,NNW,338,0.0,0.0,85,0.00,,,0.00,58.00,VWS V14.00,2013-10-16 14:46:00,
2013-10-16 08:47:00,30.1,25.9,31.13,NNW,338,0.0,0.0,84,0.00,,,0.00,60.00,VWS V14.00,2013-10-16 14:47:00,
2013-10-16 08:48:00,30.1,25.9,31.13,NNW,338,0.0,0.0,84,0.00,,,0.00,62.00,VWS V14.00,2013-10-16 14:48:00,
2013-10-16 08:49:00,30.2,26.0,31.13,NNW,338,1.0,1.0,84,0.00,,,0.00,65.00,VWS V14.00,2013-10-16 14:49:00,
2013-10-16 08:50:00,30.2,26.0,31.13,NNW,338,0.0,1.0,84,0.00,,,0.00,67.00,VWS V14.00,2013-10-16 14:50:00,
2013-10-16 08:51:00,30.3,26.1,31.13,NNW,338,0.0,1.0,84,0.00,,,0.00,69.00,VWS V14.00,2013-10-16 14:51:00,
2013-10-16 08:52:00,30.3,26.3,31.13,NNW,338,0.0,1.0,85,0.00,,,0.00,70.00,VWS V14.00,2013-10-16 14:52:00,
2013-10-16 08:53:00,30.4,26.4,31.13,NNW,338,0.0,1.0,85,0.00,,,0.00,72.00,VWS V14.00,2013-10-16 14:53:00,
2013-10-16 08:54:00,30.4,26.4,31.13,NNW,338,0.0,1.0,85,0.00,,,0.00,74.00,VWS V14.00,2013-10-16 14:54:00,
2013-10-16 08:55:00,30.5,26.5,31.13,NNW,338,0.0,1.0,85,0.00,,,0.00,76.00,VWS V14.00,2013-10-16 14:55:00,
2013-10-16 08:56:00,30.5,26.5,31.12,NNW,338,0.0,1.0,85,0.00,,,0.00,76.00,VWS V14.00,2013-10-16 14:56:00,
2013-10-16 08:57:00,30.5,26.5,31.13,NNW,338,0.0,1.0,85,0.00,,,0.00,76.00,VWS V14.00,2013-10-16 14:57:00,
2013-10-16 08:58:00,30.6,26.6,31.12,NNW,338,0.0,1.0,85,0.00,,,0.00,74.00,VWS V14.00,2013-10-16 14:58:00,
2013-10-16 08:59:00,30.6,26.6,31.13,NNW,338,0.0,1.0,85,0.00,,,0.00,70.00,VWS V14.00,2013-10-16 14:59:00,
2013-10-16 09:00:00,30.7,26.7,31.12,NNW,338,0.0,1.0,85,0.00,,,0.00,67.00,VWS V14.00,2013-10-16 15:00:00,
2013-10-16 09:01:00,30.7,26.7,31.14,NNW,338,0.0,0.0,85,0.00,,,0.00,65.00,VWS V14.00,2013-10-16 15:01:00,
2013-10-16 09:02:00,30.7,26.7,31.14,NNW,338,0.0,0.0,85,0.00,,,0.00,63.00,VWS V14.00,2013-10-16 15:02:00,
2013-10-16 09:03:00,30.7,26.7,31.14,NNW,338,0.0,0.0,85,0.00,,,0.00,63.00,VWS V14.00,2013-10-16 15:03:00,
2013-10-16 09:04:00,30.8,26.8,31.14,NNW,338,0.0,0.0,85,0.00,,,0.00,62.00,VWS V14.00,2013-10-16 15:04:00,
2013-10-16 09:05:00,30.8,26.8,31.14,NNW,338,0.0,0.0,85,0.00,,,0.00,62.00,VWS V14.00,2013-10-16 15:05:00,
2013-10-16 09:06:00,30.9,26.9,31.14,NNW,338,0.0,0.0,85,0.00,,,0.00,58.00,VWS V14.00,2013-10-16 15:06:00,
2013-10-16 09:07:00,30.9,26.6,31.14,NNW,338,0.0,0.0,84,0.00,,,0.00,56.00,VWS V14.00,2013-10-16 15:07:00,
2013-10-16 09:08:00,30.9,26.6,31.14,NNW,338,0.0,0.0,84,0.00,,,0.00,54.00,VWS V14.00,2013-10-16 15:08:00,
2013-10-16 09:09:00,31.0,26.7,31.14,NNW,338,0.0,0.0,84,0.00,,,0.00,53.00,VWS V14.00,2013-10-16 15:09:00,
2013-10-16 09:10:00,31.0,26.7,31.13,NNW,338,0.0,0.0,84,0.00,,,0.00,51.00,VWS V14.00,2013-10-16 15:10:00,
2013-10-16 09:11:00,31.1,26.8,31.13,NNW,338,0.0,0.0,84,0.00,,,0.00,49.00,VWS V14.00,2013-10-16 15:11:00,
2013-10-16 09:12:00,31.1,26.5,31.13,NNW,338,0.0,0.0,83,0.00,,,0.00,46.00,VWS V14.00,2013-10-16 15:12:00,
2013-10-16 09:13:00,31.2,26.6,31.13,NNW,338,0.0,0.0,83,0.00,,,0.00,46.00,VWS V14.00,2013-10-16 15:13:00,
2013-10-16 09:14:00,31.2,26.6,31.13,NNW,338,0.0,0.0,83,0.00,,,0.00,44.00,VWS V14.00,2013-10-16 15:14:00,
2013-10-16 09:15:00,31.3,26.8,31.13,NNW,338,0.0,0.0,83,0.00,,,0.00,42.00,VWS V14.00,2013-10-16 15:15:00,
2013-10-16 09:16:00,31.3,26.8,31.13,NNW,338,0.0,0.0,83,0.00,,,0.00,42.00,VWS V14.00,2013-10-16 15:16:00,
2013-10-16 09:17:00,31.4,26.8,31.13,NNW,338,0.0,0.0,83,0.00,,,0.00,40.00,VWS V14.00,2013-10-16 15:17:00,
2013-10-16 09:18:00,31.4,26.8,31.13,NNW,338,0.0,0.0,83,0.00,,,0.00,40.00,VWS V14.00,2013-10-16 15:18:00,
2013-10-16 09:19:00,31.5,26.9,31.13,NNW,338,0.0,0.0,83,0.00,,,0.00,40.00,VWS V14.00,2013-10-16 15:19:00,
2013-10-16 09:20:00,31.5,26.9,31.13,NNW,338,0.0,0.0,83,0.00,,,0.00,42.00,VWS V14.00,2013-10-16 15:20:00,
2013-10-16 09:21:00,31.5,26.9,31.13,NNW,338,0.0,0.0,83,0.00,,,0.00,44.00,VWS V14.00,2013-10-16 15:21:00,
2013-10-16 09:22:00,31.6,27.0,31.13,NNW,338,0.0,0.0,83,0.00,,,0.00,46.00,VWS V14.00,2013-10-16 15:22:00,
2013-10-16 09:23:00,31.7,27.1,31.13,NNW,338,0.0,0.0,83,0.00,,,0.00,53.00,VWS V14.00,2013-10-16 15:23:00,
2013-10-16 09:24:00,31.7,27.4,31.13,NNW,338,0.0,0.0,84,0.00,,,0.00,54.00,VWS V14.00,2013-10-16 15:24:00,
2013-10-16 09:25:00,31.8,27.2,31.13,NNW,338,0.0,0.0,83,0.00,,,0.00,58.00,VWS V14.00,2013-10-16 15:25:00,
2013-10-16 09:26:00,31.9,27.6,31.13,NNW,338,0.0,0.0,84,0.00,,,0.00,60.00,VWS V14.00,2013-10-16 15:26:00,
2013-10-16 09:27:00,31.9,27.6,31.13,NNW,338,0.0,0.0,84,0.00,,,0.00,60.00,VWS V14.00,2013-10-16 15:27:00,
2013-10-16 09:28:00,32.0,27.7,31.13,NNW,338,0.0,0.0,84,0.00,,,0.00,60.00,VWS V14.00,2013-10-16 15:28:00,
2013-10-16 09:29:00,32.0,27.7,31.13,NNW,338,0.0,0.0,84,0.00,,,0.00,54.00,VWS V14.00,2013-10-16 15:29:00,
2013-10-16 09:30:00,32.1,28.1,31.13,NNW,338,0.0,0.0,85,0.00,,,0.00,51.00,VWS V14.00,2013-10-16 15:30:00,
2013-10-16 09:31:00,32.2,28.2,31.12,NNW,338,0.0,0.0,85,0.00,,,0.00,46.00,VWS V14.00,2013-10-16 15:31:00,
2013-10-16 09:32:00,32.3,28.3,31.13,NNW,338,0.0,1.0,85,0.00,,,0.00,44.00,VWS V14.00,2013-10-16 15:32:00,
2013-10-16 09:33:00,32.4,28.1,31.12,NNW,338,0.0,1.0,84,0.00,,,0.00,42.00,VWS V14.00,2013-10-16 15:33:00,
2013-10-16 09:34:00,32.4,28.1,31.13,NNW,338,0.0,1.0,84,0.00,,,0.00,40.00,VWS V14.00,2013-10-16 15:34:00,
2013-10-16 09:35:00,32.5,28.2,31.13,NNW,338,0.0,1.0,84,0.00,,,0.00,39.00,VWS V14.00,2013-10-16 15:35:00,
2013-10-16 09:36:00,32.6,28.0,31.12,NNW,338,0.0,1.0,83,0.00,,,0.00,39.00,VWS V14.00,2013-10-16 15:36:00,
2013-10-16 09:37:00,32.6,28.0,31.12,NNW,338,0.0,1.0,83,0.00,,,0.00,40.00,VWS V14.00,2013-10-16 15:37:00,
2013-10-16 09:38:00,32.6,28.0,31.11,NNW,338,0.0,1.0,83,0.00,,,0.00,40.00,VWS V14.00,2013-10-16 15:38:00,
2013-10-16 09:39:00,32.7,28.1,31.12,NNW,338,0.0,1.0,83,0.00,,,0.00,44.00,VWS V14.00,2013-10-16 15:39:00,
2013-10-16 09:40:00,32.7,28.1,31.12,NNW,338,0.0,1.0,83,0.00,,,0.00,47.00,VWS V14.00,2013-10-16 15:40:00,
2013-10-16 09:41:00,32.7,28.1,31.12,NNW,338,0.0,1.0,83,0.00,,,0.00,54.00,VWS V14.00,2013-10-16 15:41:00,
2013-10-16 09:42:00,32.8,28.2,31.12,NNW,338,0.0,1.0,83,0.00,,,0.00,56.00,VWS V14.00,2013-10-16 15:42:00,
2013-10-16 09:43:00,32.8,27.9,31.12,NNW,338,0.0,1.0,82,0.00,,,0.00,56.00,VWS V14.00,2013-10-16 15:43:00,
2013-10-16 09:44:00,32.9,28.3,31.12,NNW,338,0.0,1.0,83,0.00,,,0.00,58.00,VWS V14.00,2013-10-16 15:44:00,
2013-10-16 09:45:00,33.0,28.4,31.12,NNW,338,0.0,1.0,83,0.00,,,0.00,62.00,VWS V14.00,2013-10-16 15:45:00,
2013-10-16 09:46:00,33.0,28.4,31.12,NNW,338,0.0,0.0,83,0.00,,,0.00,67.00,VWS V14.00,2013-10-16 15:46:00,
2013-10-16 09:47:00,33.1,28.8,31.12,NNW,338,0.0,0.0,84,0.00,,,0.00,77.00,VWS V14.00,2013-10-16 15:47:00,
2013-10-16 09:48:00,33.2,28.9,31.12,NNW,338,0.0,0.0,84,0.00,,,0.00,83.00,VWS V14.00,2013-10-16 15:48:00,
2013-10-16 09:49:00,33.2,28.9,31.12,NNW,338,0.0,0.0,84,0.00,,,0.00,88.00,VWS V14.00,2013-10-16 15:49:00,
2013-10-16 09:50:00,33.3,29.0,31.12,NNW,338,0.0,0.0,84,0.00,,,0.00,90.00,VWS V14.00,2013-10-16 15:50:00,
2013-10-16 09:51:00,33.4,29.1,31.12,NNW,338,0.0,0.0,84,0.00,,,0.00,91.00,VWS V14.00,2013-10-16 15:51:00,
2013-10-16 09:52:00,33.4,29.1,31.12,NNW,338,0.0,0.0,84,0.00,,,0.00,95.00,VWS V14.00,2013-10-16 15:52:00,
2013-10-16 09:53:00,33.5,29.2,31.12,NNW,338,0.0,0.0,84,0.00,,,0.00,98.00,VWS V14.00,2013-10-16 15:53:00,
2013-10-16 09:54:00,33.5,29.2,31.12,NNW,338,0.0,0.0,84,0.00,,,0.00,102.00,VWS V14.00,2013-10-16 15:54:00,
2013-10-16 09:55:00,33.5,29.2,31.12,NNW,338,0.0,0.0,84,0.00,,,0.00,105.00,VWS V14.00,2013-10-16 15:55:00,
2013-10-16 09:56:00,33.6,29.3,31.12,NNW,338,0.0,0.0,84,0.00,,,0.00,111.00,VWS V14.00,2013-10-16 15:56:00,
2013-10-16 09:57:00,33.6,29.3,31.12,NNW,338,3.0,3.0,84,0.00,,,0.00,116.00,VWS V14.00,2013-10-16 15:57:00,
2013-10-16 09:58:00,33.6,29.3,31.12,NNW,338,2.0,3.0,84,0.00,,,0.00,127.00,VWS V14.00,2013-10-16 15:58:00,
2013-10-16 09:59:00,33.7,29.4,31.12,NNW,338,2.0,3.0,84,0.00,,,0.00,132.00,VWS V14.00,2013-10-16 15:59:00,
2013-10-16 10:00:00,33.7,29.4,31.12,NNW,338,1.0,3.0,84,0.00,,,0.00,132.00,VWS V14.00,2013-10-16 16:00:00,
2013-10-16 10:01:00,33.7,29.4,31.12,NNW,338,2.0,3.0,84,0.00,,,0.00,135.00,VWS V14.00,2013-10-16 16:01:00,
2013-10-16 10:02:00,33.7,29.4,31.12,NNW,338,1.0,3.0,84,0.00,,,0.00,135.00,VWS V14.00,2013-10-16 16:02:00,
2013-10-16 10:03:00,33.8,29.5,31.12,NNW,338,2.0,3.0,84,0.00,,,0.00,134.00,VWS V14.00,2013-10-16 16:03:00,
2013-10-16 10:04:00,33.8,29.5,31.12,NNW,338,0.0,3.0,84,0.00,,,0.00,132.00,VWS V14.00,2013-10-16 16:04:00,
2013-10-16 10:05:00,33.8,29.5,31.12,NNW,338,3.0,3.0,84,0.00,,,0.00,130.00,VWS V14.00,2013-10-16 16:05:00,
2013-10-16 10:06:00,33.9,29.6,31.13,NNW,338,3.0,4.0,84,0.00,,,0.00,128.00,VWS V14.00,2013-10-16 16:06:00,
2013-10-16 10:07:00,33.9,29.6,31.12,NNW,338,1.0,4.0,84,0.00,,,0.00,125.00,VWS V14.00,2013-10-16 16:07:00,
2013-10-16 10:08:00,34.0,30.0,31.12,NNW,338,0.0,4.0,85,0.00,,,0.00,120.00,VWS V14.00,2013-10-16 16:08:00,
2013-10-16 10:09:00,34.0,30.0,31.12,NNW,338,0.0,4.0,85,0.00,,,0.00,114.00,VWS V14.00,2013-10-16 16:09:00,
2013-10-16 10:10:00,34.0,30.0,31.12,NNW,338,0.0,4.0,85,0.00,,,0.00,102.00,VWS V14.00,2013-10-16 16:10:00,
2013-10-16 10:11:00,34.1,29.8,31.12,NNW,338,0.0,4.0,84,0.00,,,0.00,97.00,VWS V14.00,2013-10-16 16:11:00,
2013-10-16 10:12:00,34.1,29.8,31.12,NNW,338,0.0,4.0,84,0.00,,,0.00,93.00,VWS V14.00,2013-10-16 16:12:00,
2013-10-16 10:13:00,34.2,29.9,31.12,NNW,338,0.0,4.0,84,0.00,,,0.00,88.00,VWS V14.00,2013-10-16 16:13:00,
2013-10-16 10:14:00,34.2,29.9,31.12,NNW,338,0.0,4.0,84,0.00,,,0.00,90.00,VWS V14.00,2013-10-16 16:14:00,
2013-10-16 10:15:00,34.3,30.0,31.12,NNW,338,0.0,4.0,84,0.00,,,0.00,93.00,VWS V14.00,2013-10-16 16:15:00,
2013-10-16 10:16:00,34.3,29.7,31.12,NNW,338,0.0,0.0,83,0.00,,,0.00,98.00,VWS V14.00,2013-10-16 16:16:00,
2013-10-16 10:17:00,34.4,29.8,31.12,NNW,338,0.0,0.0,83,0.00,,,0.00,102.00,VWS V14.00,2013-10-16 16:17:00,
2013-10-16 10:18:00,34.4,29.8,31.12,NNW,338,0.0,0.0,83,0.00,,,0.00,104.00,VWS V14.00,2013-10-16 16:18:00,
2013-10-16 10:19:00,34.4,29.8,31.12,NNW,338,0.0,0.0,83,0.00,,,0.00,109.00,VWS V14.00,2013-10-16 16:19:00,
2013-10-16 10:20:00,34.4,29.5,31.12,NNW,338,0.0,0.0,82,0.00,,,0.00,111.00,VWS V14.00,2013-10-16 16:20:00,
2013-10-16 10:21:00,34.4,29.5,31.12,NNW,338,0.0,0.0,82,0.00,,,0.00,114.00,VWS V14.00,2013-10-16 16:21:00,
2013-10-16 10:22:00,34.4,29.5,31.12,NNW,338,0.0,0.0,82,0.00,,,0.00,114.00,VWS V14.00,2013-10-16 16:22:00,
2013-10-16 10:23:00,34.4,29.5,31.12,NNW,338,0.0,0.0,82,0.00,,,0.00,111.00,VWS V14.00,2013-10-16 16:23:00,
2013-10-16 10:24:00,34.4,29.5,31.12,NNW,338,0.0,0.0,82,0.00,,,0.00,107.00,VWS V14.00,2013-10-16 16:24:00,
2013-10-16 10:25:00,34.6,29.7,31.12,NNW,338,0.0,0.0,82,0.00,,,0.00,105.00,VWS V14.00,2013-10-16 16:25:00,
2013-10-16 10:26:00,34.6,29.7,31.12,NNW,338,0.0,0.0,82,0.00,,,0.00,113.00,VWS V14.00,2013-10-16 16:26:00,
2013-10-16 10:27:00,34.7,29.8,31.12,NNW,338,0.0,0.0,82,0.00,,,0.00,111.00,VWS V14.00,2013-10-16 16:27:00,
2013-10-16 10:28:00,34.8,29.9,31.12,NNW,338,0.0,0.0,82,0.00,,,0.00,123.00,VWS V14.00,2013-10-16 16:28:00,
2013-10-16 10:29:00,34.9,30.0,31.12,NNW,338,0.0,0.0,82,0.00,,,0.00,132.00,VWS V14.00,2013-10-16 16:29:00,
2013-10-16 10:30:00,34.9,29.7,31.12,NNW,338,0.0,0.0,81,0.00,,,0.00,139.00,VWS V14.00,2013-10-16 16:30:00,
2013-10-16 10:31:00,35.0,29.5,31.12,NNW,338,0.0,1.0,80,0.00,,,0.00,148.00,VWS V14.00,2013-10-16 16:31:00,
2013-10-16 10:32:00,35.1,29.6,31.12,NNW,338,0.0,1.0,80,0.00,,,0.00,158.00,VWS V14.00,2013-10-16 16:32:00,
2013-10-16 10:33:00,35.2,29.4,31.12,NNW,338,0.0,1.0,79,0.00,,,0.00,167.00,VWS V14.00,2013-10-16 16:33:00,
2013-10-16 10:34:00,35.3,29.5,31.12,NNW,338,0.0,1.0,79,0.00,,,0.00,178.00,VWS V14.00,2013-10-16 16:34:00,
2013-10-16 10:35:00,35.5,29.6,31.12,NNW,338,0.0,1.0,79,0.00,,,0.00,190.00,VWS V14.00,2013-10-16 16:35:00,
2013-10-16 10:36:00,35.6,29.7,31.11,NNW,338,0.0,1.0,79,0.00,,,0.00,186.00,VWS V14.00,2013-10-16 16:36:00,
2013-10-16 10:37:00,35.7,29.5,31.11,NNW,338,4.0,4.0,78,0.00,,,0.00,172.00,VWS V14.00,2013-10-16 16:37:00,
2013-10-16 10:38:00,35.9,29.7,31.11,NNW,338,3.0,5.0,78,0.00,,,0.00,171.00,VWS V14.00,2013-10-16 16:38:00,
2013-10-16 10:39:00,36.1,29.9,31.12,NNW,338,5.0,6.0,78,0.00,,,0.00,176.00,VWS V14.00,2013-10-16 16:39:00,
2013-10-16 10:40:00,36.2,29.7,31.12,NNW,338,2.0,6.0,77,0.00,,,0.00,241.00,VWS V14.00,2013-10-16 16:40:00,
2013-10-16 10:41:00,36.4,29.9,31.12,NNW,338,5.0,6.0,77,0.00,,,0.00,478.00,VWS V14.00,2013-10-16 16:41:00,
2013-10-16 10:42:00,36.5,30.6,31.12,NNW,338,3.0,6.0,79,0.00,,,0.00,478.00,VWS V14.00,2013-10-16 16:42:00,
2013-10-16 10:43:00,36.7,31.1,31.12,NNW,338,4.0,6.0,80,0.00,,,0.00,478.00,VWS V14.00,2013-10-16 16:43:00,
2013-10-16 10:44:00,36.8,31.2,31.12,NNW,338,4.0,6.0,80,0.00,,,0.00,97.00,VWS V14.00,2013-10-16 16:44:00,
2013-10-16 10:45:00,36.9,31.3,31.12,NNW,338,4.0,6.0,80,0.00,,,0.00,98.00,VWS V14.00,2013-10-16 16:45:00,
2013-10-16 10:46:00,37.0,31.4,31.12,NNW,338,3.0,5.0,80,0.00,,,0.00,104.00,VWS V14.00,2013-10-16 16:46:00,
2013-10-16 10:47:00,37.1,31.5,31.12,NNW,338,2.0,5.0,80,0.00,,,0.00,109.00,VWS V14.00,2013-10-16 16:47:00,
2013-10-16 10:48:00,37.1,31.5,31.12,NNW,338,3.0,5.0,80,0.00,,,0.00,114.00,VWS V14.00,2013-10-16 16:48:00,
2013-10-16 10:49:00,37.1,31.5,31.12,NNW,338,4.0,5.0,80,0.00,,,0.00,114.00,VWS V14.00,2013-10-16 16:49:00,
2013-10-16 10:50:00,37.2,31.6,31.12,NNW,338,3.0,5.0,80,0.00,,,0.00,113.00,VWS V14.00,2013-10-16 16:50:00,
2013-10-16 10:51:00,37.2,31.6,31.12,NNW,338,2.0,5.0,80,0.00,,,0.00,104.00,VWS V14.00,2013-10-16 16:51:00,
2013-10-16 10:52:00,37.2,31.6,31.12,NNW,338,0.0,5.0,80,0.00,,,0.00,104.00,VWS V14.00,2013-10-16 16:52:00,
2013-10-16 10:53:00,37.2,31.6,31.12,NNW,338,0.0,5.0,80,0.00,,,0.00,111.00,VWS V14.00,2013-10-16 16:53:00,
2013-10-16 10:54:00,37.2,31.6,31.12,NNW,338,0.0,5.0,80,0.00,,,0.00,123.00,VWS V14.00,2013-10-16 16:54:00,
2013-10-16 10:55:00,37.1,31.2,31.12,NNW,338,0.0,5.0,79,0.00,,,0.00,135.00,VWS V14.00,2013-10-16 16:55:00,
2013-10-16 10:56:00,37.1,31.5,31.12,NNW,338,3.0,5.0,80,0.00,,,0.00,151.00,VWS V14.00,2013-10-16 16:56:00,
2013-10-16 10:57:00,37.1,31.2,31.12,NNW,338,0.0,5.0,79,0.00,,,0.00,183.00,VWS V14.00,2013-10-16 16:57:00,
2013-10-16 10:58:00,37.1,31.2,31.12,NNW,338,0.0,5.0,79,0.00,,,0.00,195.00,VWS V14.00,2013-10-16 16:58:00,
2013-10-16 10:59:00,37.1,31.2,31.12,NNW,338,0.0,5.0,79,0.00,,,0.00,199.00,VWS V14.00,2013-10-16 16:59:00,
2013-10-16 11:00:00,37.1,31.2,31.12,NNW,338,0.0,5.0,79,0.00,,,0.00,193.00,VWS V14.00,2013-10-16 17:00:00,
2013-10-16 11:01:00,37.0,31.1,31.13,NNW,338,0.0,0.0,79,0.00,,,0.00,178.00,VWS V14.00,2013-10-16 17:01:00,
2013-10-16 11:02:00,37.0,31.1,31.13,NNW,338,0.0,1.0,79,0.00,,,0.00,144.00,VWS V14.00,2013-10-16 17:02:00,
2013-10-16 11:03:00,37.0,31.1,31.12,NNW,338,0.0,1.0,79,0.00,,,0.00,135.00,VWS V14.00,2013-10-16 17:03:00,
2013-10-16 11:04:00,37.1,31.2,31.13,NNW,338,0.0,1.0,79,0.00,,,0.00,139.00,VWS V14.00,2013-10-16 17:04:00,
2013-10-16 11:05:00,37.1,31.5,31.13,NNW,338,5.0,6.0,80,0.00,,,0.00,148.00,VWS V14.00,2013-10-16 17:05:00,
2013-10-16 11:06:00,37.1,31.5,31.13,NNW,338,5.0,6.0,80,0.00,,,0.00,158.00,VWS V14.00,2013-10-16 17:06:00,
2013-10-16 11:07:00,37.1,31.5,31.13,NNW,338,4.0,6.0,80,0.00,,,0.00,165.00,VWS V14.00,2013-10-16 17:07:00,
2013-10-16 11:08:00,37.1,31.5,31.13,NNW,338,5.0,6.0,80,0.00,,,0.00,176.00,VWS V14.00,2013-10-16 17:08:00,
2013-10-16 11:09:00,37.1,31.5,31.13,NNW,338,3.0,6.0,80,0.00,,,0.00,169.00,VWS V14.00,2013-10-16 17:09:00,
2013-10-16 11:10:00,37.1,31.5,31.13,NNW,338,2.0,6.0,80,0.00,,,0.00,162.00,VWS V14.00,2013-10-16 17:10:00,
2013-10-16 11:11:00,37.1,31.5,31.13,NNW,338,3.0,6.0,80,0.00,,,0.00,162.00,VWS V14.00,2013-10-16 17:11:00,
2013-10-16 11:12:00,37.1,31.5,31.13,NNW,337,2.0,6.0,80,0.00,,,0.00,169.00,VWS V14.00,2013-10-16 17:12:00,
2013-10-16 11:13:00,37.1,31.5,31.13,NNW,337,3.0,6.0,80,0.00,,,0.00,178.00,VWS V14.00,2013-10-16 17:13:00,
2013-10-16 11:14:00,37.1,31.5,31.13,NNW,338,3.0,6.0,80,0.00,,,0.00,178.00,VWS V14.00,2013-10-16 17:14:00,
2013-10-16 11:15:00,37.1,31.5,31.13,NNW,338,4.0,6.0,80,0.00,,,0.00,169.00,VWS V14.00,2013-10-16 17:15:00,
2013-10-16 11:16:00,37.1,31.5,31.13,NNW,338,2.0,4.0,80,0.00,,,0.00,158.00,VWS V14.00,2013-10-16 17:16:00,
2013-10-16 11:17:00,37.1,31.5,31.13,NNW,338,3.0,4.0,80,0.00,,,0.00,146.00,VWS V14.00,2013-10-16 17:17:00,
2013-10-16 11:18:00,37.1,31.5,31.13,NNW,337,4.0,4.0,80,0.00,,,0.00,137.00,VWS V14.00,2013-10-16 17:18:00,
2013-10-16 11:19:00,37.1,31.5,31.13,NNW,337,2.0,4.0,80,0.00,,,0.00,132.00,VWS V14.00,2013-10-16 17:19:00,
2013-10-16 11:20:00,37.0,31.4,31.13,NNW,338,4.0,4.0,80,0.00,,,0.00,128.00,VWS V14.00,2013-10-16 17:20:00,
2013-10-16 11:21:00,37.0,31.4,31.13,NNW,338,2.0,4.0,80,0.00,,,0.00,120.00,VWS V14.00,2013-10-16 17:21:00,
2013-10-16 11:22:00,37.0,31.4,31.13,NNW,338,5.0,5.0,80,0.00,,,0.00,114.00,VWS V14.00,2013-10-16 17:22:00,
2013-10-16 11:23:00,37.0,31.4,31.13,NNW,338,3.0,5.0,80,0.00,,,0.00,107.00,VWS V14.00,2013-10-16 17:23:00,
2013-10-16 11:24:00,37.0,31.4,31.13,NNW,338,3.0,5.0,80,0.00,,,0.00,104.00,VWS V14.00,2013-10-16 17:24:00,
2013-10-16 11:25:00,37.0,31.1,31.13,NNW,337,5.0,5.0,79,0.00,,,0.00,100.00,VWS V14.00,2013-10-16 17:25:00,
2013-10-16 11:26:00,37.0,31.1,31.13,NNW,338,2.0,5.0,79,0.00,,,0.00,100.00,VWS V14.00,2013-10-16 17:26:00,
2013-10-16 11:27:00,36.9,31.0,31.13,NNW,338,4.0,5.0,79,0.00,,,0.00,107.00,VWS V14.00,2013-10-16 17:27:00,
2013-10-16 11:28:00,36.9,31.0,31.13,NNW,338,5.0,5.0,79,0.00,,,0.00,111.00,VWS V14.00,2013-10-16 17:28:00,
2013-10-16 11:29:00,36.9,30.7,31.13,NNW,340,5.0,5.0,78,0.00,,,0.00,114.00,VWS V14.00,2013-10-16 17:29:00,
2013-10-16 11:30:00,36.9,30.7,31.13,NNW,340,4.0,7.0,78,0.00,,,0.00,118.00,VWS V14.00,2013-10-16 17:30:00,
2013-10-16 11:31:00,36.8,30.6,31.13,NNW,340,5.0,5.0,78,0.00,,,0.00,120.00,VWS V14.00,2013-10-16 17:31:00,
2013-10-16 11:32:00,36.8,30.6,31.13,NNW,341,3.0,5.0,78,0.00,,,0.00,116.00,VWS V14.00,2013-10-16 17:32:00,
2013-10-16 11:33:00,36.8,30.9,31.13,NNW,341,3.0,5.0,79,0.00,,,0.00,114.00,VWS V14.00,2013-10-16 17:33:00,
2013-10-16 11:34:00,36.8,30.9,31.13,NNW,340,5.0,7.0,79,0.00,,,0.00,114.00,VWS V14.00,2013-10-16 17:34:00,
2013-10-16 11:35:00,36.8,30.6,31.13,NNW,340,5.0,7.0,78,0.00,,,0.00,116.00,VWS V14.00,2013-10-16 17:35:00,
2013-10-16 11:36:00,36.8,30.9,31.13,NNW,341,5.0,7.0,79,0.00,,,0.00,120.00,VWS V14.00,2013-10-16 17:36:00,
2013-10-16 11:37:00,36.8,30.9,31.13,NNW,340,5.0,7.0,79,0.00,,,0.00,127.00,VWS V14.00,2013-10-16 17:37:00,
2013-10-16 11:38:00,36.8,30.9,31.13,NNW,339,6.0,7.0,79,0.00,,,0.00,139.00,VWS V14.00,2013-10-16 17:38:00,
2013-10-16 11:39:00,36.8,30.9,31.13,NNW,339,6.0,7.0,79,0.00,,,0.00,148.00,VWS V14.00,2013-10-16 17:39:00,
2013-10-16 11:40:00,36.8,30.9,31.13,NNW,339,5.0,7.0,79,0.00,,,0.00,156.00,VWS V14.00,2013-10-16 17:40:00,
2013-10-16 11:41:00,36.8,30.9,31.13,NNW,339,6.0,7.0,79,0.00,,,0.00,167.00,VWS V14.00,2013-10-16 17:41:00,
2013-10-16 11:42:00,36.8,30.9,31.13,NNW,342,4.0,7.0,79,0.00,,,0.00,179.00,VWS V14.00,2013-10-16 17:42:00,
2013-10-16 11:43:00,36.8,30.9,31.13,NNW,344,4.0,7.0,79,0.00,,,0.00,193.00,VWS V14.00,2013-10-16 17:43:00,
2013-10-16 11:44:00,36.8,30.9,31.13,NNW,344,4.0,7.0,79,0.00,,,0.00,304.00,VWS V14.00,2013-10-16 17:44:00,
2013-10-16 11:45:00,36.9,31.0,31.13,NNW,336,4.0,7.0,79,0.00,,,0.00,318.00,VWS V14.00,2013-10-16 17:45:00,
2013-10-16 11:46:00,37.0,31.1,31.14,NW,322,7.0,7.0,79,0.00,,,0.00,271.00,VWS V14.00,2013-10-16 17:46:00,
2013-10-16 11:47:00,37.0,31.1,31.14,NW,324,6.0,7.0,79,0.00,,,0.00,276.00,VWS V14.00,2013-10-16 17:47:00,
2013-10-16 11:48:00,37.1,30.9,31.14,NW,325,5.0,7.0,78,0.00,,,0.00,276.00,VWS V14.00,2013-10-16 17:48:00,
2013-10-16 11:49:00,37.2,31.0,31.14,NW,326,5.0,7.0,78,0.00,,,0.00,267.00,VWS V14.00,2013-10-16 17:49:00,
2013-10-16 11:50:00,37.3,31.1,31.13,NW,326,5.0,7.0,78,0.00,,,0.00,279.00,VWS V14.00,2013-10-16 17:50:00,
2013-10-16 11:51:00,37.4,30.9,31.13,NW,319,6.0,7.0,77,0.00,,,0.00,255.00,VWS V14.00,2013-10-16 17:51:00,
2013-10-16 11:52:00,37.5,30.6,31.13,NNW,329,6.0,7.0,76,0.00,,,0.00,229.00,VWS V14.00,2013-10-16 17:52:00,
2013-10-16 11:53:00,37.5,30.3,31.13,NNW,333,6.0,7.0,75,0.00,,,0.00,202.00,VWS V14.00,2013-10-16 17:53:00,
2013-10-16 11:54:00,37.7,30.2,31.13,NNW,334,5.0,7.0,74,0.00,,,0.00,176.00,VWS V14.00,2013-10-16 17:54:00,
2013-10-16 11:55:00,37.7,30.2,31.13,NNW,335,4.0,7.0,74,0.00,,,0.00,169.00,VWS V14.00,2013-10-16 17:55:00,
2013-10-16 11:56:00,37.8,30.3,31.13,NNW,335,4.0,7.0,74,0.00,,,0.00,192.00,VWS V14.00,2013-10-16 17:56:00,
2013-10-16 11:57:00,37.8,30.3,31.13,NNW,340,3.0,7.0,74,0.00,,,0.00,195.00,VWS V14.00,2013-10-16 17:57:00,
2013-10-16 11:58:00,37.9,30.7,31.13,NNW,341,4.0,7.0,75,0.00,,,0.00,204.00,VWS V14.00,2013-10-16 17:58:00,
2013-10-16 11:59:00,38.0,30.5,31.13,NNW,341,4.0,7.0,74,0.00,,,0.00,204.00,VWS V14.00,2013-10-16 17:59:00,
2013-10-16 12:00:00,38.0,30.8,31.13,NNW,342,3.0,7.0,75,0.00,,,0.00,206.00,VWS V14.00,2013-10-16 18:00:00,
2013-10-16 12:01:00,38.0,30.5,31.12,NNW,342,4.0,5.0,74,0.00,,,0.00,193.00,VWS V14.00,2013-10-16 18:01:00,
2013-10-16 12:02:00,38.1,30.2,31.12,NNW,342,4.0,5.0,73,0.00,,,0.00,181.00,VWS V14.00,2013-10-16 18:02:00,
2013-10-16 12:03:00,38.2,29.6,31.12,NNW,342,3.0,5.0,71,0.00,,,0.00,174.00,VWS V14.00,2013-10-16 18:03:00,
2013-10-16 12:04:00,38.2,30.0,31.12,NNW,342,3.0,5.0,72,0.00,,,0.00,167.00,VWS V14.00,2013-10-16 18:04:00,
2013-10-16 12:05:00,38.3,30.4,31.12,NNW,342,2.0,5.0,73,0.00,,,0.00,160.00,VWS V14.00,2013-10-16 18:05:00,
2013-10-16 12:06:00,38.3,30.4,31.12,NNW,342,3.0,5.0,73,0.00,,,0.00,165.00,VWS V14.00,2013-10-16 18:06:00,
2013-10-16 12:07:00,38.4,30.5,31.12,NNW,342,1.0,5.0,73,0.00,,,0.00,183.00,VWS V14.00,2013-10-16 18:07:00,
2013-10-16 12:08:00,38.4,30.9,31.12,NNW,342,0.0,5.0,74,0.00,,,0.00,181.00,VWS V14.00,2013-10-16 18:08:00,
2013-10-16 12:09:00,38.5,31.0,31.12,NNW,343,0.0,5.0,74,0.00,,,0.00,183.00,VWS V14.00,2013-10-16 18:09:00,
2013-10-16 12:10:00,38.6,31.0,31.11,NNW,342,0.0,5.0,74,0.00,,,0.00,183.00,VWS V14.00,2013-10-16 18:10:00,
2013-10-16 12:11:00,38.6,30.4,31.11,NNW,343,0.0,5.0,72,0.00,,,0.00,186.00,VWS V14.00,2013-10-16 18:11:00,
2013-10-16 12:12:00,38.7,30.5,31.11,NNW,343,0.0,5.0,72,0.00,,,0.00,190.00,VWS V14.00,2013-10-16 18:12:00,
2013-10-16 12:13:00,38.8,30.2,31.11,NNW,342,0.0,5.0,71,0.00,,,0.00,192.00,VWS V14.00,2013-10-16 18:13:00,
2013-10-16 12:14:00,38.8,30.2,31.11,NNW,343,0.0,5.0,71,0.00,,,0.00,195.00,VWS V14.00,2013-10-16 18:14:00,
2013-10-16 12:15:00,38.9,30.7,31.11,NNW,342,0.0,5.0,72,0.00,,,0.00,199.00,VWS V14.00,2013-10-16 18:15:00,
2013-10-16 12:16:00,38.9,30.7,31.11,NNW,343,3.0,3.0,72,0.00,,,0.00,202.00,VWS V14.00,2013-10-16 18:16:00,
2013-10-16 12:17:00,39.0,30.1,31.11,NNW,342,3.0,4.0,70,0.00,,,0.00,204.00,VWS V14.00,2013-10-16 18:17:00,
2013-10-16 12:18:00,39.1,30.2,31.11,NNW,343,2.0,4.0,70,0.00,,,0.00,209.00,VWS V14.00,2013-10-16 18:18:00,
2013-10-16 12:19:00,39.2,30.2,31.11,NNW,342,1.0,4.0,70,0.00,,,0.00,225.00,VWS V14.00,2013-10-16 18:19:00,
2013-10-16 12:20:00,39.3,30.7,31.11,NNW,343,0.0,4.0,71,0.00,,,0.00,232.00,VWS V14.00,2013-10-16 18:20:00,
2013-10-16 12:21:00,39.3,30.7,31.11,NNW,343,0.0,4.0,71,0.00,,,0.00,236.00,VWS V14.00,2013-10-16 18:21:00,
2013-10-16 12:22:00,39.4,30.8,31.11,NNW,343,3.0,4.0,71,0.00,,,0.00,236.00,VWS V14.00,2013-10-16 18:22:00,
2013-10-16 12:23:00,39.5,30.9,31.11,NNW,341,4.0,6.0,71,0.00,,,0.00,239.00,VWS V14.00,2013-10-16 18:23:00,
2013-10-16 12:24:00,39.6,30.6,31.11,NNW,342,2.0,6.0,70,0.00,,,0.00,244.00,VWS V14.00,2013-10-16 18:24:00,
2013-10-16 12:25:00,39.6,31.0,31.11,NNW,341,3.0,6.0,71,0.00,,,0.00,232.00,VWS V14.00,2013-10-16 18:25:00,
2013-10-16 12:26:00,39.7,31.1,31.11,NNW,340,3.0,6.0,71,0.00,,,0.00,227.00,VWS V14.00,2013-10-16 18:26:00,
2013-10-16 12:27:00,39.8,31.5,31.11,NNW,340,3.0,6.0,72,0.00,,,0.00,230.00,VWS V14.00,2013-10-16 18:27:00,
2013-10-16 12:28:00,39.8,31.2,31.11,NNW,340,4.0,6.0,71,0.00,,,0.00,309.00,VWS V14.00,2013-10-16 18:28:00,
2013-10-16 12:29:00,39.9,30.9,31.11,NNW,340,1.0,6.0,70,0.00,,,0.00,257.00,VWS V14.00,2013-10-16 18:29:00,
2013-10-16 12:30:00,40.0,31.7,31.11,NNW,340,0.0,6.0,72,0.00,,,0.00,250.00,VWS V14.00,2013-10-16 18:30:00,
2013-10-16 12:31:00,40.1,31.8,31.11,NNW,340,3.0,5.0,72,0.00,,,0.00,223.00,VWS V14.00,2013-10-16 18:31:00,
2013-10-16 12:32:00,40.1,31.5,31.11,NNW,340,4.0,5.0,71,0.00,,,0.00,213.00,VWS V14.00,2013-10-16 18:32:00,
2013-10-16 12:33:00,40.2,31.6,31.11,NNW,336,4.0,7.0,71,0.00,,,0.00,207.00,VWS V14.00,2013-10-16 18:33:00,
2013-10-16 12:34:00,40.2,31.9,31.11,NNW,337,4.0,7.0,72,0.00,,,0.00,213.00,VWS V14.00,2013-10-16 18:34:00,
2013-10-16 12:35:00,40.3,31.7,31.11,NNW,337,2.0,7.0,71,0.00,,,0.00,227.00,VWS V14.00,2013-10-16 18:35:00,
2013-10-16 12:36:00,40.3,31.7,31.11,NNW,337,4.0,7.0,71,0.00,,,0.00,302.00,VWS V14.00,2013-10-16 18:36:00,
2013-10-16 12:37:00,40.4,31.4,31.11,NNW,337,5.0,7.0,70,0.00,,,0.00,306.00,VWS V14.00,2013-10-16 18:37:00,
2013-10-16 12:38:00,40.4,31.4,31.11,NNW,337,6.0,7.0,70,0.00,,,0.00,269.00,VWS V14.00,2013-10-16 18:38:00,
2013-10-16 12:39:00,40.5,31.9,31.11,NNW,338,5.0,7.0,71,0.00,,,0.00,297.00,VWS V14.00,2013-10-16 18:39:00,
2013-10-16 12:40:00,40.5,31.5,31.10,NNW,340,4.0,7.0,70,0.00,,,0.00,313.00,VWS V14.00,2013-10-16 18:40:00,
2013-10-16 12:41:00,40.5,31.9,31.10,NNW,340,3.0,7.0,71,0.00,,,0.00,302.00,VWS V14.00,2013-10-16 18:41:00,
2013-10-16 12:42:00,40.6,32.3,31.10,NNW,341,4.0,7.0,72,0.00,,,0.00,448.00,VWS V14.00,2013-10-16 18:42:00,
2013-10-16 12:43:00,40.7,32.0,31.10,NNW,341,3.0,7.0,71,0.00,,,0.00,448.00,VWS V14.00,2013-10-16 18:43:00,
2013-10-16 12:44:00,40.8,32.5,31.10,NNW,342,4.0,7.0,72,0.00,,,0.00,675.00,VWS V14.00,2013-10-16 18:44:00,
2013-10-16 12:45:00,40.9,33.3,31.10,NNW,347,6.0,7.0,74,0.00,,,0.00,650.00,VWS V14.00,2013-10-16 18:45:00,
2013-10-16 12:46:00,41.1,32.8,31.10,North,350,3.0,7.0,72,0.00,,,0.00,592.00,VWS V14.00,2013-10-16 18:46:00,
2013-10-16 12:47:00,41.1,32.8,31.10,North,349,2.0,7.0,72,0.00,,,0.00,621.00,VWS V14.00,2013-10-16 18:47:00,
2013-10-16 12:48:00,41.3,33.0,31.10,North,355,4.0,10.0,72,0.00,,,0.00,652.00,VWS V14.00,2013-10-16 18:48:00,
2013-10-16 12:49:00,41.5,32.8,31.09,North,355,5.0,10.0,71,0.00,,,0.00,596.00,VWS V14.00,2013-10-16 18:49:00,
2013-10-16 12:50:00,41.6,32.6,31.10,North,355,5.0,10.0,70,0.00,,,0.00,557.00,VWS V14.00,2013-10-16 18:50:00,
2013-10-16 12:51:00,41.8,33.1,31.10,North,355,5.0,10.0,71,0.00,,,0.00,557.00,VWS V14.00,2013-10-16 18:51:00,
2013-10-16 12:52:00,41.9,33.5,31.10,NNW,346,6.0,10.0,72,0.00,,,0.00,700.00,VWS V14.00,2013-10-16 18:52:00,
2013-10-16 12:53:00,42.2,33.8,31.10,North,350,6.0,10.0,72,0.00,,,0.00,712.00,VWS V14.00,2013-10-16 18:53:00,
2013-10-16 12:54:00,42.3,33.2,31.10,North,355,3.0,10.0,70,0.00,,,0.00,664.00,VWS V14.00,2013-10-16 18:54:00,
2013-10-16 12:55:00,42.5,33.4,31.10,NNW,348,7.0,10.0,70,0.00,,,0.00,410.00,VWS V14.00,2013-10-16 18:55:00,
2013-10-16 12:56:00,42.6,32.8,31.09,North,355,6.0,10.0,68,0.00,,,0.00,410.00,VWS V14.00,2013-10-16 18:56:00,
2013-10-16 12:57:00,42.7,32.5,31.09,NNW,338,3.0,10.0,67,0.00,,,0.00,410.00,VWS V14.00,2013-10-16 18:57:00,
2013-10-16 12:58:00,42.8,32.6,31.09,North,355,9.0,10.0,67,0.00,,,0.00,443.00,VWS V14.00,2013-10-16 18:58:00,
2013-10-16 12:59:00,43.0,32.4,31.09,North,355,6.0,10.0,66,0.00,,,0.00,443.00,VWS V14.00,2013-10-16 18:59:00,
2013-10-16 13:00:00,43.1,32.5,31.09,North,360,7.0,10.0,66,0.00,,,0.00,357.00,VWS V14.00,2013-10-16 19:00:00,
2013-10-16 13:01:00,43.2,32.6,31.10,North,9,0.0,7.0,66,0.00,,,0.00,287.00,VWS V14.00,2013-10-16 19:01:00,
2013-10-16 13:02:00,43.2,33.0,31.10,NNE,14,0.0,7.0,67,0.00,,,0.00,221.00,VWS V14.00,2013-10-16 19:02:00,
2013-10-16 13:03:00,43.3,32.3,31.10,North,360,5.0,7.0,65,0.00,,,0.00,218.00,VWS V14.00,2013-10-16 19:03:00,
2013-10-16 13:04:00,43.3,32.3,31.10,North,360,5.0,8.0,65,0.00,,,0.00,202.00,VWS V14.00,2013-10-16 19:04:00,
2013-10-16 13:05:00,43.4,32.4,31.10,North,355,4.0,8.0,65,0.00,,,0.00,186.00,VWS V14.00,2013-10-16 19:05:00,
2013-10-16 13:06:00,43.4,32.4,31.10,NNW,348,5.0,8.0,65,0.00,,,0.00,178.00,VWS V14.00,2013-10-16 19:06:00,
2013-10-16 13:07:00,43.3,32.3,31.10,NNW,345,3.0,8.0,65,0.00,,,0.00,169.00,VWS V14.00,2013-10-16 19:07:00,
2013-10-16 13:08:00,43.3,32.3,31.10,NNW,348,3.0,8.0,65,0.00,,,0.00,160.00,VWS V14.00,2013-10-16 19:08:00,
2013-10-16 13:09:00,43.4,32.4,31.10,NNW,341,5.0,8.0,65,0.00,,,0.00,155.00,VWS V14.00,2013-10-16 19:09:00,
2013-10-16 13:10:00,43.3,32.3,31.10,NNW,340,5.0,8.0,65,0.00,,,0.00,160.00,VWS V14.00,2013-10-16 19:10:00,
2013-10-16 13:11:00,43.3,32.3,31.10,NNW,338,5.0,9.0,65,0.00,,,0.00,171.00,VWS V14.00,2013-10-16 19:11:00,
2013-10-16 13:12:00,43.3,32.3,31.10,NNW,340,6.0,9.0,65,0.00,,,0.00,181.00,VWS V14.00,2013-10-16 19:12:00,
2013-10-16 13:13:00,43.3,32.3,31.10,NNW,338,6.0,9.0,65,0.00,,,0.00,181.00,VWS V14.00,2013-10-16 19:13:00,
2013-10-16 13:14:00,43.3,32.0,31.10,NNW,342,3.0,9.0,64,0.00,,,0.00,185.00,VWS V14.00,2013-10-16 19:14:00,
2013-10-16 13:15:00,43.2,31.5,31.10,NNW,344,6.0,9.0,63,0.00,,,0.00,188.00,VWS V14.00,2013-10-16 19:15:00,
2013-10-16 13:16:00,43.2,31.9,31.10,NNW,340,7.0,7.0,64,0.00,,,0.00,193.00,VWS V14.00,2013-10-16 19:16:00,
2013-10-16 13:17:00,43.2,31.9,31.10,North,355,9.0,9.0,64,0.00,,,0.00,197.00,VWS V14.00,2013-10-16 19:17:00,
2013-10-16 13:18:00,43.3,31.6,31.10,NNW,338,11.0,11.0,63,0.00,,,0.00,192.00,VWS V14.00,2013-10-16 19:18:00,
2013-10-16 13:19:00,43.3,32.0,31.10,North,350,11.0,13.0,64,0.00,,,0.00,188.00,VWS V14.00,2013-10-16 19:19:00,
2013-10-16 13:20:00,43.3,32.0,31.10,NNW,346,7.0,13.0,64,0.00,,,0.00,186.00,VWS V14.00,2013-10-16 19:20:00,
2013-10-16 13:21:00,43.3,32.3,31.10,NNW,338,6.0,13.0,65,0.00,,,0.00,190.00,VWS V14.00,2013-10-16 19:21:00,
2013-10-16 13:22:00,43.2,32.2,31.10,North,355,6.0,13.0,65,0.00,,,0.00,193.00,VWS V14.00,2013-10-16 19:22:00,
2013-10-16 13:23:00,43.2,32.2,31.10,NNW,340,9.0,13.0,65,0.00,,,0.00,200.00,VWS V14.00,2013-10-16 19:23:00,
2013-10-16 13:24:00,43.2,31.9,31.10,NNW,348,7.0,13.0,64,0.00,,,0.00,200.00,VWS V14.00,2013-10-16 19:24:00,
2013-10-16 13:25:00,43.2,32.2,31.10,North,355,9.0,13.0,65,0.00,,,0.00,197.00,VWS V14.00,2013-10-16 19:25:00,
2013-10-16 13:26:00,43.2,32.2,31.10,NNW,337,8.0,13.0,65,0.00,,,0.00,199.00,VWS V14.00,2013-10-16 19:26:00,
2013-10-16 13:27:00,43.1,32.2,31.10,NNW,338,9.0,13.0,65,0.00,,,0.00,202.00,VWS V14.00,2013-10-16 19:27:00,
2013-10-16 13:28:00,43.1,31.8,31.10,North,355,10.0,13.0,64,0.00,,,0.00,206.00,VWS V14.00,2013-10-16 19:28:00,
2013-10-16 13:29:00,43.1,31.4,31.10,NNW,336,10.0,13.0,63,0.00,,,0.00,216.00,VWS V14.00,2013-10-16 19:29:00,
2013-10-16 13:30:00,43.1,31.0,31.10,NNW,336,7.0,13.0,62,0.00,,,0.00,234.00,VWS V14.00,2013-10-16 19:30:00,
2013-10-16 13:31:00,43.1,31.0,31.10,NNW,330,7.0,10.0,62,0.00,,,0.00,248.00,VWS V14.00,2013-10-16 19:31:00,
2013-10-16 13:32:00,43.1,31.8,31.10,NNW,331,6.0,12.0,64,0.00,,,0.00,255.00,VWS V14.00,2013-10-16 19:32:00,
2013-10-16 13:33:00,43.1,31.8,31.10,NNW,334,7.0,12.0,64,0.00,,,0.00,253.00,VWS V14.00,2013-10-16 19:33:00,
2013-10-16 13:34:00,43.1,32.2,31.10,NNW,338,10.0,12.0,65,0.00,,,0.00,253.00,VWS V14.00,2013-10-16 19:34:00,
2013-10-16 13:35:00,43.1,31.8,31.10,NNW,338,5.0,12.0,64,0.00,,,0.00,241.00,VWS V14.00,2013-10-16 19:35:00,
2013-10-16 13:36:00,43.1,31.8,31.10,North,360,8.0,12.0,64,0.00,,,0.00,218.00,VWS V14.00,2013-10-16 19:36:00,
2013-10-16 13:37:00,43.2,31.5,31.10,North,355,9.0,12.0,63,0.00,,,0.00,199.00,VWS V14.00,2013-10-16 19:37:00,
2013-10-16 13:38:00,43.2,30.7,31.10,North,360,10.0,12.0,61,0.00,,,0.00,195.00,VWS V14.00,2013-10-16 19:38:00,
2013-10-16 13:39:00,43.2,30.7,31.10,North,350,7.0,12.0,61,0.00,,,0.00,193.00,VWS V14.00,2013-10-16 19:39:00,
2013-10-16 13:40:00,43.2,31.1,31.10,NNW,342,5.0,12.0,62,0.00,,,0.00,197.00,VWS V14.00,2013-10-16 19:40:00,
2013-10-16 13:41:00,43.2,30.7,31.10,NNW,345,5.0,12.0,61,0.00,,,0.00,202.00,VWS V14.00,2013-10-16 19:41:00,
2013-10-16 13:42:00,43.2,31.1,31.10,North,9,6.0,12.0,62,0.00,,,0.00,209.00,VWS V14.00,2013-10-16 19:42:00,
2013-10-16 13:43:00,43.3,31.6,31.10,North,350,6.0,12.0,63,0.00,,,0.00,214.00,VWS V14.00,2013-10-16 19:43:00,
2013-10-16 13:44:00,43.3,31.2,31.10,NNW,341,5.0,12.0,62,0.00,,,0.00,234.00,VWS V14.00,2013-10-16 19:44:00,
2013-10-16 13:45:00,43.4,30.9,31.09,NNW,346,5.0,12.0,61,0.00,,,0.00,244.00,VWS V14.00,2013-10-16 19:45:00,
2013-10-16 13:46:00,43.4,31.3,31.09,North,355,7.0,8.0,62,0.00,,,0.00,223.00,VWS V14.00,2013-10-16 19:46:00,
2013-10-16 13:47:00,43.4,30.9,31.09,NNW,347,9.0,10.0,61,0.00,,,0.00,213.00,VWS V14.00,2013-10-16 19:47:00,
2013-10-16 13:48:00,43.4,30.5,31.09,NNW,348,6.0,10.0,60,0.00,,,0.00,218.00,VWS V14.00,2013-10-16 19:48:00,
2013-10-16 13:49:00,43.5,31.0,31.09,NNW,342,7.0,10.0,61,0.00,,,0.00,221.00,VWS V14.00,2013-10-16 19:49:00,
2013-10-16 13:50:00,43.4,30.5,31.08,NNW,338,7.0,10.0,60,0.00,,,0.00,220.00,VWS V14.00,2013-10-16 19:50:00,
2013-10-16 13:51:00,43.4,30.5,31.10,NNW,340,10.0,11.0,60,0.00,,,0.00,229.00,VWS V14.00,2013-10-16 19:51:00,
2013-10-16 13:52:00,43.4,30.5,31.10,NNW,344,6.0,11.0,60,0.00,,,0.00,246.00,VWS V14.00,2013-10-16 19:52:00,
2013-10-16 13:53:00,43.3,30.4,31.10,NNW,339,6.0,11.0,60,0.00,,,0.00,272.00,VWS V14.00,2013-10-16 19:53:00,
2013-10-16 13:54:00,43.2,30.3,31.09,North,350,6.0,11.0,60,0.00,,,0.00,239.00,VWS V14.00,2013-10-16 19:54:00,
2013-10-16 13:55:00,43.2,30.3,31.09,NNW,342,6.0,11.0,60,0.00,,,0.00,239.00,VWS V14.00,2013-10-16 19:55:00,
2013-10-16 13:56:00,43.1,30.2,31.09,NNW,342,4.0,11.0,60,0.00,,,0.00,230.00,VWS V14.00,2013-10-16 19:56:00,
2013-10-16 13:57:00,43.1,31.0,31.09,NNW,344,5.0,11.0,62,0.00,,,0.00,236.00,VWS V14.00,2013-10-16 19:57:00,
2013-10-16 13:58:00,43.1,30.6,31.09,NNW,345,5.0,11.0,61,0.00,,,0.00,250.00,VWS V14.00,2013-10-16 19:58:00,
2013-10-16 13:59:00,43.1,31.0,31.09,NNW,345,4.0,11.0,62,0.00,,,0.00,251.00,VWS V14.00,2013-10-16 19:59:00,
2013-10-16 14:00:00,43.1,30.6,31.09,North,355,5.0,11.0,61,0.00,,,0.00,250.00,VWS V14.00,2013-10-16 20:00:00,
2013-10-16 14:01:00,43.1,30.6,31.09,North,349,6.0,7.0,61,0.00,,,0.00,246.00,VWS V14.00,2013-10-16 20:01:00,
2013-10-16 14:02:00,43.1,30.6,31.09,North,350,4.0,7.0,61,0.00,,,0.00,243.00,VWS V14.00,2013-10-16 20:02:00,
2013-10-16 14:03:00,43.1,30.6,31.09,NNW,348,2.0,7.0,61,0.00,,,0.00,239.00,VWS V14.00,2013-10-16 20:03:00,
2013-10-16 14:04:00,43.1,30.6,31.09,NNW,348,5.0,7.0,61,0.00,,,0.00,239.00,VWS V14.00,2013-10-16 20:04:00,
2013-10-16 14:05:00,43.1,30.6,31.09,North,349,4.0,7.0,61,0.00,,,0.00,243.00,VWS V14.00,2013-10-16 20:05:00,
2013-10-16 14:06:00,43.2,30.7,31.09,North,349,5.0,7.0,61,0.00,,,0.00,272.00,VWS V14.00,2013-10-16 20:06:00,
2013-10-16 14:07:00,43.2,30.7,31.09,North,349,3.0,7.0,61,0.00,,,0.00,255.00,VWS V14.00,2013-10-16 20:07:00,
2013-10-16 14:08:00,43.2,30.7,31.09,NNW,348,5.0,7.0,61,0.00,,,0.00,264.00,VWS V14.00,2013-10-16 20:08:00,
2013-10-16 14:09:00,43.2,30.7,31.09,NNW,348,2.0,7.0,61,0.00,,,0.00,264.00,VWS V14.00,2013-10-16 20:09:00,
2013-10-16 14:10:00,43.2,31.1,31.09,NNW,348,4.0,7.0,62,0.00,,,0.00,264.00,VWS V14.00,2013-10-16 20:10:00,
2013-10-16 14:11:00,43.3,30.8,31.09,NNW,348,3.0,7.0,61,0.00,,,0.00,260.00,VWS V14.00,2013-10-16 20:11:00,
2013-10-16 14:12:00,43.3,30.8,31.09,NNW,348,0.0,7.0,61,0.00,,,0.00,253.00,VWS V14.00,2013-10-16 20:12:00,
2013-10-16 14:13:00,43.3,31.2,31.09,NNW,348,3.0,7.0,62,0.00,,,0.00,244.00,VWS V14.00,2013-10-16 20:13:00,
2013-10-16 14:14:00,43.4,30.9,31.09,NNW,348,3.0,7.0,61,0.00,,,0.00,257.00,VWS V14.00,2013-10-16 20:14:00,
2013-10-16 14:15:00,43.4,30.5,31.09,NNW,348,3.0,7.0,60,0.00,,,0.00,241.00,VWS V14.00,2013-10-16 20:15:00,
2013-10-16 14:16:00,43.4,30.9,31.09,NNW,348,0.0,3.0,61,0.00,,,0.00,237.00,VWS V14.00,2013-10-16 20:16:00,
2013-10-16 14:17:00,43.5,31.4,31.09,NNW,348,0.0,3.0,62,0.00,,,0.00,239.00,VWS V14.00,2013-10-16 20:17:00,
2013-10-16 14:18:00,43.5,31.4,31.09,NNW,348,4.0,4.0,62,0.00,,,0.00,243.00,VWS V14.00,2013-10-16 20:18:00,
2013-10-16 14:19:00,43.6,31.0,31.09,NNW,348,0.0,4.0,61,0.00,,,0.00,243.00,VWS V14.00,2013-10-16 20:19:00,
2013-10-16 14:20:00,43.6,30.6,31.09,NNW,348,0.0,4.0,60,0.00,,,0.00,239.00,VWS V14.00,2013-10-16 20:20:00,
2013-10-16 14:21:00,43.6,31.0,31.09,NNW,348,0.0,4.0,61,0.00,,,0.00,230.00,VWS V14.00,2013-10-16 20:21:00,
2013-10-16 14:22:00,43.7,31.1,31.09,NNW,348,3.0,4.0,61,0.00,,,0.00,211.00,VWS V14.00,2013-10-16 20:22:00,
2013-10-16 14:23:00,43.7,31.1,31.09,NNW,348,4.0,4.0,61,0.00,,,0.00,206.00,VWS V14.00,2013-10-16 20:23:00,
2013-10-16 14:24:00,43.7,31.1,31.08,NNW,348,2.0,4.0,61,0.00,,,0.00,202.00,VWS V14.00,2013-10-16 20:24:00,
2013-10-16 14:25:00,43.8,30.8,31.08,NNW,348,0.0,4.0,60,0.00,,,0.00,200.00,VWS V14.00,2013-10-16 20:25:00,
2013-10-16 14:26:00,43.8,30.8,31.08,NNW,348,0.0,4.0,60,0.00,,,0.00,200.00,VWS V14.00,2013-10-16 20:26:00,
2013-10-16 14:27:00,43.8,30.8,31.08,NNW,348,0.0,4.0,60,0.00,,,0.00,202.00,VWS V14.00,2013-10-16 20:27:00,
2013-10-16 14:28:00,43.8,30.8,31.08,NNW,348,0.0,4.0,60,0.00,,,0.00,207.00,VWS V14.00,2013-10-16 20:28:00,
2013-10-16 14:29:00,43.8,31.2,31.08,NNW,348,0.0,4.0,61,0.00,,,0.00,209.00,VWS V14.00,2013-10-16 20:29:00,
2013-10-16 14:30:00,43.9,30.9,31.08,NNW,348,0.0,4.0,60,0.00,,,0.00,209.00,VWS V14.00,2013-10-16 20:30:00,
2013-10-16 14:31:00,43.9,30.9,31.08,NNW,348,0.0,0.0,60,0.00,,,0.00,211.00,VWS V14.00,2013-10-16 20:31:00,
2013-10-16 14:32:00,44.0,31.0,31.08,NNW,348,0.0,0.0,60,0.00,,,0.00,214.00,VWS V14.00,2013-10-16 20:32:00,
2013-10-16 14:33:00,44.0,31.4,31.08,NNW,348,0.0,0.0,61,0.00,,,0.00,225.00,VWS V14.00,2013-10-16 20:33:00,
2013-10-16 14:34:00,44.0,31.0,31.08,NNW,348,0.0,0.0,60,0.00,,,0.00,230.00,VWS V14.00,2013-10-16 20:34:00,
2013-10-16 14:35:00,44.1,31.1,31.08,NNW,348,0.0,0.0,60,0.00,,,0.00,239.00,VWS V14.00,2013-10-16 20:35:00,
2013-10-16 14:36:00,44.1,31.5,31.08,NNW,348,0.0,0.0,61,0.00,,,0.00,248.00,VWS V14.00,2013-10-16 20:36:00,
2013-10-16 14:37:00,44.1,31.1,31.08,NNW,348,0.0,0.0,60,0.00,,,0.00,255.00,VWS V14.00,2013-10-16 20:37:00,
2013-10-16 14:38:00,44.1,30.7,31.08,NNW,348,0.0,0.0,59,0.00,,,0.00,262.00,VWS V14.00,2013-10-16 20:38:00,
2013-10-16 14:39:00,44.2,30.8,31.08,NNW,348,0.0,0.0,59,0.00,,,0.00,269.00,VWS V14.00,2013-10-16 20:39:00,
2013-10-16 14:40:00,44.2,31.2,31.08,NNW,348,0.0,0.0,60,0.00,,,0.00,309.00,VWS V14.00,2013-10-16 20:40:00,
2013-10-16 14:41:00,44.3,31.3,31.08,NNW,348,0.0,0.0,60,0.00,,,0.00,399.00,VWS V14.00,2013-10-16 20:41:00,
2013-10-16 14:42:00,44.3,31.3,31.08,NNW,348,0.0,0.0,60,0.00,,,0.00,318.00,VWS V14.00,2013-10-16 20:42:00,
2013-10-16 14:43:00,44.4,32.2,31.08,NNW,348,0.0,0.0,62,0.00,,,0.00,302.00,VWS V14.00,2013-10-16 20:43:00,
2013-10-16 14:44:00,44.5,32.3,31.08,NNW,348,0.0,0.0,62,0.00,,,0.00,315.00,VWS V14.00,2013-10-16 20:44:00,
2013-10-16 14:45:00,44.6,32.0,31.07,NNW,348,0.0,0.0,61,0.00,,,0.00,290.00,VWS V14.00,2013-10-16 20:45:00,
2013-10-16 14:46:00,44.6,31.2,31.07,NNW,348,0.0,0.0,59,0.00,,,0.00,290.00,VWS V14.00,2013-10-16 20:46:00,
2013-10-16 14:47:00,44.7,31.3,31.07,NNW,348,0.0,0.0,59,0.00,,,0.00,311.00,VWS V14.00,2013-10-16 20:47:00,
2013-10-16 14:48:00,44.8,31.4,31.07,NNW,348,0.0,0.0,59,0.00,,,0.00,292.00,VWS V14.00,2013-10-16 20:48:00,
2013-10-16 14:49:00,44.9,31.5,31.06,NNW,348,0.0,0.0,59,0.00,,,0.00,283.00,VWS V14.00,2013-10-16 20:49:00,
2013-10-16 14:50:00,45.0,32.4,31.07,NNW,348,0.0,0.0,61,0.00,,,0.00,323.00,VWS V14.00,2013-10-16 20:50:00,
2013-10-16 14:51:00,45.1,31.6,31.07,NNW,348,0.0,0.0,59,0.00,,,0.00,343.00,VWS V14.00,2013-10-16 20:51:00,
2013-10-16 14:52:00,45.3,32.2,31.07,NNW,348,0.0,1.0,60,0.00,,,0.00,346.00,VWS V14.00,2013-10-16 20:52:00,
2013-10-16 14:53:00,45.5,31.6,31.07,NNW,348,0.0,1.0,58,0.00,,,0.00,346.00,VWS V14.00,2013-10-16 20:53:00,
2013-10-16 14:54:00,45.6,31.7,31.07,NNW,348,0.0,1.0,58,0.00,,,0.00,346.00,VWS V14.00,2013-10-16 20:54:00,
2013-10-16 14:55:00,45.8,31.9,31.07,NNW,348,0.0,1.0,58,0.00,,,0.00,348.00,VWS V14.00,2013-10-16 20:55:00,
2013-10-16 14:56:00,45.8,31.5,31.06,NNW,348,0.0,1.0,57,0.00,,,0.00,330.00,VWS V14.00,2013-10-16 20:56:00,
2013-10-16 14:57:00,45.9,31.1,31.06,NNW,348,0.0,1.0,56,0.00,,,0.00,339.00,VWS V14.00,2013-10-16 20:57:00,
2013-10-16 14:58:00,46.0,31.2,31.06,NNW,348,0.0,1.0,56,0.00,,,0.00,343.00,VWS V14.00,2013-10-16 20:58:00,
2013-10-16 14:59:00,46.2,32.7,31.06,NNW,348,0.0,1.0,59,0.00,,,0.00,371.00,VWS V14.00,2013-10-16 20:59:00,
2013-10-16 15:00:00,46.5,33.0,31.06,NNW,348,0.0,1.0,59,0.00,,,0.00,424.00,VWS V14.00,2013-10-16 21:00:00,
2013-10-16 15:01:00,46.7,32.3,31.06,NNW,348,0.0,0.0,57,0.00,,,0.00,473.00,VWS V14.00,2013-10-16 21:01:00,
2013-10-16 15:02:00,46.9,31.6,31.06,NNW,348,0.0,0.0,55,0.00,,,0.00,396.00,VWS V14.00,2013-10-16 21:02:00,
2013-10-16 15:03:00,47.0,32.1,31.06,NNW,348,0.0,0.0,56,0.00,,,0.00,353.00,VWS V14.00,2013-10-16 21:03:00,
2013-10-16 15:04:00,47.2,32.3,31.06,NNW,348,0.0,0.0,56,0.00,,,0.00,353.00,VWS V14.00,2013-10-16 21:04:00,
2013-10-16 15:05:00,47.4,31.6,31.06,NNW,348,0.0,0.0,54,0.00,,,0.00,371.00,VWS V14.00,2013-10-16 21:05:00,
2013-10-16 15:06:00,47.6,33.1,31.06,NNW,348,0.0,0.0,57,0.00,,,0.00,371.00,VWS V14.00,2013-10-16 21:06:00,
2013-10-16 15:07:00,47.8,32.4,31.06,NNW,348,0.0,0.0,55,0.00,,,0.00,510.00,VWS V14.00,2013-10-16 21:07:00,
2013-10-16 15:08:00,47.9,32.1,31.06,NNW,348,0.0,0.0,54,0.00,,,0.00,510.00,VWS V14.00,2013-10-16 21:08:00,
2013-10-16 15:09:00,48.0,31.7,31.06,NNW,348,0.0,0.0,53,0.00,,,0.00,327.00,VWS V14.00,2013-10-16 21:09:00,
2013-10-16 15:10:00,48.1,31.8,31.06,NNW,348,0.0,0.0,53,0.00,,,0.00,308.00,VWS V14.00,2013-10-16 21:10:00,
2013-10-16 15:11:00,48.1,31.8,31.06,NNW,348,0.0,0.0,53,0.00,,,0.00,299.00,VWS V14.00,2013-10-16 21:11:00,
2013-10-16 15:12:00,48.1,31.8,31.06,NNW,348,0.0,0.0,53,0.00,,,0.00,306.00,VWS V14.00,2013-10-16 21:12:00,
2013-10-16 15:13:00,48.2,31.4,31.06,NNW,348,0.0,0.0,52,0.00,,,0.00,308.00,VWS V14.00,2013-10-16 21:13:00,
2013-10-16 15:14:00,48.2,31.9,31.06,NNW,348,0.0,0.0,53,0.00,,,0.00,304.00,VWS V14.00,2013-10-16 21:14:00,
2013-10-16 15:15:00,48.2,31.9,31.06,NNW,348,0.0,0.0,53,0.00,,,0.00,323.00,VWS V14.00,2013-10-16 21:15:00,
2013-10-16 15:16:00,48.3,32.0,31.06,NNW,348,0.0,0.0,53,0.00,,,0.00,359.00,VWS V14.00,2013-10-16 21:16:00,
2013-10-16 15:17:00,48.4,32.1,31.06,NNW,348,0.0,0.0,53,0.00,,,0.00,359.00,VWS V14.00,2013-10-16 21:17:00,
2013-10-16 15:18:00,48.5,31.7,31.06,NNW,348,0.0,0.0,52,0.00,,,0.00,381.00,VWS V14.00,2013-10-16 21:18:00,
2013-10-16 15:19:00,48.6,31.8,31.05,NNW,348,0.0,0.0,52,0.00,,,0.00,302.00,VWS V14.00,2013-10-16 21:19:00,
2013-10-16 15:20:00,48.8,32.4,31.05,NNW,348,0.0,0.0,53,0.00,,,0.00,373.00,VWS V14.00,2013-10-16 21:20:00,
2013-10-16 15:21:00,48.9,32.5,31.05,NNW,348,0.0,0.0,53,0.00,,,0.00,292.00,VWS V14.00,2013-10-16 21:21:00,
2013-10-16 15:22:00,49.0,31.7,31.05,NNW,348,0.0,0.0,51,0.00,,,0.00,294.00,VWS V14.00,2013-10-16 21:22:00,
2013-10-16 15:23:00,49.1,32.2,31.05,NNW,348,0.0,0.0,52,0.00,,,0.00,269.00,VWS V14.00,2013-10-16 21:23:00,
2013-10-16 15:24:00,49.2,32.3,31.05,NNW,348,3.0,4.0,52,0.00,,,0.00,258.00,VWS V14.00,2013-10-16 21:24:00,
2013-10-16 15:25:00,49.2,31.9,31.05,NNW,348,2.0,4.0,51,0.00,,,0.00,258.00,VWS V14.00,2013-10-16 21:25:00,
2013-10-16 15:26:00,49.2,31.9,31.05,NNW,348,3.0,4.0,51,0.00,,,0.00,250.00,VWS V14.00,2013-10-16 21:26:00,
2013-10-16 15:27:00,49.2,32.3,31.05,NNW,348,1.0,4.0,52,0.00,,,0.00,244.00,VWS V14.00,2013-10-16 21:27:00,
2013-10-16 15:28:00,49.2,31.9,31.05,NNW,348,0.0,4.0,51,0.00,,,0.00,236.00,VWS V14.00,2013-10-16 21:28:00,
2013-10-16 15:29:00,49.2,31.9,31.05,NNW,348,0.0,4.0,51,0.00,,,0.00,250.00,VWS V14.00,2013-10-16 21:29:00,
2013-10-16 15:30:00,49.1,31.3,31.05,NNW,348,0.0,4.0,50,0.00,,,0.00,227.00,VWS V14.00,2013-10-16 21:30:00,
2013-10-16 15:31:00,49.1,31.3,31.05,NNW,348,0.0,0.0,50,0.00,,,0.00,230.00,VWS V14.00,2013-10-16 21:31:00,
2013-10-16 15:32:00,49.1,31.3,31.05,NNW,348,0.0,0.0,50,0.00,,,0.00,213.00,VWS V14.00,2013-10-16 21:32:00,
2013-10-16 15:33:00,49.1,31.8,31.05,NNW,348,0.0,0.0,51,0.00,,,0.00,213.00,VWS V14.00,2013-10-16 21:33:00,
2013-10-16 15:34:00,49.0,31.7,31.05,NNW,348,0.0,0.0,51,0.00,,,0.00,211.00,VWS V14.00,2013-10-16 21:34:00,
2013-10-16 15:35:00,49.0,31.7,31.05,NNW,348,0.0,0.0,51,0.00,,,0.00,223.00,VWS V14.00,2013-10-16 21:35:00,
2013-10-16 15:36:00,49.0,31.7,31.05,NNW,348,0.0,0.0,51,0.00,,,0.00,232.00,VWS V14.00,2013-10-16 21:36:00,
2013-10-16 15:37:00,49.0,31.7,31.05,NNW,348,0.0,0.0,51,0.00,,,0.00,250.00,VWS V14.00,2013-10-16 21:37:00,
2013-10-16 15:38:00,49.1,31.8,31.05,NNW,348,0.0,0.0,51,0.00,,,0.00,236.00,VWS V14.00,2013-10-16 21:38:00,
2013-10-16 15:39:00,49.2,32.3,31.05,NNW,348,0.0,0.0,52,0.00,,,0.00,570.00,VWS V14.00,2013-10-16 21:39:00,
2013-10-16 15:40:00,49.2,32.3,31.05,NNW,348,0.0,0.0,52,0.00,,,0.00,570.00,VWS V14.00,2013-10-16 21:40:00,
2013-10-16 15:41:00,49.3,32.4,31.05,NNW,348,0.0,0.0,52,0.00,,,0.00,341.00,VWS V14.00,2013-10-16 21:41:00,
2013-10-16 15:42:00,49.4,32.0,31.05,NNW,348,0.0,1.0,51,0.00,,,0.00,302.00,VWS V14.00,2013-10-16 21:42:00,
2013-10-16 15:43:00,49.4,31.6,31.05,NNW,348,0.0,1.0,50,0.00,,,0.00,302.00,VWS V14.00,2013-10-16 21:43:00,
2013-10-16 15:44:00,49.5,32.1,31.05,NNW,348,0.0,1.0,51,0.00,,,0.00,302.00,VWS V14.00,2013-10-16 21:44:00,
2013-10-16 15:45:00,49.6,32.7,31.05,NNW,348,0.0,1.0,52,0.00,,,0.00,302.00,VWS V14.00,2013-10-16 21:45:00,
2013-10-16 15:46:00,49.7,32.8,31.05,NNW,348,0.0,0.0,52,0.00,,,0.00,330.00,VWS V14.00,2013-10-16 21:46:00,
2013-10-16 15:47:00,49.9,33.0,31.05,NNW,348,2.0,3.0,52,0.00,,,0.00,330.00,VWS V14.00,2013-10-16 21:47:00,
2013-10-16 15:48:00,50.0,33.1,31.05,NNW,348,0.0,3.0,52,0.00,,,0.00,330.00,VWS V14.00,2013-10-16 21:48:00,
2013-10-16 15:49:00,50.1,33.7,31.05,NNW,348,2.0,3.0,53,0.00,,,0.00,330.00,VWS V14.00,2013-10-16 21:49:00,
2013-10-16 15:50:00,50.2,32.8,31.05,NNW,344,2.0,5.0,51,0.00,,,0.00,557.00,VWS V14.00,2013-10-16 21:50:00,
2013-10-16 15:51:00,50.3,32.9,31.05,NNW,344,2.0,5.0,51,0.00,,,0.00,557.00,VWS V14.00,2013-10-16 21:51:00,
2013-10-16 15:52:00,50.4,33.0,31.05,NNW,344,0.0,5.0,51,0.00,,,0.00,563.00,VWS V14.00,2013-10-16 21:52:00,
2013-10-16 15:53:00,50.5,32.6,31.05,NNW,344,0.0,5.0,50,0.00,,,0.00,554.00,VWS V14.00,2013-10-16 21:53:00,
2013-10-16 15:54:00,50.7,31.7,31.04,NNW,344,0.0,5.0,48,0.00,,,0.00,527.00,VWS V14.00,2013-10-16 21:54:00,
2013-10-16 15:55:00,50.9,31.9,31.04,NNW,344,0.0,5.0,48,0.00,,,0.00,541.00,VWS V14.00,2013-10-16 21:55:00,
2013-10-16 15:56:00,51.0,31.5,31.04,NNW,344,0.0,5.0,47,0.00,,,0.00,534.00,VWS V14.00,2013-10-16 21:56:00,
2013-10-16 15:57:00,51.1,32.1,31.04,NNW,344,0.0,5.0,48,0.00,,,0.00,508.00,VWS V14.00,2013-10-16 21:57:00,
2013-10-16 15:58:00,51.3,31.8,31.04,NNW,344,2.0,5.0,47,0.00,,,0.00,519.00,VWS V14.00,2013-10-16 21:58:00,
2013-10-16 15:59:00,51.4,31.9,31.04,NNW,344,0.0,5.0,47,0.00,,,0.00,529.00,VWS V14.00,2013-10-16 21:59:00,
2013-10-16 16:00:00,51.5,32.5,31.04,NNW,344,0.0,5.0,48,0.00,,,0.00,536.00,VWS V14.00,2013-10-16 22:00:00,
2013-10-16 16:01:00,51.6,32.0,31.05,NNW,344,2.0,2.0,47,0.00,,,0.00,536.00,VWS V14.00,2013-10-16 22:01:00,
2013-10-16 16:02:00,51.7,33.7,31.05,NNW,344,3.0,5.0,50,0.00,,,0.00,439.00,VWS V14.00,2013-10-16 22:02:00,
2013-10-16 16:03:00,51.7,31.6,31.04,NNW,344,0.0,5.0,46,0.00,,,0.00,496.00,VWS V14.00,2013-10-16 22:03:00,
2013-10-16 16:04:00,51.8,32.8,31.05,NNW,344,3.0,5.0,48,0.00,,,0.00,504.00,VWS V14.00,2013-10-16 22:04:00,
2013-10-16 16:05:00,51.9,32.3,31.05,NNW,340,5.0,5.0,47,0.00,,,0.00,492.00,VWS V14.00,2013-10-16 22:05:00,
2013-10-16 16:06:00,51.9,31.2,31.05,NNW,339,2.0,5.0,45,0.00,,,0.00,492.00,VWS V14.00,2013-10-16 22:06:00,
2013-10-16 16:15:00,51.5,31.4,31.05,NNW,338,1.0,7.0,46,0.00,,,0.00,328.00,VWS V14.00,2013-10-16 22:15:00,
2013-10-16 16:30:00,50.6,31.6,31.05,NNW,338,0.0,3.0,48,0.00,,,0.00,129.00,VWS V14.00,2013-10-16 22:30:00,
2013-10-16 16:45:00,49.4,31.6,31.06,NNW,338,0.0,3.0,50,0.00,,,0.00,95.00,VWS V14.00,2013-10-16 22:45:00,
2013-10-16 17:00:00,48.6,31.8,31.06,NNW,338,1.0,4.0,52,0.00,,,0.00,65.00,VWS V14.00,2013-10-16 23:00:00,
2013-10-16 17:15:00,48.3,32.0,31.06,NNW,338,0.0,0.0,53,0.00,,,0.00,51.00,VWS V14.00,2013-10-16 23:15:00,
2013-10-16 17:30:00,48.1,33.2,31.06,NNW,338,0.0,0.0,56,0.00,,,0.00,41.00,VWS V14.00,2013-10-16 23:30:00,
2013-10-16 17:45:00,47.8,32.9,31.07,NNW,338,0.0,0.0,56,0.00,,,0.00,28.00,VWS V14.00,2013-10-16 23:45:00,
2013-10-16 18:00:00,47.4,33.0,31.08,NNW,338,0.0,0.0,57,0.00,,,0.00,18.00,VWS V14.00,2013-10-17 00:00:00,
2013-10-16 18:15:00,47.0,33.0,31.07,NNW,338,0.0,0.0,58,0.00,,,0.00,11.00,VWS V14.00,2013-10-17 00:15:00,
2013-10-16 18:30:00,46.8,32.8,31.07,NNW,338,0.0,0.0,58,0.00,,,0.00,4.00,VWS V14.00,2013-10-17 00:30:00,
2013-10-16 18:45:00,46.3,33.6,31.07,NNW,338,0.0,0.0,61,0.00,,,0.00,0.00,VWS V14.00,2013-10-17 00:45:00,
2013-10-16 19:00:00,45.6,34.1,31.07,NNW,338,0.0,0.0,64,0.00,,,0.00,0.00,VWS V14.00,2013-10-17 01:00:00,
2013-10-16 19:22:00,45.6,34.1,31.07,NNW,338,0.0,0.0,64,0.00,,,0.00,0.00,VWS V14.00,2013-10-17 01:22:00,
2013-10-16 19:23:00,44.8,33.0,31.09,NNW,333,0.0,0.0,63,0.00,,,0.00,0.00,VWS V14.00,2013-10-17 01:23:00,
2013-10-16 19:24:00,44.7,33.3,31.09,NNW,333,0.0,0.0,64,0.00,,,0.00,0.00,VWS V14.00,2013-10-17 01:24:00,
2013-10-16 19:25:00,44.7,33.3,31.09,NNW,333,0.0,0.0,64,0.00,,,0.00,0.00,VWS V14.00,2013-10-17 01:25:00,
2013-10-16 19:26:00,44.7,32.9,31.09,NNW,333,0.0,0.0,63,0.00,,,0.00,0.00,VWS V14.00,2013-10-17 01:26:00,
2013-10-16 19:27:00,44.7,32.9,31.09,NNW,333,0.0,0.0,63,0.00,,,0.00,0.00,VWS V14.00,2013-10-17 01:27:00,
2013-10-16 19:28:00,44.6,32.8,31.09,NNW,333,0.0,0.0,63,0.00,,,0.00,0.00,VWS V14.00,2013-10-17 01:28:00,
2013-10-16 19:29:00,44.6,33.2,31.09,NNW,333,0.0,0.0,64,0.00,,,0.00,0.00,VWS V14.00,2013-10-17 01:29:00,
2013-10-16 19:30:00,44.6,33.2,31.09,NNW,333,0.0,0.0,64,0.00,,,0.00,0.00,VWS V14.00,2013-10-17 01:30:00,
2013-10-16 19:31:00,44.6,34.0,31.09,NNW,333,0.0,0.0,66,0.00,,,0.00,0.00,VWS V14.00,2013-10-17 01:31:00,
2013-10-16 19:32:00,44.6,34.0,31.09,NNW,333,0.0,0.0,66,0.00,,,0.00,0.00,VWS V14.00,2013-10-17 01:32:00,
2013-10-16 19:33:00,44.5,33.9,31.09,NNW,333,0.0,0.0,66,0.00,,,0.00,0.00,VWS V14.00,2013-10-17 01:33:00,
2013-10-16 19:34:00,44.5,33.5,31.09,NNW,333,0.0,0.0,65,0.00,,,0.00,0.00,VWS V14.00,2013-10-17 01:34:00,
2013-10-16 19:35:00,44.5,33.5,31.09,NNW,333,0.0,0.0,65,0.00,,,0.00,0.00,VWS V14.00,2013-10-17 01:35:00,
2013-10-16 19:36:00,44.5,33.5,31.09,NNW,333,0.0,0.0,65,0.00,,,0.00,0.00,VWS V14.00,2013-10-17 01:36:00,
2013-10-16 19:37:00,44.5,33.5,31.09,NNW,333,0.0,0.0,65,0.00,,,0.00,0.00,VWS V14.00,2013-10-17 01:37:00,
2013-10-16 19:38:00,44.5,33.5,31.09,NNW,333,0.0,0.0,65,0.00,,,0.00,0.00,VWS V14.00,2013-10-17 01:38:00,
2013-10-16 19:39:00,44.4,33.8,31.09,NNW,333,0.0,0.0,66,0.00,,,0.00,0.00,VWS V14.00,2013-10-17 01:39:00,
2013-10-16 19:40:00,44.4,33.4,31.09,NNW,333,0.0,0.0,65,0.00,,,0.00,0.00,VWS V14.00,2013-10-17 01:40:00,
2013-10-16 19:41:00,44.4,33.8,31.09,NNW,333,0.0,0.0,66,0.00,,,0.00,0.00,VWS V14.00,2013-10-17 01:41:00,
2013-10-16 19:42:00,44.4,33.4,31.09,NNW,333,0.0,0.0,65,0.00,,,0.00,0.00,VWS V14.00,2013-10-17 01:42:00,
2013-10-16 19:43:00,44.3,33.3,31.09,NNW,333,0.0,0.0,65,0.00,,,0.00,0.00,VWS V14.00,2013-10-17 01:43:00,
2013-10-16 19:44:00,44.3,33.3,31.09,NNW,333,0.0,0.0,65,0.00,,,0.00,0.00,VWS V14.00,2013-10-17 01:44:00,
2013-10-16 19:45:00,44.3,33.3,31.09,NNW,333,0.0,0.0,65,0.00,,,0.00,0.00,VWS V14.00,2013-10-17 01:45:00,
2013-10-16 19:46:00,44.3,33.3,31.09,NNW,333,0.0,0.0,65,0.00,,,0.00,0.00,VWS V14.00,2013-10-17 01:46:00,
2013-10-16 19:47:00,44.2,33.6,31.09,NNW,333,0.0,0.0,66,0.00,,,0.00,0.00,VWS V14.00,2013-10-17 01:47:00,
2013-10-16 19:48:00,44.2,33.2,31.09,NNW,333,0.0,0.0,65,0.00,,,0.00,0.00,VWS V14.00,2013-10-17 01:48:00,
2013-10-16 19:49:00,44.2,32.8,31.09,NNW,333,0.0,0.0,64,0.00,,,0.00,0.00,VWS V14.00,2013-10-17 01:49:00,
2013-10-16 19:50:00,44.2,32.8,31.09,NNW,333,0.0,0.0,64,0.00,,,0.00,0.00,VWS V14.00,2013-10-17 01:50:00,
2013-10-16 19:51:00,44.2,33.2,31.09,NNW,333,0.0,0.0,65,0.00,,,0.00,0.00,VWS V14.00,2013-10-17 01:51:00,
2013-10-16 19:52:00,44.2,33.2,31.09,NNW,333,0.0,0.0,65,0.00,,,0.00,0.00,VWS V14.00,2013-10-17 01:52:00,
2013-10-16 19:53:00,44.2,33.6,31.09,NNW,333,0.0,0.0,66,0.00,,,0.00,0.00,VWS V14.00,2013-10-17 01:53:00,
2013-10-16 19:54:00,44.2,34.0,31.09,NNW,333,0.0,0.0,67,0.00,,,0.00,0.00,VWS V14.00,2013-10-17 01:54:00,
2013-10-16 19:55:00,44.1,33.5,31.09,NNW,333,0.0,0.0,66,0.00,,,0.00,0.00,VWS V14.00,2013-10-17 01:55:00,
2013-10-16 19:56:00,44.1,33.5,31.09,NNW,333,0.0,0.0,66,0.00,,,0.00,0.00,VWS V14.00,2013-10-17 01:56:00,
2013-10-16 19:57:00,44.1,33.5,31.09,NNW,333,0.0,0.0,66,0.00,,,0.00,0.00,VWS V14.00,2013-10-17 01:57:00,
2013-10-16 19:58:00,44.1,33.9,31.09,NNW,333,0.0,0.0,67,0.00,,,0.00,0.00,VWS V14.00,2013-10-17 01:58:00,
2013-10-16 19:59:00,44.1,33.5,31.09,NNW,333,0.0,0.0,66,0.00,,,0.00,0.00,VWS V14.00,2013-10-17 01:59:00,
2013-10-16 20:00:00,44.1,33.5,31.09,NNW,333,0.0,0.0,66,0.00,,,0.00,0.00,VWS V14.00,2013-10-17 02:00:00,
2013-10-16 20:01:00,44.0,33.4,31.09,NNW,333,0.0,0.0,66,0.00,,,0.00,0.00,VWS V14.00,2013-10-17 02:01:00,
2013-10-16 20:02:00,44.0,33.4,31.09,NNW,333,0.0,0.0,66,0.00,,,0.00,0.00,VWS V14.00,2013-10-17 02:02:00,
2013-10-16 20:03:00,44.0,33.4,31.09,NNW,333,0.0,0.0,66,0.00,,,0.00,0.00,VWS V14.00,2013-10-17 02:03:00,
2013-10-16 20:04:00,44.0,33.8,31.09,NNW,333,0.0,0.0,67,0.00,,,0.00,0.00,VWS V14.00,2013-10-17 02:04:00,
2013-10-16 20:05:00,44.0,34.1,31.09,NNW,333,0.0,0.0,68,0.00,,,0.00,0.00,VWS V14.00,2013-10-17 02:05:00,
2013-10-16 20:06:00,43.9,34.0,31.09,NNW,333,0.0,0.0,68,0.00,,,0.00,0.00,VWS V14.00,2013-10-17 02:06:00,
2013-10-16 20:07:00,43.9,34.0,31.09,NNW,333,0.0,0.0,68,0.00,,,0.00,0.00,VWS V14.00,2013-10-17 02:07:00,
2013-10-16 20:08:00,43.9,34.0,31.09,NNW,333,0.0,0.0,68,0.00,,,0.00,0.00,VWS V14.00,2013-10-17 02:08:00,
2013-10-16 20:09:00,43.9,34.0,31.09,NNW,333,0.0,0.0,68,0.00,,,0.00,0.00,VWS V14.00,2013-10-17 02:09:00,
2013-10-16 20:10:00,43.9,34.0,31.09,NNW,333,0.0,0.0,68,0.00,,,0.00,0.00,VWS V14.00,2013-10-17 02:10:00,
2013-10-16 20:11:00,43.9,34.0,31.09,NNW,333,0.0,0.0,68,0.00,,,0.00,0.00,VWS V14.00,2013-10-17 02:11:00,
2013-10-16 20:12:00,43.8,33.9,31.09,NNW,333,0.0,0.0,68,0.00,,,0.00,0.00,VWS V14.00,2013-10-17 02:12:00,
2013-10-16 20:13:00,43.8,33.9,31.09,NNW,333,0.0,0.0,68,0.00,,,0.00,0.00,VWS V14.00,2013-10-17 02:13:00,
2013-10-16 20:14:00,43.8,33.9,31.09,NNW,333,0.0,0.0,68,0.00,,,0.00,0.00,VWS V14.00,2013-10-17 02:14:00,
2013-10-16 20:15:00,43.8,33.9,31.09,NNW,333,0.0,0.0,68,0.00,,,0.00,0.00,VWS V14.00,2013-10-17 02:15:00,
2013-10-16 20:16:00,43.8,33.9,31.09,NNW,333,0.0,0.0,68,0.00,,,0.00,0.00,VWS V14.00,2013-10-17 02:16:00,
2013-10-16 20:17:00,43.8,33.9,31.09,NNW,333,0.0,0.0,68,0.00,,,0.00,0.00,VWS V14.00,2013-10-17 02:17:00,
2013-10-16 20:18:00,43.7,33.8,31.09,NNW,333,0.0,0.0,68,0.00,,,0.00,0.00,VWS V14.00,2013-10-17 02:18:00,
2013-10-16 20:19:00,43.7,34.2,31.09,NNW,333,0.0,0.0,69,0.00,,,0.00,0.00,VWS V14.00,2013-10-17 02:19:00,
2013-10-16 20:20:00,43.7,34.2,31.09,NNW,333,0.0,0.0,69,0.00,,,0.00,0.00,VWS V14.00,2013-10-17 02:20:00,
2013-10-16 20:21:00,43.7,34.2,31.09,NNW,333,0.0,0.0,69,0.00,,,0.00,0.00,VWS V14.00,2013-10-17 02:21:00,
2013-10-16 20:22:00,43.6,33.8,31.10,NNW,333,0.0,0.0,68,0.00,,,0.00,0.00,VWS V14.00,2013-10-17 02:22:00,
2013-10-16 20:23:00,43.6,34.1,31.09,NNW,333,0.0,0.0,69,0.00,,,0.00,0.00,VWS V14.00,2013-10-17 02:23:00,
2013-10-16 20:24:00,43.6,34.5,31.09,NNW,333,0.0,0.0,70,0.00,,,0.00,0.00,VWS V14.00,2013-10-17 02:24:00,
2013-10-16 20:25:00,43.5,34.0,31.09,NNW,333,0.0,0.0,69,0.00,,,0.00,0.00,VWS V14.00,2013-10-17 02:25:00,
2013-10-16 20:26:00,43.5,33.7,31.10,NNW,333,0.0,0.0,68,0.00,,,0.00,0.00,VWS V14.00,2013-10-17 02:26:00,
2013-10-16 20:27:00,43.4,33.2,31.09,NNW,333,0.0,0.0,67,0.00,,,0.00,0.00,VWS V14.00,2013-10-17 02:27:00,
2013-10-16 20:28:00,43.4,33.2,31.10,NNW,333,0.0,0.0,67,0.00,,,0.00,0.00,VWS V14.00,2013-10-17 02:28:00,
2013-10-16 20:29:00,43.4,33.2,31.09,NNW,333,0.0,0.0,67,0.00,,,0.00,0.00,VWS V14.00,2013-10-17 02:29:00,
2013-10-16 20:30:00,43.4,33.2,31.09,NNW,333,0.0,0.0,67,0.00,,,0.00,0.00,VWS V14.00,2013-10-17 02:30:00,
2013-10-16 20:31:00,43.3,33.5,31.10,NNW,333,0.0,0.0,68,0.00,,,0.00,0.00,VWS V14.00,2013-10-17 02:31:00,
2013-10-16 20:32:00,43.3,33.1,31.10,NNW,333,0.0,0.0,67,0.00,,,0.00,0.00,VWS V14.00,2013-10-17 02:32:00,
2013-10-16 20:33:00,43.2,33.0,31.10,NNW,333,0.0,0.0,67,0.00,,,0.00,0.00,VWS V14.00,2013-10-17 02:33:00,
2013-10-16 20:34:00,43.2,33.0,31.10,NNW,333,0.0,0.0,67,0.00,,,0.00,0.00,VWS V14.00,2013-10-17 02:34:00,
2013-10-16 20:35:00,43.2,33.0,31.10,NNW,333,0.0,0.0,67,0.00,,,0.00,0.00,VWS V14.00,2013-10-17 02:35:00,
2013-10-16 20:36:00,43.2,33.0,31.10,NNW,333,0.0,0.0,67,0.00,,,0.00,0.00,VWS V14.00,2013-10-17 02:36:00,
2013-10-16 20:37:00,43.1,33.3,31.10,NNW,333,0.0,0.0,68,0.00,,,0.00,0.00,VWS V14.00,2013-10-17 02:37:00,
2013-10-16 20:38:00,43.1,33.3,31.10,NNW,333,0.0,0.0,68,0.00,,,0.00,0.00,VWS V14.00,2013-10-17 02:38:00,
2013-10-16 20:39:00,43.1,33.3,31.10,NNW,333,0.0,0.0,68,0.00,,,0.00,0.00,VWS V14.00,2013-10-17 02:39:00,
2013-10-16 20:40:00,43.1,33.3,31.10,NNW,333,0.0,0.0,68,0.00,,,0.00,0.00,VWS V14.00,2013-10-17 02:40:00,
2013-10-16 20:41:00,43.1,33.3,31.10,NNW,333,0.0,0.0,68,0.00,,,0.00,0.00,VWS V14.00,2013-10-17 02:41:00,
2013-10-16 20:42:00,43.1,32.9,31.10,NNW,333,0.0,0.0,67,0.00,,,0.00,0.00,VWS V14.00,2013-10-17 02:42:00,
2013-10-16 20:43:00,43.0,32.8,31.10,NNW,333,0.0,0.0,67,0.00,,,0.00,0.00,VWS V14.00,2013-10-17 02:43:00,
2013-10-16 20:44:00,43.0,32.8,31.10,NNW,333,0.0,0.0,67,0.00,,,0.00,0.00,VWS V14.00,2013-10-17 02:44:00,
2013-10-16 20:45:00,43.0,32.8,31.10,NNW,333,0.0,0.0,67,0.00,,,0.00,0.00,VWS V14.00,2013-10-17 02:45:00,
2013-10-16 20:46:00,43.0,32.8,31.10,NNW,333,0.0,0.0,67,0.00,,,0.00,0.00,VWS V14.00,2013-10-17 02:46:00,
2013-10-16 20:47:00,43.0,33.2,31.10,NNW,333,0.0,0.0,68,0.00,,,0.00,0.00,VWS V14.00,2013-10-17 02:47:00,
2013-10-16 20:48:00,43.0,33.2,31.10,NNW,333,0.0,0.0,68,0.00,,,0.00,0.00,VWS V14.00,2013-10-17 02:48:00,
2013-10-16 20:49:00,43.0,33.2,31.10,NNW,333,0.0,0.0,68,0.00,,,0.00,0.00,VWS V14.00,2013-10-17 02:49:00,
2013-10-16 20:50:00,42.9,32.7,31.10,NNW,333,0.0,0.0,67,0.00,,,0.00,0.00,VWS V14.00,2013-10-17 02:50:00,
2013-10-16 20:51:00,42.9,32.7,31.10,NNW,333,0.0,0.0,67,0.00,,,0.00,0.00,VWS V14.00,2013-10-17 02:51:00,
2013-10-16 20:52:00,42.9,32.3,31.10,NNW,333,0.0,0.0,66,0.00,,,0.00,0.00,VWS V14.00,2013-10-17 02:52:00,
2013-10-16 20:53:00,42.9,32.7,31.10,NNW,333,0.0,0.0,67,0.00,,,0.00,0.00,VWS V14.00,2013-10-17 02:53:00,
2013-10-16 20:54:00,42.9,33.1,31.10,NNW,333,0.0,0.0,68,0.00,,,0.00,0.00,VWS V14.00,2013-10-17 02:54:00,
2013-10-16 20:55:00,42.9,33.1,31.10,NNW,333,0.0,0.0,68,0.00,,,0.00,0.00,VWS V14.00,2013-10-17 02:55:00,
2013-10-16 20:56:00,42.9,33.1,31.10,NNW,333,0.0,0.0,68,0.00,,,0.00,0.00,VWS V14.00,2013-10-17 02:56:00,
2013-10-16 20:57:00,42.9,33.4,31.10,NNW,333,0.0,0.0,69,0.00,,,0.00,0.00,VWS V14.00,2013-10-17 02:57:00,
2013-10-16 20:58:00,42.9,33.8,31.10,NNW,333,0.0,0.0,70,0.00,,,0.00,0.00,VWS V14.00,2013-10-17 02:58:00,
2013-10-16 20:59:00,42.9,33.4,31.10,NNW,333,0.0,0.0,69,0.00,,,0.00,0.00,VWS V14.00,2013-10-17 02:59:00,
2013-10-16 21:00:00,42.9,33.4,31.10,NNW,333,0.0,0.0,69,0.00,,,0.00,0.00,VWS V14.00,2013-10-17 03:00:00,
2013-10-16 21:01:00,42.9,33.4,31.09,NNW,333,0.0,0.0,69,0.00,,,0.00,0.00,VWS V14.00,2013-10-17 03:01:00,
2013-10-16 21:02:00,42.9,33.4,31.09,NNW,333,0.0,0.0,69,0.00,,,0.00,0.00,VWS V14.00,2013-10-17 03:02:00,
2013-10-16 21:03:00,42.8,33.7,31.09,NNW,333,0.0,0.0,70,0.00,,,0.00,0.00,VWS V14.00,2013-10-17 03:03:00,
2013-10-16 21:04:00,42.8,34.1,31.09,NNW,333,0.0,0.0,71,0.00,,,0.00,0.00,VWS V14.00,2013-10-17 03:04:00,
2013-10-16 21:05:00,42.8,34.1,31.09,NNW,333,0.0,0.0,71,0.00,,,0.00,0.00,VWS V14.00,2013-10-17 03:05:00,
2013-10-16 21:06:00,42.8,34.1,31.10,NNW,333,0.0,0.0,71,0.00,,,0.00,0.00,VWS V14.00,2013-10-17 03:06:00,
2013-10-16 21:07:00,42.7,34.0,31.10,NNW,333,0.0,0.0,71,0.00,,,0.00,0.00,VWS V14.00,2013-10-17 03:07:00,
2013-10-16 21:08:00,42.7,34.0,31.10,NNW,333,0.0,0.0,71,0.00,,,0.00,0.00,VWS V14.00,2013-10-17 03:08:00,
2013-10-16 21:09:00,42.7,34.0,31.10,NNW,333,0.0,0.0,71,0.00,,,0.00,0.00,VWS V14.00,2013-10-17 03:09:00,
2013-10-16 21:10:00,42.6,34.2,31.10,NNW,333,0.0,0.0,72,0.00,,,0.00,0.00,VWS V14.00,2013-10-17 03:10:00,
2013-10-16 21:11:00,42.6,34.2,31.10,NNW,333,0.0,0.0,72,0.00,,,0.00,0.00,VWS V14.00,2013-10-17 03:11:00,
2013-10-16 21:12:00,42.6,33.9,31.10,NNW,333,0.0,0.0,71,0.00,,,0.00,0.00,VWS V14.00,2013-10-17 03:12:00,
2013-10-16 21:13:00,42.5,33.4,31.10,NNW,333,0.0,0.0,70,0.00,,,0.00,0.00,VWS V14.00,2013-10-17 03:13:00,
2013-10-16 21:14:00,42.5,33.4,31.10,NNW,333,0.0,0.0,70,0.00,,,0.00,0.00,VWS V14.00,2013-10-17 03:14:00,
2013-10-16 21:15:00,42.4,33.3,31.10,NNW,333,0.0,0.0,70,0.00,,,0.00,0.00,VWS V14.00,2013-10-17 03:15:00,
2013-10-16 21:16:00,42.4,33.7,31.10,NNW,333,0.0,0.0,71,0.00,,,0.00,0.00,VWS V14.00,2013-10-17 03:16:00,
2013-10-16 21:17:00,42.4,33.7,31.10,NNW,333,0.0,0.0,71,0.00,,,0.00,0.00,VWS V14.00,2013-10-17 03:17:00,
2013-10-16 21:18:00,42.3,33.6,31.10,NNW,333,0.0,0.0,71,0.00,,,0.00,0.00,VWS V14.00,2013-10-17 03:18:00,
2013-10-16 21:19:00,42.3,33.6,31.10,NNW,333,0.0,0.0,71,0.00,,,0.00,0.00,VWS V14.00,2013-10-17 03:19:00,
2013-10-16 21:20:00,42.3,33.6,31.10,NNW,333,0.0,0.0,71,0.00,,,0.00,0.00,VWS V14.00,2013-10-17 03:20:00,
2013-10-16 21:21:00,42.2,33.5,31.10,NNW,333,0.0,0.0,71,0.00,,,0.00,0.00,VWS V14.00,2013-10-17 03:21:00,
2013-10-16 21:22:00,42.2,33.1,31.10,NNW,333,0.0,0.0,70,0.00,,,0.00,0.00,VWS V14.00,2013-10-17 03:22:00,
2013-10-16 21:23:00,42.2,33.1,31.10,NNW,333,0.0,0.0,70,0.00,,,0.00,0.00,VWS V14.00,2013-10-17 03:23:00,
2013-10-16 21:24:00,42.2,32.8,31.10,NNW,333,0.0,0.0,69,0.00,,,0.00,0.00,VWS V14.00,2013-10-17 03:24:00,
2013-10-16 21:25:00,42.1,32.7,31.10,NNW,333,0.0,0.0,69,0.00,,,0.00,0.00,VWS V14.00,2013-10-17 03:25:00,
2013-10-16 21:26:00,42.1,32.7,31.10,NNW,333,0.0,0.0,69,0.00,,,0.00,0.00,VWS V14.00,2013-10-17 03:26:00,
2013-10-16 21:27:00,42.1,32.7,31.10,NNW,333,0.0,0.0,69,0.00,,,0.00,0.00,VWS V14.00,2013-10-17 03:27:00,
2013-10-16 21:28:00,42.0,32.6,31.10,NNW,333,0.0,0.0,69,0.00,,,0.00,0.00,VWS V14.00,2013-10-17 03:28:00,
2013-10-16 21:29:00,42.0,32.9,31.10,NNW,333,0.0,0.0,70,0.00,,,0.00,0.00,VWS V14.00,2013-10-17 03:29:00,
2013-10-16 21:30:00,42.0,32.6,31.10,NNW,333,0.0,0.0,69,0.00,,,0.00,0.00,VWS V14.00,2013-10-17 03:30:00,
2013-10-16 21:31:00,42.0,32.6,31.10,NNW,333,0.0,0.0,69,0.00,,,0.00,0.00,VWS V14.00,2013-10-17 03:31:00,
2013-10-16 21:32:00,42.0,32.6,31.10,NNW,333,0.0,0.0,69,0.00,,,0.00,0.00,VWS V14.00,2013-10-17 03:32:00,
2013-10-16 21:33:00,42.0,33.3,31.10,NNW,333,0.0,0.0,71,0.00,,,0.00,0.00,VWS V14.00,2013-10-17 03:33:00,
2013-10-16 21:34:00,42.0,33.3,31.10,NNW,333,0.0,0.0,71,0.00,,,0.00,0.00,VWS V14.00,2013-10-17 03:34:00,
2013-10-16 21:35:00,42.0,33.3,31.10,NNW,333,0.0,0.0,71,0.00,,,0.00,0.00,VWS V14.00,2013-10-17 03:35:00,
2013-10-16 21:36:00,41.9,33.2,31.10,NNW,333,0.0,0.0,71,0.00,,,0.00,0.00,VWS V14.00,2013-10-17 03:36:00,
2013-10-16 21:37:00,41.9,33.2,31.10,NNW,333,0.0,0.0,71,0.00,,,0.00,0.00,VWS V14.00,2013-10-17 03:37:00,
2013-10-16 21:38:00,41.8,33.1,31.10,NNW,333,0.0,0.0,71,0.00,,,0.00,0.00,VWS V14.00,2013-10-17 03:38:00,
2013-10-16 21:39:00,41.8,32.8,31.10,NNW,333,0.0,0.0,70,0.00,,,0.00,0.00,VWS V14.00,2013-10-17 03:39:00,
2013-10-16 21:40:00,41.8,32.8,31.10,NNW,333,0.0,0.0,70,0.00,,,0.00,0.00,VWS V14.00,2013-10-17 03:40:00,
2013-10-16 21:41:00,41.8,32.8,31.10,NNW,333,0.0,0.0,70,0.00,,,0.00,0.00,VWS V14.00,2013-10-17 03:41:00,
2013-10-16 21:42:00,41.8,32.8,31.10,NNW,333,0.0,0.0,70,0.00,,,0.00,0.00,VWS V14.00,2013-10-17 03:42:00,
2013-10-16 21:43:00,41.8,32.8,31.10,NNW,333,0.0,0.0,70,0.00,,,0.00,0.00,VWS V14.00,2013-10-17 03:43:00,
2013-10-16 21:44:00,41.8,32.8,31.10,NNW,333,0.0,0.0,70,0.00,,,0.00,0.00,VWS V14.00,2013-10-17 03:44:00,
2013-10-16 21:45:00,41.7,32.7,31.10,NNW,333,0.0,0.0,70,0.00,,,0.00,0.00,VWS V14.00,2013-10-17 03:45:00,
2013-10-16 21:46:00,41.7,32.7,31.10,NNW,333,0.0,0.0,70,0.00,,,0.00,0.00,VWS V14.00,2013-10-17 03:46:00,
2013-10-16 21:47:00,41.7,32.7,31.10,NNW,333,0.0,0.0,70,0.00,,,0.00,0.00,VWS V14.00,2013-10-17 03:47:00,
2013-10-16 21:48:00,41.7,32.7,31.10,NNW,333,0.0,0.0,70,0.00,,,0.00,0.00,VWS V14.00,2013-10-17 03:48:00,
2013-10-16 21:49:00,41.6,32.6,31.10,NNW,333,0.0,0.0,70,0.00,,,0.00,0.00,VWS V14.00,2013-10-17 03:49:00,
2013-10-16 21:50:00,41.6,32.6,31.10,NNW,333,0.0,0.0,70,0.00,,,0.00,0.00,VWS V14.00,2013-10-17 03:50:00,
2013-10-16 21:51:00,41.6,32.6,31.10,NNW,333,0.0,0.0,70,0.00,,,0.00,0.00,VWS V14.00,2013-10-17 03:51:00,
2013-10-16 21:52:00,41.6,32.6,31.10,NNW,333,0.0,0.0,70,0.00,,,0.00,0.00,VWS V14.00,2013-10-17 03:52:00,
2013-10-16 21:53:00,41.6,32.6,31.10,NNW,333,0.0,0.0,70,0.00,,,0.00,0.00,VWS V14.00,2013-10-17 03:53:00,
2013-10-16 21:54:00,41.6,32.6,31.11,NNW,333,0.0,0.0,70,0.00,,,0.00,0.00,VWS V14.00,2013-10-17 03:54:00,
2013-10-16 21:55:00,41.6,32.9,31.11,NNW,333,0.0,0.0,71,0.00,,,0.00,0.00,VWS V14.00,2013-10-17 03:55:00,
2013-10-16 21:56:00,41.6,32.9,31.10,NNW,333,0.0,0.0,71,0.00,,,0.00,0.00,VWS V14.00,2013-10-17 03:56:00,
2013-10-16 21:57:00,41.6,33.3,31.10,NNW,333,0.0,0.0,72,0.00,,,0.00,0.00,VWS V14.00,2013-10-17 03:57:00,
2013-10-16 21:58:00,41.5,33.2,31.10,NNW,333,0.0,0.0,72,0.00,,,0.00,0.00,VWS V14.00,2013-10-17 03:58:00,
2013-10-16 21:59:00,41.5,33.2,31.10,NNW,333,0.0,0.0,72,0.00,,,0.00,0.00,VWS V14.00,2013-10-17 03:59:00,
2013-10-16 22:00:00,41.5,33.2,31.10,NNW,333,0.0,0.0,72,0.00,,,0.00,0.00,VWS V14.00,2013-10-17 04:00:00,
2013-10-16 22:01:00,41.4,33.1,31.09,NNW,333,0.0,0.0,72,0.00,,,0.00,0.00,VWS V14.00,2013-10-17 04:01:00,
2013-10-16 22:02:00,41.4,33.1,31.09,NNW,333,0.0,0.0,72,0.00,,,0.00,0.00,VWS V14.00,2013-10-17 04:02:00,
2013-10-16 22:03:00,41.3,33.0,31.09,NNW,333,0.0,0.0,72,0.00,,,0.00,0.00,VWS V14.00,2013-10-17 04:03:00,
2013-10-16 22:04:00,41.3,33.3,31.09,NNW,333,0.0,0.0,73,0.00,,,0.00,0.00,VWS V14.00,2013-10-17 04:04:00,
2013-10-16 22:05:00,41.2,32.9,31.09,NNW,333,0.0,0.0,72,0.00,,,0.00,0.00,VWS V14.00,2013-10-17 04:05:00,
2013-10-16 22:06:00,41.2,32.5,31.09,NNW,333,0.0,0.0,71,0.00,,,0.00,0.00,VWS V14.00,2013-10-17 04:06:00,
2013-10-16 22:07:00,41.1,32.4,31.09,NNW,333,0.0,0.0,71,0.00,,,0.00,0.00,VWS V14.00,2013-10-17 04:07:00,
2013-10-16 22:08:00,41.1,32.4,31.09,NNW,333,0.0,0.0,71,0.00,,,0.00,0.00,VWS V14.00,2013-10-17 04:08:00,
2013-10-16 22:09:00,41.1,32.4,31.09,NNW,333,0.0,0.0,71,0.00,,,0.00,0.00,VWS V14.00,2013-10-17 04:09:00,
2013-10-16 22:10:00,41.1,32.4,31.09,NNW,333,0.0,0.0,71,0.00,,,0.00,0.00,VWS V14.00,2013-10-17 04:10:00,
2013-10-16 22:11:00,41.1,32.4,31.09,NNW,333,0.0,0.0,71,0.00,,,0.00,0.00,VWS V14.00,2013-10-17 04:11:00,
2013-10-16 22:12:00,41.0,32.3,31.09,NNW,333,0.0,0.0,71,0.00,,,0.00,0.00,VWS V14.00,2013-10-17 04:12:00,
2013-10-16 22:13:00,41.0,32.3,31.09,NNW,333,0.0,0.0,71,0.00,,,0.00,0.00,VWS V14.00,2013-10-17 04:13:00,
2013-10-16 22:14:00,41.0,32.7,31.09,NNW,333,0.0,0.0,72,0.00,,,0.00,0.00,VWS V14.00,2013-10-17 04:14:00,
2013-10-16 22:15:00,40.9,32.6,31.09,NNW,333,0.0,0.0,72,0.00,,,0.00,0.00,VWS V14.00,2013-10-17 04:15:00,
2013-10-16 22:16:00,40.9,32.6,31.09,NNW,333,0.0,0.0,72,0.00,,,0.00,0.00,VWS V14.00,2013-10-17 04:16:00,
2013-10-16 22:17:00,40.9,32.6,31.09,NNW,333,0.0,0.0,72,0.00,,,0.00,0.00,VWS V14.00,2013-10-17 04:17:00,
2013-10-16 22:18:00,40.9,32.6,31.09,NNW,333,0.0,0.0,72,0.00,,,0.00,0.00,VWS V14.00,2013-10-17 04:18:00,
2013-10-16 22:19:00,40.8,32.8,31.09,NNW,333,1.0,1.0,73,0.00,,,0.00,0.00,VWS V14.00,2013-10-17 04:19:00,
2013-10-16 22:20:00,40.8,32.8,31.09,NNW,333,0.0,2.0,73,0.00,,,0.00,0.00,VWS V14.00,2013-10-17 04:20:00,
2013-10-16 22:21:00,40.7,32.7,31.09,NNW,333,0.0,2.0,73,0.00,,,0.00,0.00,VWS V14.00,2013-10-17 04:21:00,
2013-10-16 22:22:00,40.7,32.7,31.09,NNW,333,0.0,2.0,73,0.00,,,0.00,0.00,VWS V14.00,2013-10-17 04:22:00,
2013-10-16 22:23:00,40.7,32.7,31.09,NNW,333,0.0,2.0,73,0.00,,,0.00,0.00,VWS V14.00,2013-10-17 04:23:00,
2013-10-16 22:24:00,40.6,32.6,31.09,NNW,333,0.0,2.0,73,0.00,,,0.00,0.00,VWS V14.00,2013-10-17 04:24:00,
2013-10-16 22:25:00,40.6,32.6,31.09,NNW,333,0.0,2.0,73,0.00,,,0.00,0.00,VWS V14.00,2013-10-17 04:25:00,
2013-10-16 22:26:00,40.5,32.5,31.09,NNW,333,0.0,2.0,73,0.00,,,0.00,0.00,VWS V14.00,2013-10-17 04:26:00,
2013-10-16 22:27:00,40.4,32.4,31.09,NNW,333,0.0,2.0,73,0.00,,,0.00,0.00,VWS V14.00,2013-10-17 04:27:00,
2013-10-16 22:28:00,40.4,32.4,31.10,NNW,333,0.0,2.0,73,0.00,,,0.00,0.00,VWS V14.00,2013-10-17 04:28:00,
2013-10-16 22:29:00,40.4,32.4,31.10,NNW,333,0.0,2.0,73,0.00,,,0.00,0.00,VWS V14.00,2013-10-17 04:29:00,
2013-10-16 22:30:00,40.4,32.4,31.10,NNW,333,0.0,2.0,73,0.00,,,0.00,0.00,VWS V14.00,2013-10-17 04:30:00,
2013-10-16 22:31:00,40.3,32.3,31.10,NNW,333,0.0,0.0,73,0.00,,,0.00,0.00,VWS V14.00,2013-10-17 04:31:00,
2013-10-16 22:32:00,40.3,32.3,31.10,NNW,333,0.0,0.0,73,0.00,,,0.00,0.00,VWS V14.00,2013-10-17 04:32:00,
2013-10-16 22:33:00,40.3,32.3,31.10,NNW,333,0.0,0.0,73,0.00,,,0.00,0.00,VWS V14.00,2013-10-17 04:33:00,
2013-10-16 22:34:00,40.2,32.2,31.10,NNW,333,0.0,0.0,73,0.00,,,0.00,0.00,VWS V14.00,2013-10-17 04:34:00,
2013-10-16 22:35:00,40.2,32.2,31.10,NNW,333,0.0,0.0,73,0.00,,,0.00,0.00,VWS V14.00,2013-10-17 04:35:00,
2013-10-16 22:36:00,40.2,32.2,31.10,NNW,333,0.0,0.0,73,0.00,,,0.00,0.00,VWS V14.00,2013-10-17 04:36:00,
2013-10-16 22:37:00,40.1,32.5,31.10,NNW,333,0.0,0.0,74,0.00,,,0.00,0.00,VWS V14.00,2013-10-17 04:37:00,
2013-10-16 22:38:00,40.1,32.5,31.10,NNW,333,0.0,0.0,74,0.00,,,0.00,0.00,VWS V14.00,2013-10-17 04:38:00,
2013-10-16 22:39:00,40.0,32.4,31.10,NNW,333,0.0,0.0,74,0.00,,,0.00,0.00,VWS V14.00,2013-10-17 04:39:00,
2013-10-16 22:40:00,40.0,32.1,31.10,NNW,333,0.0,0.0,73,0.00,,,0.00,0.00,VWS V14.00,2013-10-17 04:40:00,
2013-10-16 22:41:00,39.9,32.3,31.10,NNW,333,0.0,0.0,74,0.00,,,0.00,0.00,VWS V14.00,2013-10-17 04:41:00,
2013-10-16 22:42:00,39.9,32.3,31.10,NNW,333,0.0,0.0,74,0.00,,,0.00,0.00,VWS V14.00,2013-10-17 04:42:00,
2013-10-16 22:43:00,39.8,31.9,31.10,NNW,333,0.0,0.0,73,0.00,,,0.00,0.00,VWS V14.00,2013-10-17 04:43:00,
2013-10-16 22:44:00,39.8,31.9,31.10,NNW,333,0.0,0.0,73,0.00,,,0.00,0.00,VWS V14.00,2013-10-17 04:44:00,
2013-10-16 22:45:00,39.8,31.9,31.10,NNW,333,0.0,0.0,73,0.00,,,0.00,0.00,VWS V14.00,2013-10-17 04:45:00,
2013-10-16 22:46:00,39.7,31.8,31.10,NNW,333,0.0,0.0,73,0.00,,,0.00,0.00,VWS V14.00,2013-10-17 04:46:00,
2013-10-16 22:47:00,39.7,31.8,31.10,NNW,333,0.0,0.0,73,0.00,,,0.00,0.00,VWS V14.00,2013-10-17 04:47:00,
2013-10-16 22:48:00,39.7,32.1,31.10,NNW,333,0.0,0.0,74,0.00,,,0.00,0.00,VWS V14.00,2013-10-17 04:48:00,
2013-10-16 22:49:00,39.7,32.1,31.10,NNW,333,0.0,0.0,74,0.00,,,0.00,0.00,VWS V14.00,2013-10-17 04:49:00,
2013-10-16 22:50:00,39.6,32.0,31.10,NNW,333,0.0,0.0,74,0.00,,,0.00,0.00,VWS V14.00,2013-10-17 04:50:00,
2013-10-16 22:51:00,39.6,32.0,31.10,NNW,333,0.0,0.0,74,0.00,,,0.00,0.00,VWS V14.00,2013-10-17 04:51:00,
2013-10-16 22:52:00,39.6,32.0,31.10,NNW,333,0.0,0.0,74,0.00,,,0.00,0.00,VWS V14.00,2013-10-17 04:52:00,
2013-10-16 22:53:00,39.6,32.0,31.10,NNW,333,0.0,0.0,74,0.00,,,0.00,0.00,VWS V14.00,2013-10-17 04:53:00,
2013-10-16 22:54:00,39.5,31.9,31.10,NNW,333,0.0,0.0,74,0.00,,,0.00,0.00,VWS V14.00,2013-10-17 04:54:00,
2013-10-16 22:55:00,39.5,31.9,31.10,NNW,333,0.0,0.0,74,0.00,,,0.00,0.00,VWS V14.00,2013-10-17 04:55:00,
2013-10-16 22:56:00,39.5,31.9,31.10,NNW,333,0.0,0.0,74,0.00,,,0.00,0.00,VWS V14.00,2013-10-17 04:56:00,
2013-10-16 22:57:00,39.5,31.9,31.10,NNW,333,0.0,0.0,74,0.00,,,0.00,0.00,VWS V14.00,2013-10-17 04:57:00,
2013-10-16 22:58:00,39.5,32.2,31.10,NNW,333,0.0,0.0,75,0.00,,,0.00,0.00,VWS V14.00,2013-10-17 04:58:00,
2013-10-16 22:59:00,39.4,32.2,31.10,NNW,333,0.0,0.0,75,0.00,,,0.00,0.00,VWS V14.00,2013-10-17 04:59:00,
2013-10-16 23:00:00,39.4,31.8,31.10,NNW,333,0.0,0.0,74,0.00,,,0.00,0.00,VWS V14.00,2013-10-17 05:00:00,
2013-10-16 23:01:00,39.4,31.8,31.10,NNW,333,0.0,0.0,74,0.00,,,0.00,0.00,VWS V14.00,2013-10-17 05:01:00,
2013-10-16 23:02:00,39.3,31.7,31.10,NNW,333,0.0,0.0,74,0.00,,,0.00,0.00,VWS V14.00,2013-10-17 05:02:00,
2013-10-16 23:03:00,39.3,31.7,31.10,NNW,333,0.0,0.0,74,0.00,,,0.00,0.00,VWS V14.00,2013-10-17 05:03:00,
2013-10-16 23:04:00,39.3,31.7,31.10,NNW,333,0.0,0.0,74,0.00,,,0.00,0.00,VWS V14.00,2013-10-17 05:04:00,
2013-10-16 23:05:00,39.3,31.7,31.10,NNW,333,0.0,0.0,74,0.00,,,0.00,0.00,VWS V14.00,2013-10-17 05:05:00,
2013-10-16 23:06:00,39.3,31.7,31.10,NNW,333,0.0,0.0,74,0.00,,,0.00,0.00,VWS V14.00,2013-10-17 05:06:00,
2013-10-16 23:07:00,39.3,31.7,31.10,NNW,333,0.0,0.0,74,0.00,,,0.00,0.00,VWS V14.00,2013-10-17 05:07:00,
2013-10-16 23:08:00,39.3,31.7,31.10,NNW,333,0.0,0.0,74,0.00,,,0.00,0.00,VWS V14.00,2013-10-17 05:08:00,
2013-10-16 23:09:00,39.3,32.0,31.10,NNW,333,0.0,0.0,75,0.00,,,0.00,0.00,VWS V14.00,2013-10-17 05:09:00,
2013-10-16 23:10:00,39.2,32.0,31.10,NNW,333,0.0,0.0,75,0.00,,,0.00,0.00,VWS V14.00,2013-10-17 05:10:00,
2013-10-16 23:11:00,39.2,32.0,31.10,NNW,333,0.0,0.0,75,0.00,,,0.00,0.00,VWS V14.00,2013-10-17 05:11:00,
2013-10-16 23:12:00,39.2,31.6,31.10,NNW,333,0.0,0.0,74,0.00,,,0.00,0.00,VWS V14.00,2013-10-17 05:12:00,
2013-10-16 23:13:00,39.3,31.7,31.10,NNW,333,0.0,0.0,74,0.00,,,0.00,0.00,VWS V14.00,2013-10-17 05:13:00,
2013-10-16 23:14:00,39.3,32.0,31.10,NNW,333,0.0,0.0,75,0.00,,,0.00,0.00,VWS V14.00,2013-10-17 05:14:00,
2013-10-16 23:15:00,39.3,31.7,31.11,NNW,333,0.0,0.0,74,0.00,,,0.00,0.00,VWS V14.00,2013-10-17 05:15:00,
2013-10-16 23:16:00,39.3,31.7,31.10,NNW,333,0.0,0.0,74,0.00,,,0.00,0.00,VWS V14.00,2013-10-17 05:16:00,
2013-10-16 23:17:00,39.3,31.7,31.11,NNW,333,0.0,0.0,74,0.00,,,0.00,0.00,VWS V14.00,2013-10-17 05:17:00,
2013-10-16 23:18:00,39.2,31.6,31.10,NNW,333,0.0,0.0,74,0.00,,,0.00,0.00,VWS V14.00,2013-10-17 05:18:00,
2013-10-16 23:19:00,39.3,31.7,31.10,NNW,333,0.0,0.0,74,0.00,,,0.00,0.00,VWS V14.00,2013-10-17 05:19:00,
2013-10-16 23:20:00,39.3,31.7,31.10,NNW,333,0.0,0.0,74,0.00,,,0.00,0.00,VWS V14.00,2013-10-17 05:20:00,
2013-10-16 23:21:00,39.2,31.6,31.10,NNW,333,0.0,0.0,74,0.00,,,0.00,0.00,VWS V14.00,2013-10-17 05:21:00,
2013-10-16 23:22:00,39.3,31.7,31.10,NNW,333,0.0,0.0,74,0.00,,,0.00,0.00,VWS V14.00,2013-10-17 05:22:00,
2013-10-16 23:23:00,39.3,31.7,31.10,NNW,333,0.0,0.0,74,0.00,,,0.00,0.00,VWS V14.00,2013-10-17 05:23:00,
2013-10-16 23:24:00,39.3,31.7,31.10,NNW,333,0.0,0.0,74,0.00,,,0.00,0.00,VWS V14.00,2013-10-17 05:24:00,
2013-10-16 23:25:00,39.3,31.7,31.10,NNW,333,0.0,0.0,74,0.00,,,0.00,0.00,VWS V14.00,2013-10-17 05:25:00,
2013-10-16 23:26:00,39.3,31.7,31.10,NNW,333,0.0,0.0,74,0.00,,,0.00,0.00,VWS V14.00,2013-10-17 05:26:00,
2013-10-16 23:27:00,39.3,31.7,31.10,NNW,333,0.0,0.0,74,0.00,,,0.00,0.00,VWS V14.00,2013-10-17 05:27:00,
2013-10-16 23:28:00,39.3,31.7,31.10,NNW,333,0.0,0.0,74,0.00,,,0.00,0.00,VWS V14.00,2013-10-17 05:28:00,
2013-10-16 23:29:00,39.3,31.7,31.10,NNW,333,0.0,0.0,74,0.00,,,0.00,0.00,VWS V14.00,2013-10-17 05:29:00,
2013-10-16 23:30:00,39.3,31.7,31.10,NNW,333,0.0,0.0,74,0.00,,,0.00,0.00,VWS V14.00,2013-10-17 05:30:00,
2013-10-16 23:31:00,39.3,31.7,31.10,NNW,333,0.0,0.0,74,0.00,,,0.00,0.00,VWS V14.00,2013-10-17 05:31:00,
2013-10-16 23:32:00,39.3,31.7,31.10,NNW,333,0.0,0.0,74,0.00,,,0.00,0.00,VWS V14.00,2013-10-17 05:32:00,
2013-10-16 23:33:00,39.3,32.0,31.10,NNW,333,0.0,0.0,75,0.00,,,0.00,0.00,VWS V14.00,2013-10-17 05:33:00,
2013-10-16 23:34:00,39.3,32.0,31.10,NNW,333,0.0,0.0,75,0.00,,,0.00,0.00,VWS V14.00,2013-10-17 05:34:00,
2013-10-16 23:35:00,39.3,32.0,31.10,NNW,333,0.0,0.0,75,0.00,,,0.00,0.00,VWS V14.00,2013-10-17 05:35:00,
2013-10-16 23:36:00,39.3,32.0,31.10,NNW,333,0.0,0.0,75,0.00,,,0.00,0.00,VWS V14.00,2013-10-17 05:36:00,
2013-10-16 23:37:00,39.3,32.0,31.11,NNW,333,0.0,0.0,75,0.00,,,0.00,0.00,VWS V14.00,2013-10-17 05:37:00,
2013-10-16 23:38:00,39.3,32.0,31.11,NNW,333,0.0,0.0,75,0.00,,,0.00,0.00,VWS V14.00,2013-10-17 05:38:00,
2013-10-16 23:39:00,39.3,32.0,31.11,NNW,333,0.0,0.0,75,0.00,,,0.00,0.00,VWS V14.00,2013-10-17 05:39:00,
2013-10-16 23:40:00,39.3,32.0,31.11,NNW,333,0.0,0.0,75,0.00,,,0.00,0.00,VWS V14.00,2013-10-17 05:40:00,
2013-10-16 23:41:00,39.3,32.0,31.11,NNW,333,0.0,0.0,75,0.00,,,0.00,0.00,VWS V14.00,2013-10-17 05:41:00,
2013-10-16 23:42:00,39.3,32.0,31.11,NNW,333,0.0,0.0,75,0.00,,,0.00,0.00,VWS V14.00,2013-10-17 05:42:00,
2013-10-16 23:43:00,39.3,32.0,31.11,NNW,333,0.0,0.0,75,0.00,,,0.00,0.00,VWS V14.00,2013-10-17 05:43:00,
2013-10-16 23:44:00,39.4,32.2,31.11,NNW,333,0.0,0.0,75,0.00,,,0.00,0.00,VWS V14.00,2013-10-17 05:44:00,
2013-10-16 23:45:00,39.4,32.2,31.11,NNW,333,0.0,0.0,75,0.00,,,0.00,0.00,VWS V14.00,2013-10-17 05:45:00,
2013-10-16 23:46:00,39.4,32.2,31.11,NNW,333,0.0,0.0,75,0.00,,,0.00,0.00,VWS V14.00,2013-10-17 05:46:00,
2013-10-16 23:47:00,39.4,32.2,31.11,NNW,333,0.0,0.0,75,0.00,,,0.00,0.00,VWS V14.00,2013-10-17 05:47:00,
2013-10-16 23:48:00,39.4,32.2,31.11,NNW,333,0.0,0.0,75,0.00,,,0.00,0.00,VWS V14.00,2013-10-17 05:48:00,
2013-10-16 23:49:00,39.4,32.2,31.11,NNW,333,0.0,0.0,75,0.00,,,0.00,0.00,VWS V14.00,2013-10-17 05:49:00,
2013-10-16 23:50:00,39.4,32.2,31.11,NNW,333,0.0,0.0,75,0.00,,,0.00,0.00,VWS V14.00,2013-10-17 05:50:00,
2013-10-16 23:51:00,39.5,31.9,31.11,NNW,333,0.0,0.0,74,0.00,,,0.00,0.00,VWS V14.00,2013-10-17 05:51:00,
2013-10-16 23:52:00,39.5,31.9,31.10,NNW,333,0.0,0.0,74,0.00,,,0.00,0.00,VWS V14.00,2013-10-17 05:52:00,
2013-10-16 23:53:00,39.5,32.2,31.10,NNW,333,0.0,0.0,75,0.00,,,0.00,0.00,VWS V14.00,2013-10-17 05:53:00,
2013-10-16 23:54:00,39.5,32.2,31.10,NNW,333,0.0,0.0,75,0.00,,,0.00,0.00,VWS V14.00,2013-10-17 05:54:00,
2013-10-16 23:55:00,39.6,32.7,31.10,NNW,333,0.0,0.0,76,0.00,,,0.00,0.00,VWS V14.00,2013-10-17 05:55:00,
2013-10-16 23:56:00,39.6,32.7,31.10,NNW,333,0.0,0.0,76,0.00,,,0.00,0.00,VWS V14.00,2013-10-17 05:56:00,
2013-10-16 23:57:00,39.5,32.6,31.10,NNW,333,1.0,2.0,76,0.00,,,0.00,0.00,VWS V14.00,2013-10-17 05:57:00,
2013-10-16 23:58:00,39.5,32.6,31.10,NNW,333,0.0,2.0,76,0.00,,,0.00,0.00,VWS V14.00,2013-10-17 05:58:00,
2013-10-16 23:59:00,39.5,32.6,31.10,NNW,333,0.0,2.0,76,0.00,,,0.00,0.00,VWS V14.00,2013-10-17 05:59:00,